[[{"header":{"parameterUnit":"m.s-1","parameterCategory":1,"la1":31.0,"la2":29.5877,"lo1":-88.7671,"lo2":-86.6584,"dy":0.0162,"dx":0.0185,"nx":115,"ny":88,"refTime":"2023-08-07T00:00:00:Z","depth":0,"parameterNumber":2,"parameterNumberName":"U-component_of_WINDS"},"data":[0.0,0.0,0.0,0.0,0.0,0.0,0.0,0.0,0.0,0.0,0.0,0.0,0.0,0.0,0.0,0.0,0.0,0.0,0.0,0.0,0.0,0.0,0.0,0.0,0.0,0.0,0.0,0.0,0.0,0.0,0.0,0.0,0.0,0.0,0.0,0.0,0.0,0.0,0.0,0.0,0.0,0.0,0.0,0.0,0.0,0.0,0.0,0.0,0.0,0.0,0.0,0.0,0.0,0.0,0.0,0.0,0.0,0.0,0.0,0.0,0.0,0.0,0.0,0.0,0.0,0.0,0.0,0.0,0.0,0.0,0.0,0.0,0.0,0.0,0.0,0.0,0.0,0.0,0.0,0.0,0.0,0.0,0.0,0.0,0.0,0.0,0.0,0.0,0.0,0.0,0.0,0.0,0.0,0.0,0.0,0.0,0.0,0.0,0.0,0.0,0.0,0.0,0.0,0.0,0.0,0.0,0.0,0.0,0.0,0.0,0.0,0.0,0.0,0.0,0.0,0.0,0.0,0.0,0.0,0.0,0.0,0.0,0.0,0.0,0.0,0.0,0.0,0.0,0.0,0.0,0.0,0.0,0.0,0.0,0.0,0.0,0.0,0.0,0.0,0.0,0.0,0.0,0.0,0.0,0.0,0.0,0.0,0.0,0.0,0.0,0.0,0.0,0.0,0.0,0.0,0.0,0.0,0.0,0.0,0.0,0.0,0.0,0.0,0.0,0.0,0.0,0.0,0.0,0.0,0.0,0.0,0.0,0.0,0.0,0.0,0.0,0.0,0.0,0.0,0.0,0.0,0.0,0.0,0.0,0.0,0.0,0.0,0.0,0.0,0.0,0.0,0.0,0.0,0.0,0.0,0.0,0.0,0.0,0.0,0.0,0.0,0.0,0.0,0.0,0.0,0.0,0.0,0.0,0.0,0.0,0.0,0.0,0.0,0.0,0.0,0.0,0.0,0.0,0.0,0.0,0.0,0.0,0.0,0.0,0.0,0.0,0.0,0.0,0.0,0.0,0.0,0.0,0.0,0.0,0.0,0.0,0.0,0.0,0.0,0.0,0.0,0.0,0.0,0.0,0.0,0.0,0.0,0.0,0.0,0.0,0.0,0.0,0.0,0.0,0.0,0.0,0.0,0.0,0.0,0.0,0.0,0.0,0.0,0.0,0.0,0.0,0.0,0.0,0.0,0.0,0.0,0.0,0.0,0.0,0.0,0.0,0.0,0.0,0.0,0.0,0.0,0.0,0.0,0.0,0.0,0.0,0.0,0.0,0.0,0.0,0.0,0.0,0.0,0.0,0.0,0.0,0.0,0.0,0.0,0.0,0.0,0.0,0.0,0.0,0.0,0.0,0.0,0.0,0.0,0.0,0.0,0.0,0.0,0.0,0.0,0.0,0.0,0.0,0.0,0.0,0.0,0.0,0.0,0.0,0.0,0.0,0.0,0.0,0.0,0.0,0.0,0.0,0.0,0.0,0.0,0.0,0.0,0.0,0.0,0.0,0.0,0.0,0.0,0.0,0.0,0.0,0.0,0.0,0.0,0.0,0.0,0.0,0.0,0.0,0.0,0.0,0.0,0.0,0.0,0.0,0.0,0.0,0.0,0.0,0.0,0.0,0.0,0.0,0.0,0.0,0.0,0.0,0.0,0.0,0.0,0.0,0.0,0.0,0.0,0.0,0.0,0.0,0.0,0.0,0.0,0.0,0.0,0.0,0.0,0.0,0.0,0.0,0.0,0.0,0.0,0.0,0.0,0.0,0.0,0.0,0.0,0.0,0.0,0.0,0.0,0.0,0.0,0.0,0.0,0.0,0.0,0.0,0.0,0.0,0.0,0.0,0.0,0.0,0.0,0.0,0.0,0.0,0.0,0.0,0.0,0.0,0.0,0.0,0.0,0.0,0.0,0.0,0.0,0.0,0.0,0.0,0.0,0.0,0.0,0.0,0.0,0.0,0.0,0.0,0.0,0.0,0.0,0.0,0.0,0.0,0.0,0.0,0.0,0.0,0.0,0.0,0.0,0.0,0.0,0.0,0.0,0.0,0.0,0.0,0.0,0.0,0.0,0.0,0.0,0.0,0.0,0.0,0.0,0.0,0.0,0.0,0.0,0.0,0.0,0.0,0.0,0.0,0.0,0.0,0.0,0.0,0.0,0.0,0.0,0.0,0.0,0.0,0.0,0.0,0.0,0.0,0.0,0.0,0.0,0.0,0.0,0.0,0.0,0.0,0.0,0.0,0.0,0.0,0.0,0.0,0.0,0.0,0.0,0.0,0.0,0.0,0.0,0.0,0.0,0.0,0.0,0.0,0.0,0.0,0.0,0.0,0.0,0.0,0.0,0.0,0.0,0.0,0.0,0.0,0.0,0.0,0.0,0.0,0.0,0.0,0.0,0.0,0.0,0.0,0.0,0.0,0.0,0.0,0.0,0.0,0.0,0.0,0.0,0.0,0.0,0.0,0.0,0.0,0.0,0.0,0.0,0.0,0.0,0.0,0.0,0.0,0.0,0.0,0.0,0.0,0.0,0.0,0.0,0.0,0.0,0.0,0.0,0.0,0.0,0.0,0.0,0.0,0.0,0.0,0.0,0.0,0.0,0.0,0.0,0.0,0.0,0.0,0.0,0.0,0.0,0.0,0.0,0.0,0.0,0.0,0.0,0.0,0.0,0.0,0.0,0.0,0.0,0.0,0.0,0.0,0.0,0.0,0.0,0.0,0.0,0.0,0.0,0.0,0.0,0.0,0.0,0.0,0.0,0.0,0.0,0.0,0.0,0.0,0.0,0.0,0.0,0.0,0.0,0.0,0.0,0.0,0.0,0.0,0.0,0.0,0.0,0.0,0.0,0.0,0.0,0.0,0.0,0.0,0.0,0.0,0.0,0.0,0.0,0.0,0.0,0.0,0.0,0.0,0.0,0.0,0.0,0.0,0.0,0.0,0.0,0.0,0.0,0.0,0.0,0.0,0.0,0.0,0.0,0.0,0.0,0.0,0.0,0.0,0.0,0.0,0.0,0.0,0.0,0.0,0.0,0.0,0.0,0.0,0.0,0.0,0.0,0.0,0.0,0.0,0.0,0.0,0.0,0.0,0.0,0.0,0.0,0.0,0.0,0.0,0.0,0.0,0.0,0.0,0.0,0.0,0.0,0.0,0.0,0.0,0.0,0.0,0.0,0.0,0.0,0.0,0.0,0.0,0.0,0.0,0.0,0.0,0.0,0.0,0.0,0.0,0.0,0.0,0.0,0.0,0.0,0.0,0.0,0.0,0.0,0.0,0.0,0.0,0.0,0.0,0.0,0.0,0.0,0.0,0.0,0.0,0.0,0.0,0.0,0.0,0.0,0.0,0.0,0.0,0.0,0.0,0.0,0.0,0.0,0.0,0.0,0.0,0.0,0.0,0.0,0.0,0.0,0.0,0.0,0.0,0.0,0.0,0.0,0.0,0.0,0.0,0.0,0.0,0.0,0.0,0.0,0.0,0.0,0.0,0.0,0.0,0.0,0.0,0.0,0.0,0.0,0.0,0.0,0.0,0.0,0.0,0.0,0.0,0.0,0.0,0.0,0.0,0.0,0.0,0.0,0.0,0.0,0.0,0.0,0.0,0.0,0.0,0.0,0.0,0.0,0.0,0.0,0.0,0.0,0.0,0.0,0.0,0.0,0.0,0.0,0.0,0.0,0.0,0.0,0.0,0.0,0.0,0.0,0.0,0.0,0.0,0.0,0.0,0.0,0.0,0.0,0.0,0.0,0.0,0.0,0.0,0.0,0.0,0.0,0.0,0.0,0.0,0.0,0.0,0.0,0.0,0.0,0.0,0.0,0.0,0.0,0.0,0.0,0.0,0.0,0.0,0.0,0.0,0.0,0.0,0.0,0.0,0.0,0.0,0.0,0.0,0.0,0.0,0.0,0.0,0.0,0.0,0.0,0.0,0.0,0.0,0.0,0.0,0.0,0.0,0.0,0.0,0.0,0.0,0.0,0.0,0.0,0.0,0.0,0.0,0.0,0.0,0.0,0.0,0.0,0.0,0.0,0.0,0.0,0.0,0.0,0.0,0.0,0.0,0.0,0.0,0.0,0.0,0.0,0.0,0.0,0.0,0.0,0.0,0.0,0.0,0.0,0.0,0.0,0.0,0.0,0.0,0.0,0.0,0.0,0.0,0.0,0.0,0.0,0.0,0.0,0.0,0.0,0.0,0.0,0.0,0.0,0.0,0.0,0.0,0.0,0.0,0.0,0.0,0.0,0.0,0.0,0.0,0.0,0.0,0.0,0.0,-3.8277,0.0,0.0,0.0,0.0,0.0,0.0,0.0,0.0,0.0,0.0,0.0,0.0,0.0,0.0,0.0,0.0,0.0,0.0,0.0,0.0,0.0,0.0,0.0,0.0,0.0,0.0,0.0,0.0,0.0,0.0,0.0,0.0,0.0,0.0,0.0,0.0,0.0,0.0,0.0,0.0,0.0,0.0,0.0,0.0,0.0,0.0,0.0,0.0,0.0,0.0,0.0,0.0,0.0,0.0,0.0,0.0,0.0,0.0,0.0,0.0,0.0,0.0,0.0,0.0,0.0,0.0,0.0,0.0,0.0,0.0,0.0,0.0,0.0,0.0,0.0,0.0,0.0,0.0,0.0,0.0,0.0,0.0,0.0,0.0,0.0,0.0,0.0,0.0,0.0,0.0,0.0,0.0,0.0,0.0,0.0,0.0,0.0,0.0,0.0,0.0,0.0,0.0,0.0,0.0,0.0,0.0,0.0,0.0,0.0,0.0,-3.8427,-3.8649,-3.8517,-3.8624,-3.8948,0.0,0.0,0.0,0.0,0.0,0.0,0.0,0.0,0.0,0.0,0.0,0.0,0.0,0.0,0.0,0.0,0.0,0.0,0.0,0.0,0.0,0.0,0.0,0.0,0.0,0.0,0.0,0.0,0.0,0.0,0.0,0.0,0.0,0.0,0.0,0.0,0.0,0.0,0.0,0.0,0.0,0.0,0.0,0.0,0.0,0.0,0.0,0.0,0.0,0.0,0.0,0.0,0.0,0.0,0.0,0.0,0.0,0.0,0.0,0.0,0.0,0.0,0.0,0.0,0.0,0.0,0.0,0.0,0.0,0.0,0.0,0.0,0.0,0.0,0.0,0.0,0.0,0.0,0.0,0.0,0.0,0.0,0.0,0.0,0.0,0.0,0.0,0.0,0.0,0.0,0.0,0.0,0.0,0.0,0.0,0.0,0.0,0.0,0.0,0.0,0.0,0.0,0.0,0.0,0.0,0.0,0.0,0.0,0.0,0.0,0.0,0.0,-3.9162,-3.9481,-3.9843,0.0,0.0,0.0,0.0,0.0,0.0,0.0,0.0,0.0,0.0,0.0,0.0,0.0,0.0,0.0,0.0,0.0,0.0,0.0,0.0,0.0,0.0,0.0,0.0,0.0,0.0,0.0,0.0,0.0,0.0,0.0,0.0,0.0,0.0,0.0,0.0,0.0,0.0,0.0,0.0,0.0,0.0,0.0,0.0,0.0,0.0,0.0,0.0,0.0,0.0,0.0,0.0,0.0,0.0,0.0,0.0,0.0,0.0,0.0,0.0,0.0,0.0,0.0,0.0,0.0,0.0,0.0,0.0,0.0,0.0,0.0,0.0,0.0,0.0,0.0,0.0,0.0,0.0,0.0,0.0,0.0,0.0,0.0,0.0,0.0,0.0,0.0,0.0,0.0,0.0,0.0,0.0,0.0,0.0,0.0,0.0,0.0,0.0,0.0,0.0,0.0,0.0,0.0,0.0,0.0,0.0,0.0,0.0,0.0,0.0,-3.8885,-3.9625,-3.9793,0.0,-4.1771,0.0,0.0,0.0,0.0,0.0,0.0,0.0,0.0,0.0,0.0,0.0,0.0,0.0,0.0,0.0,0.0,0.0,0.0,0.0,0.0,0.0,0.0,0.0,0.0,0.0,0.0,0.0,0.0,0.0,0.0,0.0,0.0,0.0,0.0,0.0,0.0,0.0,0.0,0.0,0.0,0.0,0.0,0.0,0.0,0.0,0.0,0.0,0.0,0.0,0.0,0.0,0.0,0.0,0.0,0.0,0.0,0.0,0.0,0.0,0.0,0.0,0.0,0.0,0.0,0.0,0.0,0.0,0.0,0.0,0.0,0.0,0.0,0.0,0.0,0.0,0.0,0.0,0.0,0.0,0.0,0.0,0.0,0.0,0.0,0.0,0.0,0.0,0.0,0.0,0.0,0.0,0.0,0.0,0.0,0.0,0.0,0.0,0.0,0.0,0.0,0.0,0.0,0.0,0.0,0.0,0.0,0.0,0.0,0.0,0.0,-3.9948,-4.0614,-4.1937,-4.2836,0.0,0.0,0.0,0.0,0.0,0.0,0.0,0.0,0.0,0.0,0.0,0.0,0.0,0.0,0.0,0.0,0.0,0.0,0.0,0.0,0.0,0.0,0.0,0.0,0.0,0.0,0.0,0.0,0.0,0.0,0.0,0.0,0.0,0.0,0.0,0.0,0.0,0.0,0.0,0.0,0.0,0.0,0.0,0.0,0.0,0.0,0.0,0.0,0.0,0.0,0.0,0.0,0.0,0.0,0.0,0.0,0.0,0.0,0.0,0.0,0.0,0.0,0.0,0.0,0.0,0.0,0.0,0.0,0.0,0.0,0.0,0.0,0.0,0.0,0.0,0.0,0.0,0.0,0.0,0.0,0.0,0.0,0.0,0.0,0.0,0.0,0.0,0.0,0.0,0.0,0.0,0.0,0.0,0.0,0.0,0.0,0.0,0.0,0.0,0.0,0.0,0.0,0.0,0.0,0.0,0.0,0.0,0.0,0.0,0.0,-4.0218,-4.1267,-4.2249,-4.4145,-4.4967,-4.4504,0.0,0.0,0.0,0.0,0.0,0.0,0.0,0.0,0.0,0.0,0.0,0.0,0.0,0.0,0.0,0.0,0.0,0.0,0.0,0.0,0.0,0.0,0.0,0.0,0.0,0.0,0.0,0.0,0.0,0.0,0.0,0.0,0.0,0.0,0.0,0.0,0.0,0.0,0.0,0.0,0.0,0.0,0.0,0.0,0.0,0.0,0.0,0.0,0.0,0.0,0.0,0.0,0.0,0.0,0.0,0.0,0.0,0.0,0.0,0.0,0.0,0.0,0.0,0.0,0.0,0.0,0.0,0.0,0.0,0.0,0.0,0.0,0.0,0.0,0.0,0.0,0.0,0.0,0.0,0.0,0.0,0.0,0.0,0.0,0.0,0.0,0.0,0.0,0.0,0.0,0.0,0.0,0.0,0.0,0.0,0.0,0.0,0.0,0.0,0.0,0.0,0.0,0.0,0.0,0.0,0.0,0.0,0.0,-4.004,-4.1279,-4.2776,-4.4494,-4.6011,-4.6271,0.0,0.0,0.0,0.0,0.0,0.0,0.0,0.0,0.0,0.0,0.0,0.0,0.0,0.0,0.0,0.0,0.0,0.0,0.0,0.0,0.0,0.0,0.0,0.0,0.0,0.0,0.0,0.0,0.0,0.0,0.0,0.0,0.0,0.0,0.0,0.0,0.0,0.0,0.0,0.0,0.0,0.0,0.0,0.0,0.0,0.0,0.0,0.0,0.0,0.0,0.0,0.0,0.0,0.0,0.0,0.0,0.0,0.0,0.0,0.0,0.0,0.0,0.0,0.0,0.0,0.0,0.0,0.0,0.0,0.0,0.0,0.0,0.0,0.0,0.0,0.0,0.0,0.0,0.0,0.0,0.0,0.0,0.0,0.0,0.0,0.0,0.0,0.0,0.0,0.0,0.0,0.0,0.0,0.0,0.0,0.0,0.0,0.0,0.0,0.0,0.0,0.0,0.0,0.0,0.0,0.0,0.0,0.0,0.0,-4.0412,-4.3262,-4.5693,-4.7572,-4.7894,-4.7485,0.0,0.0,0.0,0.0,0.0,0.0,0.0,0.0,0.0,0.0,0.0,0.0,0.0,0.0,0.0,0.0,0.0,0.0,0.0,0.0,0.0,0.0,0.0,0.0,0.0,0.0,0.0,0.0,0.0,0.0,0.0,0.0,0.0,0.0,0.0,0.0,0.0,0.0,0.0,0.0,0.0,0.0,0.0,0.0,0.0,0.0,0.0,0.0,0.0,0.0,0.0,0.0,0.0,0.0,0.0,0.0,0.0,0.0,0.0,0.0,0.0,0.0,0.0,0.0,0.0,0.0,0.0,0.0,0.0,0.0,0.0,0.0,0.0,0.0,0.0,0.0,0.0,0.0,0.0,0.0,0.0,0.0,0.0,0.0,0.0,0.0,0.0,0.0,0.0,0.0,0.0,0.0,0.0,0.0,0.0,0.0,0.0,0.0,0.0,0.0,0.0,0.0,0.0,0.0,0.0,0.0,0.0,0.0,0.0,-4.2114,0.0,-4.7642,-4.9024,-4.919,-4.8572,0.0,0.0,0.0,0.0,0.0,0.0,0.0,0.0,0.0,0.0,0.0,0.0,0.0,0.0,0.0,0.0,0.0,0.0,0.0,0.0,0.0,0.0,0.0,0.0,0.0,0.0,0.0,0.0,0.0,0.0,0.0,0.0,0.0,0.0,0.0,0.0,0.0,0.0,0.0,0.0,0.0,0.0,0.0,0.0,0.0,0.0,0.0,0.0,0.0,0.0,0.0,0.0,0.0,0.0,0.0,0.0,0.0,0.0,0.0,0.0,0.0,0.0,0.0,0.0,0.0,0.0,0.0,0.0,0.0,0.0,0.0,0.0,0.0,0.0,0.0,0.0,0.0,0.0,0.0,0.0,0.0,0.0,0.0,0.0,0.0,0.0,0.0,0.0,0.0,0.0,0.0,0.0,0.0,0.0,0.0,0.0,0.0,0.0,0.0,0.0,0.0,0.0,0.0,0.0,0.0,0.0,0.0,0.0,-4.2605,-4.5561,-4.7139,-4.8277,-4.874,-4.9723,-4.9307,0.0,0.0,0.0,0.0,0.0,0.0,0.0,0.0,0.0,0.0,0.0,0.0,0.0,0.0,0.0,0.0,0.0,0.0,0.0,0.0,0.0,0.0,0.0,0.0,0.0,0.0,0.0,0.0,0.0,0.0,0.0,0.0,0.0,0.0,0.0,0.0,0.0,0.0,0.0,0.0,0.0,0.0,0.0,0.0,0.0,0.0,0.0,0.0,0.0,0.0,0.0,0.0,0.0,0.0,0.0,0.0,0.0,0.0,0.0,0.0,0.0,0.0,0.0,0.0,0.0,0.0,0.0,0.0,0.0,0.0,0.0,0.0,0.0,0.0,0.0,0.0,0.0,0.0,0.0,0.0,0.0,0.0,0.0,0.0,0.0,0.0,0.0,0.0,0.0,0.0,0.0,0.0,0.0,0.0,0.0,0.0,0.0,0.0,0.0,0.0,0.0,0.0,0.0,0.0,0.0,0.0,0.0,0.0,0.0,-4.6596,-4.7783,-4.8925,-5.0118,-4.9791,-4.8931,0.0,0.0,0.0,0.0,0.0,0.0,0.0,0.0,0.0,0.0,0.0,0.0,0.0,0.0,0.0,0.0,0.0,0.0,0.0,0.0,0.0,0.0,0.0,0.0,0.0,0.0,0.0,0.0,0.0,0.0,0.0,0.0,0.0,0.0,0.0,0.0,0.0,0.0,0.0,0.0,0.0,0.0,0.0,0.0,0.0,0.0,0.0,0.0,0.0,0.0,0.0,0.0,0.0,0.0,0.0,0.0,0.0,0.0,0.0,0.0,0.0,0.0,0.0,0.0,0.0,0.0,0.0,0.0,0.0,0.0,0.0,0.0,0.0,0.0,0.0,0.0,0.0,0.0,0.0,0.0,0.0,0.0,0.0,0.0,0.0,0.0,0.0,0.0,0.0,0.0,0.0,0.0,0.0,0.0,0.0,0.0,0.0,0.0,0.0,0.0,0.0,0.0,0.0,0.0,0.0,0.0,0.0,0.0,0.0,-4.71,-4.8367,-4.9508,-5.0438,-5.0198,-4.9389,-4.7902,0.0,0.0,0.0,0.0,0.0,0.0,0.0,0.0,0.0,0.0,0.0,0.0,0.0,0.0,0.0,0.0,0.0,0.0,0.0,0.0,0.0,0.0,0.0,0.0,0.0,0.0,0.0,0.0,0.0,0.0,0.0,0.0,0.0,0.0,0.0,0.0,0.0,0.0,0.0,0.0,0.0,0.0,0.0,0.0,0.0,0.0,0.0,0.0,0.0,0.0,0.0,0.0,0.0,0.0,0.0,0.0,0.0,0.0,0.0,0.0,0.0,0.0,0.0,0.0,0.0,0.0,0.0,0.0,0.0,0.0,0.0,0.0,0.0,0.0,0.0,0.0,0.0,0.0,0.0,0.0,0.0,0.0,0.0,0.0,0.0,0.0,0.0,0.0,0.0,0.0,0.0,0.0,0.0,0.0,0.0,0.0,0.0,0.0,0.0,0.0,0.0,0.0,0.0,0.0,0.0,0.0,0.0,0.0,-4.7509,-4.9164,-4.999,-4.9967,-5.0977,-5.0442,0.0,0.0,0.0,0.0,0.0,0.0,0.0,0.0,0.0,0.0,0.0,0.0,0.0,0.0,0.0,0.0,0.0,0.0,0.0,0.0,0.0,0.0,0.0,0.0,0.0,0.0,0.0,0.0,0.0,0.0,0.0,0.0,0.0,0.0,0.0,0.0,0.0,0.0,0.0,0.0,0.0,0.0,0.0,0.0,0.0,0.0,0.0,0.0,0.0,0.0,0.0,0.0,0.0,0.0,0.0,0.0,0.0,0.0,0.0,0.0,0.0,0.0,0.0,0.0,0.0,0.0,0.0,0.0,0.0,0.0,0.0,0.0,0.0,0.0,0.0,0.0,0.0,0.0,0.0,0.0,0.0,0.0,0.0,0.0,0.0,0.0,0.0,0.0,0.0,0.0,0.0,0.0,0.0,0.0,0.0,0.0,0.0,0.0,0.0,0.0,0.0,0.0,0.0,0.0,0.0,0.0,0.0,0.0,0.0,-4.9158,-5.0739,-5.1483,-5.1313,-5.1681,-5.1024,0.0,0.0,0.0,0.0,0.0,0.0,0.0,0.0,0.0,0.0,0.0,0.0,0.0,0.0,0.0,0.0,0.0,0.0,0.0,0.0,0.0,0.0,0.0,0.0,0.0,0.0,0.0,0.0,0.0,0.0,0.0,0.0,0.0,0.0,0.0,0.0,0.0,0.0,0.0,0.0,0.0,0.0,0.0,0.0,0.0,0.0,0.0,0.0,0.0,0.0,0.0,0.0,0.0,0.0,0.0,0.0,0.0,0.0,0.0,0.0,0.0,0.0,0.0,0.0,0.0,0.0,0.0,0.0,0.0,0.0,0.0,0.0,0.0,0.0,0.0,0.0,0.0,0.0,0.0,0.0,0.0,0.0,0.0,0.0,0.0,0.0,0.0,0.0,0.0,0.0,0.0,0.0,0.0,0.0,0.0,0.0,0.0,0.0,0.0,0.0,0.0,0.0,0.0,0.0,0.0,0.0,0.0,0.0,-4.6575,-4.9572,-5.1459,-5.2594,-5.2907,-5.2602,-5.1665,0.0,0.0,0.0,0.0,0.0,0.0,0.0,0.0,0.0,0.0,0.0,0.0,0.0,0.0,0.0,0.0,0.0,0.0,0.0,0.0,0.0,0.0,0.0,0.0,0.0,0.0,0.0,0.0,0.0,0.0,0.0,0.0,0.0,0.0,0.0,0.0,0.0,0.0,0.0,0.0,0.0,0.0,0.0,0.0,0.0,0.0,0.0,0.0,0.0,0.0,0.0,0.0,0.0,0.0,0.0,0.0,0.0,0.0,0.0,0.0,0.0,0.0,0.0,0.0,0.0,0.0,0.0,0.0,0.0,0.0,0.0,0.0,0.0,0.0,0.0,0.0,0.0,0.0,0.0,0.0,0.0,0.0,0.0,0.0,0.0,0.0,0.0,0.0,0.0,0.0,0.0,0.0,0.0,0.0,0.0,0.0,0.0,0.0,0.0,0.0,0.0,0.0,0.0,0.0,0.0,0.0,0.0,0.0,-4.6416,-4.9162,-5.1674,-5.3527,-5.4543,-5.3644,-5.2313,0.0,0.0,0.0,0.0,0.0,0.0,0.0,0.0,0.0,0.0,0.0,0.0,0.0,0.0,0.0,0.0,0.0,0.0,0.0,0.0,0.0,0.0,0.0,0.0,0.0,0.0,0.0,0.0,0.0,0.0,0.0,0.0,0.0,0.0,0.0,0.0,0.0,0.0,0.0,0.0,0.0,0.0,0.0,0.0,0.0,0.0,0.0,0.0,0.0,0.0,0.0,0.0,0.0,0.0,0.0,0.0,0.0,0.0,0.0,0.0,0.0,0.0,0.0,0.0,0.0,0.0,0.0,0.0,0.0,0.0,0.0,0.0,0.0,0.0,0.0,0.0,0.0,0.0,0.0,0.0,0.0,0.0,0.0,0.0,0.0,0.0,0.0,0.0,0.0,0.0,0.0,0.0,0.0,0.0,0.0,0.0,0.0,0.0,0.0,0.0,0.0,0.0,0.0,0.0,0.0,0.0,0.0,0.0,-4.706,-4.9225,-5.1855,-5.3929,-5.5322,-5.4715,-5.3584,0.0,0.0,0.0,0.0,0.0,0.0,0.0,0.0,0.0,0.0,0.0,0.0,0.0,0.0,0.0,0.0,0.0,0.0,0.0,0.0,0.0,0.0,0.0,0.0,0.0,0.0,0.0,0.0,0.0,0.0,0.0,0.0,0.0,0.0,0.0,0.0,0.0,0.0,0.0,0.0,0.0,0.0,0.0,0.0,0.0,0.0,0.0,0.0,-3.9773,0.0,0.0,0.0,0.0,0.0,0.0,0.0,0.0,0.0,0.0,0.0,0.0,0.0,0.0,0.0,0.0,0.0,0.0,0.0,0.0,0.0,0.0,0.0,0.0,0.0,0.0,0.0,0.0,0.0,0.0,0.0,0.0,0.0,0.0,0.0,0.0,0.0,0.0,0.0,0.0,0.0,0.0,0.0,0.0,0.0,0.0,0.0,0.0,0.0,0.0,0.0,0.0,0.0,0.0,0.0,0.0,0.0,0.0,0.0,-4.6636,-4.8686,-5.1291,-5.349,-5.5029,-5.4708,-5.3906,0.0,0.0,0.0,0.0,0.0,0.0,0.0,0.0,0.0,0.0,0.0,0.0,0.0,0.0,0.0,0.0,0.0,0.0,0.0,0.0,0.0,0.0,0.0,0.0,0.0,0.0,0.0,0.0,0.0,0.0,0.0,0.0,0.0,0.0,0.0,0.0,0.0,0.0,0.0,0.0,0.0,0.0,0.0,0.0,0.0,0.0,0.0,0.0,0.0,0.0,0.0,0.0,0.0,0.0,0.0,0.0,0.0,0.0,0.0,0.0,0.0,0.0,0.0,0.0,0.0,0.0,0.0,0.0,0.0,0.0,0.0,0.0,0.0,0.0,0.0,0.0,0.0,0.0,0.0,0.0,0.0,0.0,0.0,0.0,0.0,0.0,0.0,0.0,0.0,0.0,0.0,0.0,0.0,0.0,0.0,0.0,0.0,0.0,0.0,0.0,0.0,0.0,0.0,0.0,0.0,0.0,0.0,-4.3668,-4.5654,-4.7725,-5.0341,-5.2501,-5.4189,-5.4038,-5.3475,-5.2496,0.0,0.0,0.0,0.0,0.0,0.0,0.0,0.0,0.0,0.0,0.0,0.0,0.0,0.0,0.0,0.0,0.0,0.0,0.0,0.0,0.0,0.0,0.0,0.0,0.0,0.0,0.0,0.0,0.0,0.0,0.0,0.0,0.0,0.0,0.0,0.0,0.0,0.0,-2.6502,-2.8834,0.0,0.0,0.0,0.0,0.0,0.0,0.0,0.0,-4.5316,0.0,0.0,0.0,0.0,0.0,0.0,0.0,0.0,0.0,0.0,0.0,0.0,0.0,0.0,0.0,0.0,0.0,0.0,0.0,0.0,0.0,0.0,0.0,0.0,0.0,0.0,0.0,0.0,0.0,0.0,0.0,0.0,0.0,0.0,0.0,0.0,0.0,0.0,0.0,0.0,0.0,0.0,0.0,0.0,0.0,0.0,0.0,0.0,0.0,0.0,0.0,0.0,0.0,0.0,0.0,0.0,-4.1448,-4.2723,-4.4444,-4.6536,-4.9016,-5.1007,-5.234,-5.2539,-5.2074,-5.0993,0.0,0.0,0.0,0.0,0.0,0.0,0.0,0.0,0.0,0.0,0.0,0.0,0.0,0.0,0.0,0.0,0.0,0.0,0.0,0.0,0.0,0.0,0.0,0.0,0.0,0.0,0.0,0.0,0.0,0.0,0.0,0.0,0.0,0.0,0.0,0.0,0.0,0.0,0.0,-3.0265,-3.2568,0.0,0.0,0.0,0.0,0.0,0.0,0.0,0.0,-4.7871,0.0,0.0,0.0,0.0,0.0,0.0,0.0,0.0,0.0,0.0,0.0,0.0,0.0,0.0,0.0,0.0,0.0,0.0,0.0,0.0,0.0,0.0,0.0,0.0,0.0,0.0,0.0,0.0,0.0,0.0,0.0,0.0,0.0,0.0,0.0,0.0,0.0,0.0,0.0,0.0,0.0,0.0,0.0,0.0,0.0,0.0,0.0,0.0,0.0,0.0,0.0,0.0,0.0,0.0,0.0,-4.1179,-4.2119,-4.3643,-4.5773,-4.7929,-4.9757,-5.1184,-5.1581,-5.1182,0.0,0.0,0.0,0.0,0.0,0.0,0.0,0.0,0.0,0.0,0.0,0.0,0.0,0.0,0.0,0.0,0.0,0.0,0.0,0.0,0.0,0.0,0.0,0.0,0.0,0.0,0.0,0.0,0.0,0.0,0.0,0.0,0.0,0.0,0.0,0.0,0.0,0.0,0.0,0.0,-3.1447,-3.3746,-3.68,0.0,0.0,0.0,0.0,0.0,0.0,-4.9521,-4.9314,0.0,0.0,0.0,0.0,0.0,0.0,0.0,0.0,0.0,0.0,0.0,0.0,0.0,0.0,0.0,0.0,0.0,0.0,0.0,0.0,0.0,0.0,0.0,0.0,0.0,0.0,0.0,0.0,0.0,0.0,0.0,0.0,0.0,0.0,0.0,0.0,0.0,0.0,0.0,0.0,0.0,0.0,0.0,0.0,0.0,0.0,0.0,0.0,0.0,0.0,0.0,0.0,0.0,0.0,0.0,-4.0844,-4.1592,-4.2996,-4.5102,-4.7042,-4.8711,-5.0059,-5.0544,-5.0151,0.0,0.0,0.0,0.0,0.0,0.0,0.0,0.0,0.0,0.0,0.0,0.0,0.0,0.0,0.0,0.0,0.0,0.0,0.0,0.0,0.0,0.0,0.0,0.0,0.0,0.0,0.0,0.0,0.0,0.0,0.0,0.0,0.0,0.0,0.0,0.0,0.0,0.0,0.0,0.0,0.0,-3.5502,-3.9384,-4.1963,0.0,0.0,0.0,0.0,-5.0495,-5.1028,0.0,0.0,0.0,0.0,0.0,0.0,0.0,0.0,0.0,0.0,0.0,0.0,0.0,0.0,0.0,0.0,0.0,0.0,0.0,0.0,0.0,0.0,0.0,0.0,0.0,0.0,0.0,0.0,0.0,0.0,0.0,0.0,0.0,0.0,0.0,0.0,0.0,0.0,0.0,0.0,0.0,0.0,0.0,0.0,0.0,0.0,0.0,0.0,0.0,0.0,0.0,0.0,0.0,0.0,0.0,0.0,-4.0176,-4.1025,-4.2578,-4.4744,-4.6267,-4.7516,-4.8484,-4.8914,-4.8407,0.0,0.0,0.0,0.0,0.0,0.0,0.0,0.0,0.0,0.0,0.0,0.0,0.0,0.0,0.0,0.0,0.0,0.0,0.0,0.0,0.0,0.0,0.0,0.0,0.0,0.0,0.0,0.0,0.0,0.0,0.0,0.0,0.0,0.0,0.0,0.0,0.0,0.0,0.0,0.0,0.0,-3.8643,-4.2193,-4.4558,-4.6822,0.0,0.0,-5.1249,-5.1467,-5.2434,0.0,0.0,0.0,0.0,0.0,0.0,0.0,0.0,0.0,0.0,0.0,0.0,0.0,0.0,0.0,0.0,0.0,0.0,0.0,0.0,0.0,0.0,0.0,0.0,0.0,0.0,0.0,0.0,0.0,0.0,0.0,0.0,0.0,0.0,0.0,0.0,0.0,0.0,0.0,0.0,0.0,0.0,0.0,0.0,0.0,0.0,0.0,0.0,0.0,0.0,0.0,0.0,0.0,0.0,0.0,-3.8826,-4.0075,-4.0967,-4.2415,-4.442,-4.5665,-4.6716,-4.7493,-4.7455,-4.6819,0.0,0.0,0.0,0.0,0.0,0.0,0.0,0.0,0.0,0.0,0.0,0.0,0.0,0.0,0.0,0.0,0.0,0.0,0.0,0.0,0.0,0.0,0.0,0.0,0.0,0.0,0.0,0.0,0.0,0.0,0.0,0.0,0.0,0.0,0.0,0.0,0.0,0.0,0.0,0.0,0.0,0.0,-4.4627,-4.6937,0.0,0.0,0.0,-5.2486,-5.2328,0.0,0.0,0.0,0.0,0.0,0.0,0.0,0.0,0.0,0.0,0.0,0.0,0.0,0.0,0.0,0.0,0.0,0.0,0.0,0.0,0.0,0.0,0.0,0.0,0.0,0.0,0.0,0.0,0.0,0.0,0.0,0.0,0.0,0.0,0.0,0.0,0.0,0.0,0.0,0.0,0.0,0.0,0.0,0.0,0.0,0.0,0.0,0.0,0.0,0.0,0.0,0.0,0.0,0.0,0.0,0.0,0.0,-4.0089,-4.1208,-4.2573,-4.4179,-4.54,-4.6223,-4.6711,-4.6293,0.0,0.0,0.0,0.0,0.0,0.0,0.0,0.0,0.0,0.0,0.0,0.0,0.0,0.0,0.0,0.0,0.0,0.0,0.0,0.0,0.0,0.0,0.0,0.0,0.0,0.0,0.0,-2.3748,0.0,0.0,0.0,0.0,0.0,0.0,0.0,0.0,0.0,0.0,0.0,0.0,0.0,0.0,-4.2209,-4.701,-4.9127,-5.0896,0.0,0.0,-5.3401,-5.2725,-5.22,-5.1126,0.0,0.0,0.0,0.0,0.0,0.0,0.0,0.0,0.0,0.0,0.0,0.0,0.0,0.0,0.0,0.0,0.0,0.0,0.0,0.0,0.0,0.0,0.0,0.0,0.0,0.0,0.0,0.0,0.0,0.0,0.0,0.0,0.0,0.0,0.0,0.0,0.0,0.0,0.0,0.0,0.0,0.0,0.0,0.0,0.0,0.0,0.0,0.0,0.0,0.0,0.0,0.0,0.0,0.0,0.0,-4.0133,-4.1918,-4.321,-4.408,-4.5434,-4.6166,-4.621,-4.5669,-4.4952,0.0,0.0,0.0,0.0,0.0,0.0,0.0,0.0,0.0,0.0,0.0,0.0,0.0,0.0,0.0,0.0,0.0,0.0,0.0,0.0,0.0,0.0,0.0,0.0,0.0,0.0,0.0,0.0,0.0,0.0,0.0,0.0,0.0,0.0,0.0,0.0,0.0,0.0,0.0,0.0,0.0,-4.5158,-4.9268,-5.1279,-5.2562,0.0,0.0,-5.3588,-5.1878,-5.1801,-5.07,-4.6995,0.0,0.0,0.0,0.0,0.0,0.0,0.0,0.0,0.0,0.0,0.0,0.0,0.0,0.0,0.0,0.0,0.0,0.0,0.0,0.0,0.0,0.0,0.0,0.0,0.0,0.0,0.0,0.0,0.0,0.0,0.0,0.0,0.0,0.0,0.0,0.0,0.0,0.0,0.0,0.0,0.0,0.0,0.0,0.0,0.0,0.0,0.0,0.0,0.0,0.0,0.0,0.0,0.0,-3.8853,-3.9722,-4.1604,-4.2883,-4.3559,-4.4841,-4.5489,-4.5489,-4.4392,-4.357,0.0,0.0,0.0,0.0,0.0,0.0,0.0,0.0,0.0,0.0,0.0,0.0,0.0,0.0,0.0,0.0,0.0,0.0,0.0,0.0,0.0,0.0,0.0,0.0,0.0,0.0,0.0,0.0,-2.6196,-2.7131,-2.801,0.0,0.0,0.0,0.0,0.0,0.0,0.0,0.0,0.0,0.0,-4.586,-4.9909,-5.1021,0.0,0.0,-5.2607,-5.1846,-5.092,-5.0096,-4.8791,-4.6378,-4.4206,0.0,0.0,0.0,0.0,0.0,0.0,0.0,0.0,0.0,0.0,0.0,0.0,0.0,0.0,0.0,0.0,0.0,0.0,0.0,0.0,0.0,0.0,0.0,0.0,0.0,0.0,0.0,0.0,0.0,0.0,0.0,0.0,0.0,0.0,0.0,0.0,0.0,0.0,0.0,0.0,0.0,0.0,0.0,0.0,0.0,0.0,0.0,0.0,0.0,0.0,0.0,0.0,-3.8629,-3.951,-4.1369,-4.2633,-4.3332,-4.4294,-4.4656,-4.4457,-4.3167,-4.2251,0.0,0.0,0.0,0.0,0.0,0.0,0.0,0.0,0.0,0.0,0.0,0.0,0.0,0.0,0.0,0.0,0.0,0.0,0.0,0.0,0.0,0.0,0.0,0.0,0.0,0.0,0.0,0.0,-2.7753,-2.8633,-2.9397,0.0,0.0,0.0,0.0,0.0,0.0,0.0,0.0,0.0,0.0,-4.6415,-4.9926,-5.0535,-5.0983,-5.1813,-5.1279,-5.0388,-4.9693,-4.8387,-4.6964,-4.5128,0.0,0.0,0.0,0.0,0.0,0.0,0.0,0.0,0.0,0.0,0.0,0.0,0.0,0.0,0.0,0.0,0.0,0.0,0.0,0.0,0.0,0.0,0.0,0.0,0.0,0.0,0.0,0.0,0.0,0.0,-3.8389,0.0,0.0,0.0,0.0,0.0,0.0,0.0,0.0,0.0,0.0,0.0,0.0,0.0,0.0,0.0,0.0,0.0,0.0,0.0,0.0,0.0,0.0,-3.8672,-3.9732,-4.1471,-4.2781,-4.3308,-4.3752,-4.37,-4.3115,-4.1989,-4.1019,-4.0237,0.0,0.0,0.0,0.0,0.0,0.0,0.0,0.0,0.0,0.0,0.0,0.0,0.0,0.0,0.0,0.0,0.0,0.0,0.0,0.0,0.0,0.0,0.0,0.0,0.0,0.0,-2.7989,-2.9114,-2.9978,0.0,0.0,0.0,0.0,0.0,0.0,0.0,0.0,0.0,0.0,-4.496,-4.6932,-4.9634,-5.0264,-5.03,-5.0283,-5.0222,-4.9597,-4.7895,-4.6765,-4.5492,0.0,0.0,0.0,0.0,0.0,0.0,0.0,0.0,0.0,0.0,0.0,0.0,0.0,0.0,0.0,0.0,0.0,0.0,0.0,0.0,0.0,0.0,0.0,0.0,0.0,0.0,0.0,-4.0456,-4.0071,0.0,0.0,0.0,0.0,0.0,0.0,0.0,0.0,0.0,0.0,0.0,-4.1225,-4.1309,0.0,0.0,0.0,0.0,0.0,0.0,0.0,0.0,0.0,0.0,0.0,0.0,-3.7704,-3.9054,-4.0532,-4.1527,-4.2113,-4.2712,-4.2644,-4.1829,-4.079,-3.9162,-3.688,0.0,0.0,0.0,0.0,0.0,0.0,0.0,0.0,0.0,0.0,0.0,0.0,0.0,0.0,0.0,0.0,0.0,0.0,0.0,0.0,0.0,0.0,0.0,0.0,0.0,-2.8696,0.0,0.0,0.0,0.0,0.0,0.0,0.0,0.0,0.0,0.0,0.0,-4.0318,-4.2396,-4.4166,-4.5699,-4.7145,-4.7219,-4.7264,0.0,0.0,0.0,0.0,0.0,0.0,0.0,0.0,0.0,0.0,0.0,0.0,0.0,0.0,-3.6486,-3.6236,-3.6005,-3.5777,-3.5654,0.0,0.0,0.0,0.0,0.0,0.0,0.0,0.0,0.0,0.0,0.0,0.0,0.0,0.0,0.0,0.0,-4.0548,0.0,0.0,0.0,0.0,0.0,0.0,0.0,0.0,-4.1787,-4.2402,-4.2446,-4.2288,-4.1801,0.0,-3.9511,-3.8288,0.0,0.0,0.0,0.0,0.0,0.0,0.0,0.0,-3.6985,-3.8477,-3.9534,-4.0394,-4.1121,-4.1248,-4.0867,-4.0069,-3.8749,-3.6887,-3.4514,-3.3356,-3.2369,0.0,0.0,0.0,0.0,0.0,0.0,0.0,0.0,0.0,0.0,0.0,0.0,0.0,0.0,0.0,0.0,0.0,0.0,0.0,0.0,0.0,0.0,0.0,-3.0041,0.0,0.0,0.0,0.0,0.0,0.0,0.0,0.0,0.0,-3.7014,-3.8969,-4.0865,-4.246,-4.3683,-4.4625,-4.5124,0.0,0.0,0.0,0.0,0.0,0.0,0.0,-4.0854,-4.0292,-3.9495,-3.8875,-3.8346,-3.8082,-3.7692,-3.7245,0.0,0.0,-3.6648,-3.6524,-3.6473,-3.617,-3.5881,-3.566,-3.526,-3.5071,-3.4863,0.0,0.0,0.0,0.0,0.0,0.0,0.0,0.0,-4.2758,-4.2654,0.0,-4.1348,0.0,0.0,0.0,0.0,0.0,0.0,0.0,0.0,-4.2663,-4.3464,-4.3885,-4.3259,-4.2484,-4.1591,-3.9469,-3.8154,-3.7419,-3.6546,0.0,0.0,0.0,0.0,0.0,0.0,-3.6523,-3.7807,-3.8395,-3.9201,-4.021,-3.9386,-3.8542,-3.7939,-3.6112,-3.4605,-3.3368,-3.2794,-3.1926,-3.0682,-3.0194,0.0,0.0,0.0,0.0,0.0,0.0,0.0,0.0,0.0,0.0,0.0,0.0,0.0,0.0,0.0,0.0,0.0,0.0,0.0,0.0,-3.0305,0.0,0.0,0.0,0.0,0.0,0.0,0.0,0.0,0.0,0.0,-3.8589,-4.0011,-4.1563,-4.3417,0.0,0.0,0.0,0.0,-4.2826,-4.1891,-4.1757,-4.1179,-4.0056,-3.996,-3.9689,-3.8864,0.0,0.0,-3.7847,-3.8194,-3.828,-3.7871,-3.8105,-3.8157,-3.6619,-3.6443,-3.6333,-3.5518,-3.5448,-3.5189,-3.4907,-3.4985,-3.4805,-5.0679,0.0,0.0,0.0,0.0,-4.5446,-4.5082,-4.4617,-4.4377,-4.4031,-4.3557,-4.2578,0.0,0.0,0.0,0.0,0.0,0.0,-4.2237,-4.2445,-4.31,-4.3367,-4.319,-4.3296,-4.2484,-4.0782,-3.9028,-3.7849,-3.7236,-3.6211,-3.5454,-3.4883,0.0,0.0,0.0,0.0,-3.5421,-3.6553,-3.711,-3.7715,-3.8382,-3.8169,-3.7347,-3.6069,-3.4811,-3.3813,-3.3313,-3.241,-3.1593,-3.0929,-3.0402,0.0,0.0,0.0,0.0,0.0,0.0,0.0,0.0,0.0,0.0,0.0,0.0,0.0,0.0,0.0,0.0,0.0,0.0,0.0,-2.9604,-3.0521,-3.1315,0.0,0.0,0.0,0.0,0.0,0.0,0.0,0.0,0.0,-3.7429,-3.875,-3.9957,0.0,0.0,-4.1106,-4.0869,-4.0376,-3.9991,-3.9603,0.0,0.0,0.0,-3.8047,-3.7929,-3.7712,-3.7699,-3.7707,-3.7436,-3.7543,-3.7524,-3.71,-3.7373,-3.7485,-3.6858,-3.7084,-3.736,-3.7151,-3.6906,-3.6593,-3.6182,-3.6103,-3.5908,-5.194,-5.0514,-4.9016,-4.7644,-4.6621,-4.6375,-4.585,-4.494,-4.4858,-4.4414,-4.3776,-4.3006,-4.2251,-4.1562,-4.1328,0.0,0.0,0.0,-4.2882,-4.3089,-4.3353,-4.3465,-4.3351,-4.2973,-4.2053,-4.0786,-3.8988,-3.779,-3.7178,-3.5828,-3.5058,-3.4804,0.0,0.0,-3.3768,-3.4066,-3.4678,-3.5581,-3.5905,-3.6213,-3.6831,-3.6434,-3.5537,-3.4245,-3.3517,-3.3042,-3.2651,-3.207,-3.1366,-3.0684,-3.0309,-2.9736,0.0,0.0,0.0,0.0,0.0,0.0,0.0,0.0,0.0,0.0,0.0,-2.444,0.0,0.0,0.0,0.0,-2.7693,-2.8772,-2.9908,-3.0633,0.0,0.0,0.0,0.0,0.0,0.0,0.0,-3.3686,-3.447,-3.5321,-3.6321,-3.7061,-3.7989,-3.9271,-3.9389,-3.9299,-3.8925,0.0,-3.815,-3.7863,-3.7472,-3.7079,-3.6944,-3.6819,-3.6707,-3.7016,-3.7161,-3.7285,-3.7295,-3.7168,-3.6963,-3.6758,-3.6738,-3.6719,-3.6465,-3.6709,-3.6982,-3.7129,-3.6973,-3.666,-3.625,-3.6172,-3.5957,-5.2382,-5.1467,-4.999,-4.8602,-4.731,-4.6889,-4.5873,-4.4622,-4.4483,-4.4139,-4.3642,-4.2981,-4.2733,-4.2692,-4.2141,0.0,-4.2733,-4.2733,-4.3009,-4.3519,-4.3355,-4.3477,-4.3884,-4.2358,-4.1458,-4.1118,-3.926,-3.7868,-3.6954,-3.5244,-3.4343,-3.4309,-3.4067,-3.373,-3.332,-3.3742,-3.4188,-3.4633,-3.4692,-3.4949,-3.5395,-3.4451,-3.3458,-3.2566,-3.2544,-3.2241,-3.1804,-3.1726,-3.118,-3.0264,-2.9997,-2.9449,-2.844,0.0,0.0,0.0,0.0,0.0,0.0,0.0,0.0,0.0,0.0,0.0,0.0,0.0,0.0,0.0,-2.8381,0.0,-2.9693,-3.0678,0.0,0.0,0.0,-3.2145,-3.1973,-3.237,-3.3044,-3.3731,0.0,0.0,-3.5129,0.0,-3.5716,-3.794,-3.7995,-3.775,-3.7514,-3.7339,-3.7102,-3.6495,-3.639,-3.6275,-3.5955,-3.584,-3.5986,-3.6416,-3.6865,-3.7002,-3.7031,-3.6738,-3.6523,-3.6435,-3.6172,-3.5908,-3.5908,-3.5625,-3.5459,-3.5733,-3.5928,-3.5791,-3.5459,-3.5371,-3.5101,-5.1742,-5.0828,-4.9245,-4.8244,-4.7806,-4.7235,-4.6392,-4.5216,-4.4565,-4.4165,-4.4,-4.3231,-4.2876,-4.2862,-4.2712,-4.274,-4.2876,-4.2876,-4.2848,-4.2776,-4.2706,-4.2565,-4.2305,-4.1463,-4.0758,-4.0055,-3.8785,-3.7667,-3.6762,-3.5138,-3.4238,-3.3993,-3.3243,-3.2789,-3.2687,-3.3001,-3.3115,-3.3016,-3.3413,-3.3651,-3.3765,-3.356,-3.305,-3.2566,-3.2544,-3.2286,-3.195,-3.1617,-3.1053,-3.0262,-2.9781,-2.9216,-2.844,-2.8226,0.0,0.0,0.0,0.0,0.0,0.0,0.0,0.0,0.0,-2.4637,-2.4833,0.0,-2.6122,0.0,-2.8271,-2.9121,-2.9507,-2.9953,0.0,0.0,-3.0922,-3.1017,-3.1106,-3.1505,-3.1751,-3.174,-3.2012,-3.2358,-3.2768,-3.272,-3.3058,-3.4264,-3.5329,-3.5942,-3.581,-3.5538,-3.5264,-3.5142,-3.5142,-3.5132,-3.5,-3.501,-3.5156,-3.5625,-3.5498,-3.5439,-3.5791,-3.5469,-3.5166,-3.5166,-3.5098,-3.501,-3.499,-3.479,-3.4496,-3.4602,-3.4887,-3.4858,-3.4619,-3.4477,-3.422,-5.0456,-4.9655,-4.8139,-4.7159,-4.6475,-4.6335,-4.5702,-4.4727,-4.4215,-4.3914,-4.3544,-4.2939,-4.2706,-4.2693,-4.2595,-4.2582,-4.2582,-4.2582,-4.2387,-4.2092,-4.2105,-4.1908,-4.1285,-4.0524,-3.9702,-3.8885,-3.7697,-3.6649,-3.5862,-3.4494,-3.3701,-3.3387,-3.2516,-3.2139,-3.2128,-3.2443,-3.2656,-3.2555,-3.2723,-3.2857,-3.2641,-3.2641,-3.2508,-3.215,-3.1928,-3.1705,-3.1493,-3.1042,-3.0493,-2.9915,-2.9535,-2.8983,-2.8125,-2.7704,-2.7138,0.0,0.0,0.0,0.0,0.0,0.0,0.0,0.0,0.0,0.0,0.0,-2.6367,0.0,-2.7834,-2.848,-2.884,-2.9249,-2.9639,-3.0107,-3.0266,-3.0364,-3.0353,-3.0638,-3.0897,-3.0777,-3.1028,-3.138,-3.1608,-3.1637,-3.1798,-3.2156,-3.2912,-3.372,-3.441,-3.4289,-3.4163,-3.4154,-3.4128,-3.4053,-3.3887,-3.4014,-3.4141,-3.4209,-3.418,-3.4219,-3.4463,-3.415,-3.3848,-3.3848,-3.3574,-3.332,-3.3183,-3.2919,-3.2673,-3.2673,-3.2801,-3.3139,-3.3656,-3.365,-3.3488,-4.9054,-4.8043,-4.6889,-4.5593,-4.447,-4.4549,-4.4283,-4.3647,-4.3565,-4.3213,-4.256,-4.238,-4.2269,-4.2199,-4.2043,-4.1959,-4.1972,-4.2039,-4.1881,-4.1584,-4.1518,-4.118,-4.0539,-3.9486,-3.8605,-3.7768,-3.6513,-3.5592,-3.4739,-3.3729,-3.309,-3.2767,-3.1973,-3.1618,-3.1618,-3.2139,-3.2342,-3.2353,-3.2342,-3.224,-3.1913,-3.1913,-3.1823,-3.1597,-3.116,-3.0908,-3.0887,-3.0406,-2.9829,-2.951,-2.9052,-2.8537,-2.7639,-2.7118,-2.6496,0.0,-2.5121,0.0,0.0,0.0,0.0,0.0,0.0,0.0,0.0,-2.6002,-2.666,-2.6865,-2.7263,-2.7689,-2.8096,-2.8603,-2.9125,-2.947,-2.9619,-2.9747,-2.9813,-2.9905,-2.9999,-3.024,-3.0429,-3.0521,-3.0606,-3.0757,-3.0757,-3.0624,-3.0794,-3.1308,-3.2673,-3.3091,-3.3248,-3.3315,-3.3252,-3.2894,-3.2766,-3.2922,-3.3019,-3.2737,-3.2912,-3.3126,-3.3029,-3.2739,-3.2487,-3.2458,-3.2017,-3.1512,-3.1049,-3.084,-3.0594,-3.0544,-3.0572,-3.0993,-3.2341,-3.2734,-3.2564,-4.7767,-4.6889,-4.5021,-4.4014,-4.3465,-4.2344,-4.2372,-4.3023,-4.2548,-4.1896,-4.1153,-4.1046,-4.0951,-4.0815,-4.1173,-4.1276,-4.1095,-4.1571,-4.1398,-4.0681,-4.0304,-3.9674,-3.8931,-3.8116,-3.7366,-3.6734,-3.6038,-3.527,-3.4437,-3.3637,-3.2997,-3.2466,-3.187,-3.1618,-3.1629,0.0,0.0,0.0,-3.1721,-3.1732,-3.1721,-3.1721,-3.1629,-3.1618,-3.1149,0.0,-3.0865,-2.9884,-2.931,-2.9202,-2.8359,0.0,0.0,0.0,0.0,0.0,0.0,0.0,0.0,0.0,0.0,0.0,-2.4966,-2.545,-2.5675,-2.6352,-2.6798,-2.6817,-2.7178,-2.7488,-2.7685,-2.7854,-2.8155,-2.8519,-2.8695,-2.8744,-2.9176,-2.9168,-2.9104,-2.8873,-2.8937,-2.8733,-2.8344,-2.8224,-2.8217,-2.8351,-2.8579,-2.8951,-2.9636,-3.083,-3.1665,-3.1627,-3.1646,-3.1598,-3.1541,-3.1569,-3.1569,-3.155,-3.1569,-3.1513,-3.1247,-3.1076,-3.102,-3.0736,-3.0603,-3.0377,-3.0121,-2.9795,-2.9324,-2.9146,-2.8887,-2.9243,-3.0853,-3.1159,-3.0987,-4.6367,0.0,-4.3681,-4.2751,0.0,-4.126,-4.1248,-4.1774,-4.1491,-4.0992,-4.0522,-4.0441,-4.0239,-4.0171,-4.0367,-4.0307,-4.0004,-4.0305,-3.9956,-3.9146,-3.8855,-3.8104,-3.7066,-3.6456,-3.5699,-3.5078,-3.4539,-3.3902,-3.3263,-3.2822,-3.2413,-3.2012,-3.1749,-3.1618,-3.1618,-3.1618,-3.1618,-3.1618,-3.1618,-3.1618,-3.1618,-3.1389,-3.1258,-3.1236,0.0,0.0,0.0,0.0,0.0,0.0,0.0,0.0,0.0,0.0,0.0,-2.4332,-2.3935,-2.3646,-2.3447,-2.3555,-2.3907,-2.4612,-2.5523,-2.6074,-2.619,-2.6482,-2.671,-2.671,-2.6896,-2.7066,-2.7354,-2.741,-2.7529,-2.8003,-2.8086,-2.8168,-2.8342,-2.8379,-2.8272,-2.7921,-2.7921,-2.7687,-2.7073,-2.6955,-2.6906,-2.6858,-2.7021,-2.7347,-2.7677,-2.9265,-3.0373,-3.0301,-3.0035,-2.9922,-2.995,-3.0011,-3.0005,-2.9996,-2.9757,-2.9637,-2.9407,-2.9113,-2.8737,-2.8618,-2.837,-2.8131,-2.7762,-2.728,-2.6918,-2.6796,-2.6554,-2.6796,-2.7815,-2.8736,-2.9359,-4.4903,-4.3565,-4.2395,-4.1502,-4.0854,-4.0441,-4.0307,-4.0307,0.0,0.0,0.0,-3.9759,-3.9664,-3.9583,-3.9498,-3.9251,-3.8962,-3.8955,-3.8409,-3.7419,-3.732,-3.6468,-3.521,-3.4809,-3.4113,-3.3322,-3.2915,-3.2398,-3.1905,-3.1971,-3.1812,-3.1629,-3.1618,-3.1618,-3.1618,-3.1618,-3.1575,-3.1509,-3.1575,-3.1586,-3.1487,-3.1094,-3.0854,-3.0777,-2.9936,-2.9478,-2.9382,-2.8653,-2.8102,-2.7799,-2.704,-2.638,-2.58,-2.4815,-2.4233,-2.3926,-2.3546,-2.3247,-2.3247,-2.3356,-2.3758,-2.4792,-2.5736,-2.6435,-2.6573,-2.6591,-2.6591,-2.6591,-2.6591,-2.6719,-2.704,-2.7068,-2.7233,-2.7618,-2.7664,-2.7682,-2.7765,-2.7774,-2.7582,-2.7203,-2.7009,-2.6743,-2.6067,-2.5835,-2.5801,-2.5577,-2.5778,-2.6149,-2.6484,-2.7911,-2.8975,-2.889,-2.8602,-2.8417,-2.8285,-2.8307,-2.8357,-2.8315,-2.7939,-2.7535,-2.7374,-2.6804,-2.638,-2.6252,-2.5775,-2.5477,-2.5111,-2.4716,-2.4258,-2.4148,-2.414,-2.4258,-2.4598,-2.591,-2.7067,-4.3096,-4.1764,-4.061,-4.0129,-3.993,-3.9237,-3.8738,-3.8595,-3.9361,-3.9203,-3.8542,-3.845,-3.8372,-3.8267,-3.8444,-3.8368,-3.8108,-3.7985,-3.7419,0.0,-3.5729,-3.4809,-3.388,-3.3389,-3.2733,-3.2072,-3.2375,-3.2129,-3.1506,-3.1827,-3.1823,-3.1618,-3.1618,-3.1618,-3.1618,-3.1618,-3.1411,-3.1018,-3.1411,-3.1422,-3.1007,-3.093,-3.0701,-3.0308,-2.9773,-2.9393,-2.9106,-2.8264,-2.7536,-2.7051,-2.6071,-2.5304,-2.4726,-2.3926,-2.3338,-2.3147,-2.2854,-2.2754,-2.2745,-2.2946,-2.345,-2.4413,-2.4968,-2.5618,-2.6518,-2.6591,-2.6591,-2.6582,-2.6554,-2.6609,-2.6664,-2.6655,-2.6802,-2.7187,-2.7251,-2.7276,-2.7341,-2.7272,-2.7034,-2.6212,-2.5917,-2.5419,-2.4686,-2.4226,-2.3975,-2.3779,-2.4287,-2.4703,-2.5484,-2.651,-2.7294,-2.754,-2.7353,-2.7079,-2.6725,-2.6734,-2.6628,-2.6458,-2.6076,-2.5594,-2.5277,-2.4819,-2.4404,-2.3866,-2.3701,-2.3481,-2.3142,-2.31,-2.2757,-2.2601,-2.2445,-2.249,-2.2578,-2.3088,-2.3712,-4.2072,-4.0804,-3.9943,-3.9465,-3.9066,-3.8605,-3.8226,-3.8083,-3.8438,-3.8398,-3.807,-3.8057,-3.7887,-3.7729,-3.787,-3.76,-3.7033,-3.6902,-3.6125,-3.5123,-3.4487,-3.368,-3.2723,-3.2185,-3.1728,-3.1329,-3.1528,-3.1417,-3.1163,-3.1592,-3.1732,-3.1597,-3.1367,-3.1105,-3.0876,-3.0854,-3.0745,-3.0537,-3.0985,-3.0996,-3.0537,-3.0264,-3.0024,-2.9816,-2.9252,-2.8823,-2.8718,-2.7746,-2.6955,-2.6476,-2.5401,-2.452,-2.3926,-2.3438,-2.3046,-2.2846,-2.2644,-2.2653,-2.2653,-2.3054,-2.3458,-2.395,-2.4521,-2.4993,-2.5459,-2.5611,-2.5718,-2.5495,-2.5495,-2.5495,-2.5495,-2.5602,-2.5872,-2.6254,-2.6509,-2.6573,-2.6587,-2.6556,-2.6107,-2.5292,-2.496,-2.4514,-2.3383,-2.326,-2.3145,-2.3037,-2.3375,-2.3885,-2.4265,-2.4569,-2.5172,-2.5953,-2.5847,-2.5362,-2.5113,-2.476,-2.462,-2.4683,-2.4155,-2.3777,-2.3441,-2.3038,-2.2427,-2.2188,-2.1955,-2.1765,-2.1423,-2.1242,-2.1068,-2.0787,-2.0644,-2.0651,-2.0651,-2.0651,-2.1342,-4.1131,-3.9816,-3.936,-3.8924,-3.8434,-3.8226,-3.8057,-3.79,-3.79,-3.79,-3.79,-3.7808,-3.7703,-3.7505,-3.732,-3.6871,-3.6088,-3.559,-3.4655,-3.3602,-3.3099,-3.2395,-3.1661,-3.1219,-3.0899,-3.0624,-3.0788,-3.0843,-3.081,-3.1225,-3.1411,-3.128,-3.093,-3.0559,-3.022,-3.022,-3.0155,-3.0078,-3.0297,-3.0297,-3.0046,-2.9674,-2.9434,-2.9208,-2.8683,-2.8301,-2.8019,-2.7241,-2.637,-2.5703,-2.4726,-2.3899,-2.3114,-2.2915,-2.2681,-2.2404,-2.2372,-2.2558,-2.2653,-2.303,-2.3408,-2.351,-2.3885,-2.426,-2.426,-2.4373,-2.4557,-2.4595,-2.4667,-2.4658,-2.4667,-2.4763,-2.5071,-2.536,-2.5502,-2.5638,-2.5576,-2.5313,-2.4758,-2.3971,-2.3657,-2.311,-2.2336,-2.2224,-2.2216,-2.2224,-2.256,-2.2775,-2.2755,-2.2699,-2.3169,-2.3764,-2.3913,-2.362,-2.3328,-2.2917,-2.2702,-2.2831,-2.2193,-2.1843,-2.1767,-2.1207,-2.0757,-2.0622,-2.0395,-2.021,-1.9886,-1.9731,-1.9556,-1.9417,-1.9292,-1.9327,-1.9361,-1.9355,-1.9752,-3.9802,-3.8812,-3.8501,-3.8201,-3.7992,-3.7992,-3.79,-3.79,-3.79,-3.79,-3.7861,-3.7598,-3.7492,-3.7413,-3.6815,-3.6069,-3.5245,-3.409,-3.2992,-3.2045,-3.1195,-3.0732,-3.0537,-3.033,-3.0046,-2.9816,-3.0493,-3.0646,-3.0308,-3.0734,-3.0756,-3.0384,-3.0297,-3.0242,-3.0188,-3.0188,-2.998,-2.9554,-2.9183,-2.9172,-2.9532,-2.951,-2.9186,-2.847,-2.8416,-2.7914,-2.7094,-2.6466,-2.5703,-2.4726,-2.3899,-2.3169,-2.2582,-2.2244,-2.1884,-2.1585,-2.1859,-2.2184,-2.2593,-2.2679,-2.2788,-2.2998,-2.3116,-2.3151,-2.3151,-2.316,-2.3577,-2.4278,-2.4595,-2.4464,-2.4631,-2.4595,-2.4587,-2.4553,-2.4684,-2.4483,-2.4015,-2.3662,-2.3235,-2.2376,-2.1682,-2.0858,-2.0728,-2.0509,-2.0472,-2.0978,-2.122,-2.1284,-2.1177,-2.1248,-2.1217,-2.1215,-2.1457,-2.1889,-2.1542,-2.1441,-2.1131,-2.0741,-2.0318,-2.0185,-1.9918,-1.9577,-1.9126,-1.9284,-1.8972,-1.8959,-1.878,-1.8642,-1.8621,-1.8611,-1.8597,-1.8561,-1.8588,-1.8541,-1.8988,-3.92,-3.833,-3.8148,-3.7979,-3.79,-3.79,-3.79,-3.79,-3.79,-3.7612,-3.7209,-3.6909,-3.6713,-3.6517,-3.5961,-3.5009,-3.3841,-3.2984,-3.2291,-3.1683,-3.1216,-3.0976,-3.0985,-3.045,-3.01,-2.9947,-3.0319,-3.0242,-2.9936,-3.0264,-3.0253,-2.9838,-2.9784,-2.9642,-2.9379,-2.9358,-2.9117,-2.8637,-2.8451,-2.8309,-2.82,-2.82,-2.8011,-2.7575,-2.7281,-2.6812,-2.6167,-2.5317,-2.4469,-2.362,-2.3033,-2.2382,-2.1855,-2.1741,-2.1585,-2.143,-2.1559,-2.1713,-2.1859,-2.1867,-2.1973,-2.2071,-2.2071,-2.2071,-2.2088,-2.2279,-2.2672,-2.2941,-2.3286,-2.3314,-2.322,-2.3425,-2.3607,-2.3583,-2.3748,-2.3731,-2.3322,-2.2905,-2.2379,-2.1634,-2.0985,-2.0543,-2.0121,-2.0019,-2.0237,-2.0456,-2.055,-2.0446,-2.0089,-2.0045,-1.9842,-1.9377,-1.9645,-1.9953,-2.0064,-1.9747,-1.9534,-1.9442,-1.9297,-1.9,-1.9043,-1.8809,-1.8601,-1.8464,-1.8424,-1.835,-1.825,-1.8217,-1.819,-1.807,-1.7956,-1.7956,-1.7949,-1.7949,-1.8164,-3.8806,-3.8161,-3.7979,-3.7808,-3.7665,-3.7665,-3.756,-3.7416,-3.7416,-3.7065,-3.6444,-3.6135,-3.5658,-3.5181,-3.4848,-3.3886,-3.2499,-3.189,-3.1438,-3.1002,-3.0721,-3.069,-3.0745,-3.0166,-2.9816,-2.9838,-2.9947,-2.9827,-2.9543,-2.9827,-2.9762,-2.9347,-2.9281,-2.9041,-2.8604,-2.856,-2.832,-2.7883,-2.773,-2.749,-2.7173,-2.6998,-2.6878,-2.684,-2.6436,-2.5896,-2.525,-2.4322,-2.3495,-2.2753,-2.2271,-2.1743,-2.1268,-2.1259,-2.1268,-2.1259,-2.1259,-2.1311,-2.1388,-2.1405,-2.1405,-2.1405,-2.1405,-2.1405,-2.1448,-2.167,-2.1876,-2.1948,-2.2136,-2.2114,-2.2215,-2.2333,-2.2426,-2.2256,-2.2477,-2.2406,-2.2094,-2.1731,-2.1204,-2.0696,-2.0123,-1.9815,-1.9298,-1.9299,-1.9305,-1.9411,-1.9652,-1.9645,-1.8998,-1.8695,-1.8513,-1.8005,-1.7964,-1.8199,-1.8766,-1.8583,-1.8325,-1.8192,-1.8051,-1.8,-1.8272,-1.8077,-1.807,-1.7809,-1.8029,-1.8116,-1.7936,-1.7876,-1.7722,-1.7468,-1.7368,-1.7382,-1.7341,-1.7341,-1.7341,-3.8357,-3.7887,-3.79,-3.7547,-3.705,-3.705,-3.6711,-3.6305,-3.624,-3.6113,-3.5823,-3.5557,-3.4628,-3.3387,-3.3387,-3.2683,-3.1507,-3.0717,-3.0068,-2.9415,-2.9151,-2.8992,-2.8877,-2.8833,-2.8833,-2.891,-2.9259,-2.9456,-2.9445,-2.9478,-2.9259,-2.8833,-2.8801,-2.856,-2.8167,-2.8091,-2.7839,-2.737,-2.6988,-2.6704,-2.6616,-2.6212,-2.6184,-2.6445,-2.6124,-2.5361,-2.4283,-2.3476,-2.2717,-2.1873,-2.1648,-2.1328,-2.0942,-2.09,-2.09,-2.09,-2.09,-2.1045,-2.1311,-2.1336,-2.1345,-2.1362,-2.1311,-2.1371,-2.1207,-2.1292,-2.1374,-2.1542,-2.1362,-2.1429,-2.1795,-2.1533,-2.1257,-2.0929,-2.0556,-2.0387,-2.0194,-1.9649,-1.9199,-1.9235,-1.8793,-1.8283,-1.7798,-1.7374,-1.7663,-1.7844,-1.7774,-1.7687,-1.7542,-1.7365,-1.7257,-1.7042,-1.6928,-1.6968,-1.7538,-1.7716,-1.7374,-1.7252,-1.7265,-1.6982,-1.68,-1.6814,-1.7014,-1.7168,-1.7198,-1.7311,-1.7488,-1.7395,-1.7161,-1.6974,-1.6901,-1.6874,-1.6961,-1.6814,-1.684,-3.8105,-3.7338,-3.7325,-3.6985,-3.6449,-3.6436,-3.6292,-3.6109,-3.6109,-3.5739,-3.5105,-3.4891,-3.3872,-3.2216,-3.1938,-3.1293,-3.0423,-2.9847,-2.946,-2.9349,-2.8992,-2.8921,-2.915,-2.8615,-2.8298,-2.8331,-2.8473,-2.8631,-2.8683,-2.8341,-2.815,-2.8319,-2.8153,-2.8017,-2.7833,-2.763,-2.7348,-2.6911,-2.6693,-2.6485,-2.619,-2.591,-2.5658,-2.5506,-2.5093,-2.4303,-2.3335,-2.2715,-2.2071,-2.1322,-2.1239,-2.0902,-2.0615,-2.0506,-2.0506,-2.0506,-2.0506,-2.0557,-2.0677,-2.0694,-2.0694,-2.0694,-2.0509,-2.0441,-2.0458,-2.0533,-2.0554,-2.0424,-2.0248,-2.0221,-2.0234,-2.0432,-2.0318,-1.9791,-1.9491,-1.917,-1.8873,-1.8567,-1.8318,-1.8333,-1.7848,-1.7394,-1.7312,-1.7182,-1.7127,-1.7227,-1.732,-1.7093,-1.69,-1.6807,-1.6773,-1.67,-1.67,-1.6673,-1.6652,-1.6981,-1.6928,-1.6874,-1.674,-1.674,-1.6687,-1.6454,-1.6518,-1.6563,-1.6577,-1.659,-1.6638,-1.6714,-1.6465,-1.6513,-1.6427,-1.6474,-1.6707,-1.6587,-1.6613,-3.7725,-3.6998,-3.6789,-3.6384,-3.5861,-3.5848,-3.5717,-3.5574,-3.5547,-3.5167,-3.4538,-3.4315,-3.3395,-3.195,-3.1181,-3.045,-2.967,-2.9235,-2.9042,-2.8975,-2.868,-2.8626,-2.8648,-2.8112,-2.7807,-2.7717,-2.7717,-2.772,-2.7774,-2.7334,-2.7253,-2.7498,-2.7495,-2.737,-2.7288,-2.7161,-2.6867,-2.6485,-2.6398,-2.6223,-2.5928,-2.5633,-2.5211,-2.469,-2.4166,-2.3484,-2.2706,-2.2185,-2.1642,-2.1087,-2.0997,-2.0817,-2.0555,-2.0464,-2.0382,-2.0382,-2.0382,-2.0292,-2.0292,-2.0201,-2.0209,-2.0201,-1.9936,-1.9845,-1.977,-1.9895,-1.9772,-1.9565,-1.9359,-1.9143,-1.8784,-1.8805,-1.8758,-1.8445,-1.8171,-1.7949,-1.7851,-1.7556,-1.7513,-1.7406,-1.7152,-1.6891,-1.6857,-1.6776,-1.6623,-1.663,-1.663,-1.6531,-1.6321,-1.6223,-1.6131,-1.6236,-1.6091,-1.6012,-1.5934,-1.6026,-1.6196,-1.6157,-1.6183,-1.6249,-1.6302,-1.6097,-1.6024,-1.5963,-1.5982,-1.5876,-1.5876,-1.5976,-1.5944,-1.5991,-1.6058,-1.6051,-1.6228,-1.638,-1.6373,-3.7279,-3.6841,-3.6358,-3.5783,-3.5312,-3.5286,-3.4972,-3.458,-3.4502,-3.4373,-3.4192,-3.3836,-3.3164,-3.2277,-3.1192,-3.0206,-2.9228,-2.8785,-2.8499,-2.8112,-2.8014,-2.7763,-2.7435,-2.7304,-2.7228,-2.7151,-2.7006,-2.6872,-2.6768,-2.6657,-2.6679,-2.6779,-2.6926,-2.6788,-2.6336,-2.6487,-2.6387,-2.6059,-2.5972,-2.5928,-2.5812,-2.5464,-2.4946,-2.4251,-2.357,-2.296,-2.2441,-2.183,-2.1383,-2.1087,-2.0997,-2.0997,-2.0907,-2.0736,-2.0654,-2.0654,-2.0473,-2.0292,-2.0292,-2.0027,-1.9928,-1.9845,-1.9671,-1.9579,-1.9587,-1.952,-1.9374,-1.8949,-1.8663,-1.8304,-1.7534,-1.6938,-1.6717,-1.696,-1.6794,-1.6558,-1.6648,-1.6461,-1.6366,-1.6639,-1.642,-1.6286,-1.6213,-1.6092,-1.5972,-1.5952,-1.5747,-1.5658,-1.5588,-1.5505,-1.5236,-1.5236,-1.5409,-1.5441,-1.5255,-1.5191,-1.53,-1.5408,-1.5556,-1.5615,-1.5583,-1.5415,-1.5401,-1.5445,-1.5392,-1.5293,-1.5293,-1.5379,-1.5407,-1.5441,-1.5512,-1.5684,-1.584,-1.5893,-1.5916,-3.6981,-3.6008,-3.5725,-3.5208,-3.4711,-3.4672,-3.4554,-3.441,-3.4397,-3.4327,-3.3998,-3.3399,-3.2622,-3.1687,-3.0625,-2.9514,-2.8627,-2.8255,-2.7876,-2.7501,-2.7228,-2.702,-2.6813,-2.6507,-2.6258,-2.6076,-2.5905,-2.5817,-2.5918,-2.5795,-2.5853,-2.623,-2.6264,-2.6237,-2.6239,-2.6129,-2.6026,-2.5928,-2.5895,-2.5822,-2.5654,-2.5211,-2.469,-2.3917,-2.3232,-2.2715,-2.2176,-2.183,-2.1472,-2.1293,-2.1293,-2.1195,-2.1006,-2.0826,-2.0654,-2.0654,-2.0473,-2.0201,-2.0027,-1.9936,-1.9845,-1.9671,-1.9479,-1.9387,-1.9288,-1.9028,-1.8706,-1.8161,-1.7588,-1.6975,-1.645,-1.5846,-1.5873,-1.6441,-1.6092,-1.5985,-1.6286,-1.6279,-1.6204,-1.6066,-1.6019,-1.5979,-1.5965,-1.5757,-1.5553,-1.5547,-1.5356,-1.5267,-1.5172,-1.5077,-1.5083,-1.5083,-1.5083,-1.4987,-1.4981,-1.4885,-1.4981,-1.507,-1.5166,-1.5159,-1.4981,-1.4898,-1.4954,-1.4896,-1.483,-1.4849,-1.4843,-1.4824,-1.4883,-1.4948,-1.5134,-1.53,-1.5458,-1.5547,-1.5642,-3.6532,-3.5627,-3.5136,-3.475,-3.441,-3.4397,-3.4397,-3.4397,-3.4397,-3.421,-3.3796,-3.3212,-3.2422,-3.1459,-3.0266,-2.9183,-2.8374,-2.7662,-2.7227,-2.6824,-2.6736,-2.654,-2.6365,-2.6059,-2.5822,-2.5654,-2.5391,-2.5349,-2.5464,-2.5322,-2.5448,-2.5693,-2.5785,-2.5819,-2.598,-2.589,-2.5895,-2.5895,-2.5895,-2.5728,-2.538,-2.4946,-2.4251,-2.358,-2.2882,-2.2362,-2.2008,-2.1741,-2.1651,-2.1571,-2.1482,-2.1383,-2.1275,-2.1006,-2.0826,-2.0736,-2.0473,-2.0201,-2.0027,-1.992,-1.9837,-1.9662,-1.9479,-1.9288,-1.9196,-1.8835,-1.8373,-1.7621,-1.7066,-1.6305,-1.5648,-1.5274,-1.5358,-1.5789,-1.5665,-1.5648,-1.5933,-1.6028,-1.6035,-1.5865,-1.5743,-1.573,-1.5635,-1.5452,-1.5363,-1.5356,-1.5077,-1.4987,-1.4885,-1.4879,-1.4885,-1.479,-1.479,-1.4688,-1.4783,-1.4694,-1.4694,-1.4783,-1.4783,-1.4777,-1.4688,-1.4592,-1.4629,-1.4629,-1.4551,-1.4563,-1.4563,-1.4545,-1.4617,-1.4694,-1.479,-1.4981,-1.5261,-1.5452,-1.554,-3.5854,-3.5508,-3.4716,-3.4437,-3.4397,-3.4397,-3.4397,-3.4397,-3.4332,-3.4045,-3.3597,-3.2959,-3.235,-3.1411,-3.0177,-2.9071,-2.8217,-2.7403,-2.6631,-2.6308,-2.6299,-2.6332,-2.6005,-2.5928,-2.5822,-2.5644,-2.5559,-2.5486,-2.5285,-2.519,-2.5211,-2.5391,-2.5572,-2.5581,-2.5708,-2.5822,-2.5895,-2.5895,-2.5895,-2.5644,-2.52,-2.4594,-2.382,-2.3144,-2.253,-2.2008,-2.182,-2.1731,-2.1731,-2.1731,-2.1651,-2.1642,-2.1642,-2.1275,-2.0997,-2.0997,-2.0555,-2.0292,-2.0201,-2.0019,-1.9845,-1.9845,-1.9671,-1.9487,-1.9196,-1.8827,-1.8272,-1.7426,-1.677,-1.6116,-1.5363,-1.5083,-1.5096,-1.5178,-1.5465,-1.5642,-1.5825,-1.5832,-1.573,-1.573,-1.5635,-1.5452,-1.5445,-1.5267,-1.5077,-1.4987,-1.4892,-1.4694,-1.4592,-1.4586,-1.4394,-1.4394,-1.4496,-1.4496,-1.4592,-1.4496,-1.4496,-1.4496,-1.4592,-1.4586,-1.449,-1.4394,-1.4394,-1.4394,-1.4298,-1.4298,-1.4298,-1.44,-1.44,-1.4496,-1.4592,-1.479,-1.4981,-1.5166,-1.5356,-3.5698,-3.5216,-3.4629,-3.4397,-3.4397,-3.4397,-3.4397,-3.4345,-3.3966,-3.3744,-3.3349,-3.2408,-3.1598,-3.0985,-2.9801,-2.873,-2.7778,-2.7178,-2.654,-2.6012,-2.6016,-2.6037,-2.5917,-2.5895,-2.5812,-2.5654,-2.5654,-2.5464,-2.52,-2.5285,-2.5295,-2.5475,-2.5559,-2.5644,-2.5822,-2.5895,-2.5895,-2.5895,-2.5895,-2.5549,-2.4946,-2.4423,-2.3734,-2.2882,-2.2353,-2.2008,-2.1741,-2.1731,-2.1731,-2.1731,-2.1731,-2.1731,-2.1642,-2.1266,-2.0997,-2.0907,-2.0555,-2.0209,-2.0019,-1.9928,-1.9845,-1.9671,-1.9671,-1.9479,-1.9188,-1.8635,-1.7986,-1.7239,-1.6386,-1.554,-1.5178,-1.4885,-1.4981,-1.5356,-1.5547,-1.5642,-1.5737,-1.5635,-1.554,-1.554,-1.5356,-1.5261,-1.5166,-1.4975,-1.479,-1.479,-1.4592,-1.44,-1.4394,-1.4394,-1.4298,-1.4298,-1.4394,-1.4298,-1.4298,-1.4298,-1.4298,-1.44,-1.4394,-1.4394,-1.4394,-1.4394,-1.4298,-1.4298,-1.4298,-1.4298,-1.4298,-1.4298,-1.4298,-1.4298,-1.44,-1.4592,-1.4688,-1.4879,-1.5077,-3.5379,-3.5086,-3.4564,-3.4397,-3.4397,-3.4397,-3.4397,-3.4293,-3.3822,-3.343,-3.2971,-3.2006,-3.1216,-3.0571,-2.958,-2.8554,-2.7672,-2.7126,-2.6561,-2.599,-2.5917,-2.5906,-2.5895,-2.5895,-2.5822,-2.5738,-2.5728,-2.5644,-2.5549,-2.5454,-2.5549,-2.5644,-2.5738,-2.5822,-2.5895,-2.5895,-2.5895,-2.5895,-2.5717,-2.5295,-2.4594,-2.3993,-2.3299,-2.2618,-2.2087,-2.183,-2.1741,-2.1731,-2.1731,-2.1731,-2.1731,-2.1731,-2.1642,-2.1266,-2.0997,-2.0988,-2.0555,-2.0201,-2.011,-2.011,-2.0027,-1.9945,-1.9853,-1.9563,-1.9096,-1.845,-1.7707,-1.6958,-1.592,-1.5261,-1.4981,-1.479,-1.4879,-1.5261,-1.5452,-1.5547,-1.5642,-1.554,-1.5452,-1.5356,-1.507,-1.4885,-1.4981,-1.4688,-1.4592,-1.4496,-1.4394,-1.4394,-1.4298,-1.4298,-1.4298,-1.4298,-1.4298,-1.4298,-1.4298,-1.4298,-1.4298,-1.4298,-1.4298,-1.4298,-1.4298,-1.4298,-1.4298,-1.4298,-1.4298,-1.4298,-1.4298,-1.4298,-1.4298,-1.4298,-1.4298,-1.44,-1.4592,-1.4688,-1.479,-3.5072,-3.5072,-3.4564,-3.4397,-3.4397,-3.4397,-3.4397,-3.4306,-3.3822,-3.326,-3.2698,-3.1941,-3.1151,-3.0368,-2.9611,-2.8712,-2.781,-2.7196,-2.655,-2.6063,-2.5895,-2.5895,-2.5895,-2.5895,-2.5906,-2.5895,-2.5895,-2.5895,-2.5812,-2.5895,-2.5895,-2.5906,-2.5906,-2.5906,-2.5895,-2.5895,-2.5906,-2.5728,-2.538,-2.4861,-2.4166,-2.357,-2.2882,-2.2264,-2.1909,-2.1731,-2.1741,-2.1651,-2.1642,-2.1651,-2.1651,-2.1651,-2.1553,-2.1186,-2.0997,-2.0907,-2.0555,-2.0292,-2.0292,-2.0201,-2.0201,-2.0019,-1.9837,-1.9563,-1.9004,-1.8156,-1.7318,-1.6676,-1.5642,-1.4981,-1.4694,-1.4688,-1.4783,-1.4981,-1.5077,-1.5172,-1.5356,-1.5452,-1.5356,-1.5077,-1.4783,-1.4694,-1.4592,-1.4496,-1.4298,-1.44,-1.4298,-1.4298,-1.4298,-1.4298,-1.4298,-1.4298,-1.4298,-1.4298,-1.4298,-1.4298,-1.4298,-1.4298,-1.4298,-1.4298,-1.4298,-1.4298,-1.4298,-1.4298,-1.4298,-1.4298,-1.4298,-1.4298,-1.4298,-1.4298,-1.4298,-1.44,-1.4592,-1.4586,-1.4592,-3.5072,-3.5072,-3.4577,-3.4397,-3.4397,-3.4397,-3.4397,-3.4358,-3.3822,-3.3247,-3.2659,-3.2006,-3.1203,-3.0355,-2.9729,-2.8924,-2.781,-2.7267,-2.6704,-2.5979,-2.5895,-2.5895,-2.5895,-2.5895,-2.5895,-2.5895,-2.5895,-2.5895,-2.5895,-2.5895,-2.5895,-2.5895,-2.5895,-2.5895,-2.5895,-2.5906,-2.5822,-2.5644,-2.5211,-2.4605,-2.3917,-2.3232,-2.2627,-2.2097,-2.183,-2.1731,-2.1642,-2.1562,-2.1472,-2.1482,-2.1482,-2.1472,-2.1383,-2.1015,-2.0835,-2.0736,-2.0473,-2.0201,-2.0019,-1.9928,-1.9828,-1.9463,-1.9279,-1.9096,-1.8365,-1.7505,-1.685,-1.6197,-1.535,-1.4694,-1.4496,-1.4394,-1.4496,-1.4688,-1.4783,-1.4783,-1.4873,-1.4879,-1.4879,-1.4783,-1.4586,-1.4394,-1.4394,-1.4394,-1.4298,-1.4298,-1.4298,-1.4298,-1.4298,-1.4298,-1.4298,-1.4298,-1.4298,-1.4298,-1.4298,-1.4298,-1.4298,-1.4298,-1.4298,-1.4298,-1.4298,-1.4298,-1.4298,-1.4298,-1.4298,-1.4298,-1.4298,-1.4298,-1.4298,-1.4298,-1.4298,-1.44,-1.44,-1.4394,-1.449,-3.5072,-3.5086,-3.4577,-3.4397,-3.4397,-3.4397,-3.4397,-3.4293,-3.3835,-3.326,-3.2659,-3.2006,-3.1203,-3.0381,-2.9729,-2.8779,-2.781,-2.694,-2.6385,-2.5979,-2.5895,-2.5895,-2.5895,-2.5895,-2.5895,-2.5895,-2.5895,-2.5895,-2.5895,-2.5895,-2.5895,-2.5895,-2.5895,-2.5895,-2.5895,-2.5812,-2.5644,-2.5295,-2.469,-2.409,-2.3484,-2.2794,-2.2274,-2.1998,-2.1731,-2.1651,-2.1562,-2.1482,-2.1293,-2.1195,-2.1114,-2.1114,-2.1105,-2.0925,-2.0744,-2.0654,-2.0292,-2.0019,-1.9837,-1.9471,-1.9188,-1.8812,-1.8535,-1.8071,-1.7512,-1.6756,-1.6096,-1.5629,-1.5064,-1.449,-1.4298,-1.4298,-1.4394,-1.449,-1.449,-1.4496,-1.4496,-1.4592,-1.4592,-1.449,-1.4394,-1.4298,-1.4298,-1.4298,-1.4298,-1.4298,-1.4298,-1.4298,-1.4298,-1.4298,-1.4298,-1.4298,-1.4298,-1.4298,-1.4298,-1.4298,-1.4298,-1.4298,-1.4298,-1.4298,-1.4298,-1.4298,-1.4298,-1.4298,-1.4298,-1.4298,-1.4298,-1.4298,-1.4298,-1.4298,-1.4298,-1.4298,-1.4298,-1.4394,-1.4394,-3.5072,-3.5072,-3.4564,-3.4397,-3.4384,-3.4306,-3.4241,-3.4175,-3.3692,-3.3038,-3.2489,-3.1772,-3.1113,-3.0305,-2.9521,-2.8633,-2.758,-2.661,-2.5979,-2.5895,-2.5895,-2.5895,-2.5895,-2.5895,-2.5895,-2.5895,-2.5895,-2.5895,-2.5895,-2.5895,-2.5895,-2.5895,-2.5895,-2.5895,-2.5812,-2.5728,-2.5464,-2.502,-2.4262,-2.357,-2.296,-2.2353,-2.1919,-2.1741,-2.1651,-2.1562,-2.1383,-2.1203,-2.1212,-2.0997,-2.0736,-2.0736,-2.0826,-2.0736,-2.0564,-2.0564,-2.011,-1.9737,-1.9279,-1.8912,-1.845,-1.8156,-1.7505,-1.7037,-1.656,-1.6001,-1.5445,-1.5064,-1.4592,-1.4298,-1.4298,-1.4298,-1.4298,-1.4394,-1.4394,-1.4394,-1.449,-1.4592,-1.4592,-1.4394,-1.4298,-1.4298,-1.4298,-1.4298,-1.4298,-1.4298,-1.4298,-1.4298,-1.4298,-1.4298,-1.4298,-1.4298,-1.4298,-1.4298,-1.4298,-1.4298,-1.4298,-1.4298,-1.4298,-1.4298,-1.4298,-1.4298,-1.4298,-1.4298,-1.4298,-1.4298,-1.4298,-1.4298,-1.4298,-1.4298,-1.4298,-1.4298,-1.4298,-1.4298,-1.4298,-3.5072,-3.5072,-3.4564,-3.4397,-3.4319,-3.3927,-3.3718,-3.3626,-3.3117,-3.2529,-3.1954,-3.1617,-3.0971,-3.0189,-2.9443,-2.8327,-2.7115,-2.6313,-2.5906,-2.5906,-2.5895,-2.5895,-2.5895,-2.5895,-2.5895,-2.5895,-2.5895,-2.5895,-2.5895,-2.5895,-2.5895,-2.5895,-2.5895,-2.5895,-2.5812,-2.5644,-2.52,-2.468,-2.3917,-2.3232,-2.2618,-2.2087,-2.1651,-2.1482,-2.1482,-2.1284,-2.1096,-2.0925,-2.0835,-2.0744,-2.0473,-2.0382,-2.0382,-2.0382,-2.0292,-2.0011,-1.9737,-1.9271,-1.8719,-1.8156,-1.7598,-1.7044,-1.6574,-1.6197,-1.5724,-1.535,-1.507,-1.4783,-1.4496,-1.4298,-1.4298,-1.4298,-1.4394,-1.4586,-1.4592,-1.4688,-1.479,-1.479,-1.4592,-1.4394,-1.4394,-1.4298,-1.4298,-1.4298,-1.4298,-1.4298,-1.4298,-1.4298,-1.4298,-1.4298,-1.4298,-1.4298,-1.4298,-1.4298,-1.4298,-1.4298,-1.4298,-1.4298,-1.4298,-1.4298,-1.4298,-1.4298,-1.4298,-1.4298,-1.4298,-1.4298,-1.4298,-1.4298,-1.4298,-1.4298,-1.4298,-1.4298,-1.4208,-1.4208,-1.4208,-3.5003,-3.4895,-3.4275,-3.3979,-3.3875,-3.3378,-3.3117,-3.3091,-3.2803,-3.2372,-3.1811,-3.1487,-3.0971,-3.0099,-2.9209,-2.8018,-2.688,-2.6313,-2.599,-2.5906,-2.5895,-2.5895,-2.5895,-2.5895,-2.5895,-2.5895,-2.5895,-2.5895,-2.5895,-2.5895,-2.5895,-2.5895,-2.5895,-2.5895,-2.5812,-2.5391,-2.4946,-2.4337,-2.357,-2.2882,-2.2274,-2.1741,-2.1482,-2.1392,-2.1293,-2.1096,-2.0925,-2.0736,-2.0555,-2.0292,-2.011,-2.0027,-1.9936,-1.9936,-1.9845,-1.9646,-1.9271,-1.8619,-1.7878,-1.7318,-1.6662,-1.6096,-1.5629,-1.535,-1.5064,-1.4873,-1.4688,-1.4496,-1.44,-1.4298,-1.4298,-1.4298,-1.4394,-1.4592,-1.4688,-1.479,-1.4981,-1.479,-1.4688,-1.449,-1.4394,-1.4298,-1.4298,-1.4298,-1.4298,-1.4298,-1.4298,-1.4298,-1.4298,-1.4298,-1.4298,-1.4298,-1.4298,-1.4298,-1.4298,-1.4298,-1.4298,-1.4298,-1.4298,-1.4298,-1.4298,-1.4298,-1.4298,-1.4298,-1.4298,-1.4304,-1.4298,-1.4298,-1.4298,-1.4298,-1.4304,-1.4208,-1.4118,-1.4118,-1.3919,-3.4937,-3.4558,-3.3852,-3.3522,-3.3326,-3.2764,-3.2515,-3.2502,-3.2372,-3.2045,-3.1641,-3.1242,-3.0766,-3.0074,-2.8961,-2.7765,-2.6644,-2.6313,-2.6074,-2.5906,-2.5895,-2.5895,-2.5895,-2.5895,-2.5895,-2.5895,-2.5895,-2.5895,-2.5895,-2.5895,-2.5895,-2.5895,-2.5895,-2.5812,-2.5644,-2.5126,-2.4605,-2.3917,-2.3222,-2.2539,-2.2008,-2.1571,-2.1302,-2.1212,-2.1015,-2.0826,-2.0564,-2.0473,-2.0292,-2.0027,-1.9845,-1.9762,-1.9579,-1.9487,-1.9387,-1.9188,-1.8611,-1.7971,-1.7232,-1.6386,-1.5818,-1.5343,-1.4873,-1.4688,-1.4592,-1.449,-1.4394,-1.4298,-1.4298,-1.4298,-1.4298,-1.4298,-1.449,-1.4586,-1.4688,-1.4783,-1.4885,-1.4885,-1.4783,-1.4586,-1.4394,-1.4394,-1.4298,-1.4298,-1.4298,-1.4298,-1.4298,-1.4298,-1.4298,-1.4298,-1.4298,-1.4298,-1.4298,-1.4298,-1.4298,-1.4298,-1.4298,-1.4298,-1.4298,-1.4298,-1.4298,-1.4298,-1.4298,-1.4298,-1.4208,-1.4112,-1.4208,-1.4298,-1.4298,-1.4298,-1.4304,-1.4112,-1.3925,-1.3636,-1.3437,-3.4698,-3.4004,-3.3695,-3.3287,-3.2751,-3.2176,-3.194,-3.1875,-3.147,-3.1169,-3.1169,-3.0725,-3.0394,-2.9844,-2.8621,-2.7592,-2.6962,-2.6479,-2.6146,-2.5979,-2.5895,-2.5895,-2.5895,-2.5895,-2.5895,-2.5895,-2.5895,-2.5895,-2.5895,-2.5895,-2.5895,-2.5895,-2.5895,-2.5728,-2.5295,-2.4775,-2.4069,-2.3309,-2.2696,-2.2087,-2.1562,-2.1195,-2.1015,-2.0835,-2.0744,-2.0473,-2.011,-2.011,-1.9936,-1.9671,-1.9679,-1.9579,-1.9487,-1.9112,-1.8651,-1.8357,-1.7885,-1.7412,-1.6676,-1.5825,-1.5166,-1.4873,-1.4496,-1.4394,-1.4394,-1.4394,-1.4298,-1.4298,-1.4298,-1.4298,-1.4298,-1.4298,-1.449,-1.4592,-1.4688,-1.4885,-1.4981,-1.4885,-1.4688,-1.4592,-1.449,-1.4394,-1.4298,-1.4298,-1.4298,-1.4298,-1.4298,-1.4298,-1.4298,-1.4298,-1.4298,-1.4298,-1.4298,-1.4298,-1.4298,-1.4298,-1.4298,-1.4298,-1.4298,-1.4298,-1.4298,-1.4298,-1.4298,-1.4208,-1.4016,-1.3925,-1.3919,-1.401,-1.4202,-1.4112,-1.3919,-1.3727,-1.3636,-1.3244,-1.2856,-3.4123,-3.3684,-3.2881,-3.2463,-3.215,-3.1601,-3.1352,-3.13,-3.1104,-3.0986,-3.0986,-3.0685,-3.0292,-2.9586,-2.8791,-2.8075,-2.729,-2.6809,-2.6396,-2.6063,-2.5979,-2.5895,-2.5895,-2.5895,-2.5895,-2.5895,-2.5895,-2.5895,-2.5895,-2.5895,-2.5895,-2.5906,-2.5728,-2.5475,-2.4946,-2.4433,-2.3637,-2.2765,-2.1971,-2.1454,-2.1195,-2.0916,-2.0736,-2.0645,-2.0382,-2.011,-1.9928,-1.9754,-1.9662,-1.9487,-1.9387,-1.9296,-1.912,-1.8751,-1.8373,-1.7707,-1.7138,-1.6567,-1.5913,-1.5255,-1.4783,-1.4592,-1.44,-1.4298,-1.4298,-1.4298,-1.4298,-1.4298,-1.4298,-1.4298,-1.4298,-1.4298,-1.4496,-1.4592,-1.4688,-1.4783,-1.4885,-1.4783,-1.4688,-1.4592,-1.449,-1.4394,-1.4298,-1.4298,-1.4298,-1.4298,-1.4298,-1.4298,-1.4298,-1.4298,-1.4298,-1.4298,-1.4298,-1.4298,-1.4298,-1.4298,-1.4298,-1.4298,-1.4298,-1.4298,-1.4202,-1.4202,-1.4106,-1.3919,-1.363,-1.3534,-1.3528,-1.3528,-1.3534,-1.3534,-1.3443,-1.3147,-1.2856,-1.2559,-1.217,-3.3303,-3.3064,-3.2215,-3.1757,-3.1588,-3.1169,-3.0999,-3.0986,-3.0999,-3.0986,-3.0911,-3.0773,-3.0216,-2.9586,-2.9131,-2.8486,-2.7592,-2.7126,-2.6644,-2.6229,-2.5979,-2.5895,-2.5895,-2.5895,-2.5895,-2.5895,-2.5895,-2.5895,-2.5895,-2.5906,-2.5906,-2.5822,-2.5475,-2.5041,-2.4519,-2.3734,-2.294,-2.2059,-2.1347,-2.0997,-2.0916,-2.0744,-2.0564,-2.0382,-2.011,-1.9837,-1.9754,-1.9571,-1.9387,-1.9196,-1.9104,-1.9012,-1.8743,-1.8473,-1.7908,-1.7145,-1.648,-1.5818,-1.5343,-1.4873,-1.449,-1.4394,-1.4298,-1.4298,-1.4298,-1.4298,-1.4298,-1.4298,-1.4298,-1.4298,-1.4298,-1.4298,-1.4394,-1.4496,-1.4592,-1.4694,-1.479,-1.4688,-1.4592,-1.449,-1.4394,-1.4394,-1.4298,-1.4298,-1.4298,-1.4298,-1.4298,-1.4298,-1.4298,-1.4298,-1.4298,-1.4298,-1.4298,-1.4298,-1.4298,-1.4298,-1.4298,-1.4202,-1.4202,-1.401,-1.3919,-1.3727,-1.3534,-1.334,-1.3147,-1.2856,-1.2657,-1.2759,-1.2861,-1.2759,-1.2662,-1.2268,-1.1975,-1.1683,-1.1287,-3.1954,-3.1954,-3.1785,-3.1522,-3.1078,-3.1013,-3.0986,-3.0986,-3.0986,-3.0986,-3.0986,-3.0773,-3.0394,-2.9779,-2.9287,-2.8633,-2.781,-2.7196,-2.6715,-2.6313,-2.5979,-2.5895,-2.5895,-2.5895,-2.5895,-2.5895,-2.5895,-2.5895,-2.5895,-2.5812,-2.5738,-2.5559,-2.5211,-2.4423,-2.3637,-2.2843,-2.2148,-2.1356,-2.0817,-2.0736,-2.0654,-2.0473,-2.0201,-2.0019,-1.9928,-1.9654,-1.9288,-1.9196,-1.9104,-1.8912,-1.892,-1.8743,-1.8566,-1.8094,-1.7434,-1.6763,-1.6008,-1.535,-1.4873,-1.4586,-1.4394,-1.4298,-1.4298,-1.4298,-1.4298,-1.4298,-1.4298,-1.4298,-1.4298,-1.4298,-1.4298,-1.4298,-1.4394,-1.4394,-1.44,-1.4496,-1.4496,-1.4496,-1.4394,-1.4298,-1.4304,-1.4208,-1.4112,-1.4016,-1.4202,-1.4298,-1.4298,-1.4298,-1.4298,-1.4298,-1.4298,-1.4298,-1.4298,-1.4298,-1.4298,-1.4202,-1.4112,-1.3919,-1.3823,-1.3534,-1.3244,-1.3147,-1.2856,-1.2565,-1.2273,-1.198,-1.1785,-1.1683,-1.1683,-1.1878,-1.178,-1.1389,-1.0895,-1.0502,-1.001,-3.1627,-3.1313,-3.1313,-3.1196,-3.0986,-3.0986,-3.0986,-3.0986,-3.0986,-3.0986,-3.0986,-3.0911,-3.0609,-3.0152,-2.9651,-2.9015,-2.8235,-2.7429,-2.6869,-2.6479,-2.6157,-2.5979,-2.5895,-2.5895,-2.5895,-2.5895,-2.5895,-2.5895,-2.5895,-2.5812,-2.5475,-2.5211,-2.4765,-2.3983,-2.3105,-2.2059,-2.1266,-2.0916,-2.0555,-2.0382,-2.0201,-2.011,-1.9936,-1.9754,-1.9563,-1.9379,-1.9188,-1.9004,-1.8912,-1.8819,-1.8827,-1.8658,-1.8388,-1.7815,-1.7052,-1.6386,-1.5635,-1.507,-1.4586,-1.4394,-1.4298,-1.4298,-1.4298,-1.4298,-1.4298,-1.4298,-1.4298,-1.4298,-1.4298,-1.4298,-1.4298,-1.4298,-1.4298,-1.4298,-1.4298,-1.4298,-1.4304,-1.4208,-1.4112,-1.4016,-1.3919,-1.3829,-1.3732,-1.363,-1.4016,-1.4202,-1.4298,-1.4298,-1.4298,-1.4298,-1.4298,-1.4304,-1.4304,-1.4208,-1.4202,-1.4112,-1.3925,-1.3636,-1.3346,-1.2953,-1.2565,-1.2273,-1.1975,-1.1785,-1.1394,-1.1002,-1.0708,-1.0511,-1.0605,-1.0895,-1.0703,-1.0212,-0.9817,-0.9422,-0.9027,-3.1352,-3.0999,-3.0986,-3.0986,-3.0986,-3.0986,-3.0986,-3.0986,-3.0986,-3.0986,-3.0986,-3.0911,-3.0748,-3.0368,-2.9729,-2.9106,-2.8247,-2.7522,-2.6951,-2.6467,-2.6074,-2.5895,-2.5895,-2.5895,-2.5895,-2.5895,-2.5895,-2.5895,-2.5895,-2.5644,-2.5211,-2.4775,-2.4241,-2.3454,-2.258,-2.1356,-2.0564,-2.0473,-2.0292,-2.0027,-1.9845,-1.9845,-1.9662,-1.9479,-1.9288,-1.9196,-1.9104,-1.892,-1.8827,-1.8735,-1.8735,-1.8566,-1.8094,-1.7527,-1.6763,-1.6008,-1.535,-1.4783,-1.449,-1.4298,-1.4298,-1.4298,-1.4298,-1.4298,-1.4298,-1.4298,-1.4298,-1.4298,-1.4298,-1.4298,-1.4298,-1.4298,-1.4298,-1.4298,-1.4298,-1.4298,-1.4208,-1.4118,-1.3829,-1.3636,-1.3539,-1.3346,-1.3147,-1.305,-1.3437,-1.3823,-1.4112,-1.4208,-1.4298,-1.4298,-1.4298,-1.4304,-1.4208,-1.4208,-1.4112,-1.3823,-1.3443,-1.305,-1.2759,-1.2268,-1.1878,-1.1487,-1.0998,-1.0609,-1.0216,-0.992,-0.9723,-0.962,-0.962,-0.9813,-0.962,-0.9422,-0.9126,-0.8829,-0.873,-3.1026,-3.0986,-3.0986,-3.0986,-3.0986,-3.0986,-3.0986,-3.0986,-3.0986,-3.0986,-3.0986,-3.0849,-3.0609,-3.0292,-2.9586,-2.8882,-2.8179,-2.7371,-2.6727,-2.6313,-2.6074,-2.5906,-2.5895,-2.5895,-2.5895,-2.5895,-2.5906,-2.5906,-2.5895,-2.5559,-2.5031,-2.4166,-2.3454,-2.2658,-2.2059,-2.0907,-2.0201,-2.0019,-1.9936,-1.9845,-1.9662,-1.9579,-1.9479,-1.9288,-1.9196,-1.9012,-1.892,-1.8835,-1.8743,-1.8643,-1.8465,-1.8102,-1.7628,-1.6958,-1.6197,-1.5534,-1.4968,-1.4586,-1.4292,-1.4298,-1.4298,-1.4298,-1.4298,-1.4298,-1.4298,-1.4298,-1.4298,-1.4298,-1.4298,-1.4298,-1.4298,-1.4298,-1.4298,-1.4298,-1.4298,-1.4112,-1.4022,-1.3732,-1.3443,-1.3055,-1.2861,-1.2764,-1.2565,-1.2467,-1.2953,-1.3346,-1.3732,-1.4022,-1.4112,-1.4112,-1.4112,-1.3913,-1.3823,-1.3727,-1.3534,-1.3244,-1.2953,-1.2565,-1.2073,-1.1389,-1.09,-1.0507,-1.0019,-0.9529,-0.9331,-0.9229,-0.8931,-0.863,-0.8829,-0.9027,-0.8924,-0.8726,-0.8531,-0.8435,-0.8333,-3.1339,-3.0986,-3.0986,-3.0986,-3.0986,-3.0986,-3.0986,-3.0986,-3.0986,-3.0986,-3.0986,-3.0773,-3.0609,-3.0216,-2.9521,-2.8736,-2.8099,-2.7301,-2.6644,-2.624,-2.599,-2.5906,-2.5895,-2.5895,-2.5895,-2.5895,-2.5906,-2.5822,-2.5728,-2.538,-2.47,-2.3831,-2.2492,-2.1526,-2.1087,-2.0382,-1.9928,-1.9936,-1.9762,-1.9579,-1.9379,-1.9296,-1.9204,-1.9012,-1.892,-1.892,-1.8735,-1.8651,-1.8558,-1.8265,-1.8001,-1.7527,-1.6965,-1.6298,-1.5629,-1.5159,-1.479,-1.4394,-1.4298,-1.4298,-1.4298,-1.4298,-1.4298,-1.4298,-1.4298,-1.4298,-1.4298,-1.4298,-1.4298,-1.4298,-1.4298,-1.4298,-1.4298,-1.4298,-1.4208,-1.3925,-1.3636,-1.3346,-1.2958,-1.2467,-1.2175,-1.1878,-1.1585,-1.1389,-1.1683,-1.2268,-1.2759,-1.334,-1.363,-1.363,-1.363,-1.3437,-1.334,-1.3147,-1.2953,-1.2559,-1.217,-1.1683,-1.1096,-1.0413,-1.0019,-0.9624,-0.9324,-0.9027,-0.8832,-0.8634,-0.8535,-0.8336,-0.8237,-0.8233,-0.8333,-0.8432,-0.8233,-0.8137,-0.8137,-3.1326,-3.0999,-3.0986,-3.0986,-3.0986,-3.0986,-3.0986,-3.0986,-3.0986,-3.0986,-3.0911,-3.0685,-3.0457,-3.0062,-2.9365,-2.8578,-2.7926,-2.7126,-2.6573,-2.6157,-2.599,-2.5906,-2.5895,-2.5895,-2.5895,-2.5895,-2.5895,-2.5728,-2.5464,-2.5031,-2.4079,-2.2765,-2.1526,-2.0826,-2.0292,-1.9936,-1.9754,-1.9662,-1.9479,-1.9296,-1.9096,-1.9004,-1.9012,-1.8827,-1.8827,-1.8827,-1.8735,-1.855,-1.828,-1.7893,-1.7426,-1.6857,-1.6298,-1.573,-1.5159,-1.4879,-1.4592,-1.4298,-1.4298,-1.4298,-1.4298,-1.4298,-1.4298,-1.4298,-1.4298,-1.4298,-1.4298,-1.4298,-1.4298,-1.4298,-1.4298,-1.4298,-1.4298,-1.4202,-1.4016,-1.3829,-1.3249,-1.2861,-1.2273,-1.1785,-1.1194,-1.09,-1.06,-1.0408,-1.0413,-1.0998,-1.1683,-1.2268,-1.2953,-1.305,-1.305,-1.2851,-1.2657,-1.2365,-1.2073,-1.1683,-1.1292,-1.0806,-1.0314,-0.9624,-0.9324,-0.9027,-0.8726,-0.8528,-0.8432,-0.8336,-0.8237,-0.8137,-0.8137,-0.8038,-0.8038,-0.8038,-0.8038,-0.8038,-0.8038,-3.096,-3.0934,-3.0934,-3.0882,-3.0908,-3.0869,-3.0934,-3.0986,-3.0986,-3.0986,-3.0986,-3.0596,-3.0305,-2.9921,-2.8986,-2.8179,-2.7603,-2.688,-2.6396,-2.6063,-2.5906,-2.5895,-2.5895,-2.5895,-2.5895,-2.5895,-2.5812,-2.5549,-2.52,-2.4337,-2.3115,-2.1793,-2.0826,-2.0201,-1.9754,-1.9571,-1.9479,-1.9379,-1.9196,-1.9104,-1.8912,-1.8827,-1.8827,-1.8827,-1.8827,-1.8735,-1.8643,-1.8272,-1.7893,-1.7419,-1.6951,-1.6298,-1.5832,-1.5356,-1.4975,-1.4688,-1.4394,-1.4298,-1.4298,-1.4298,-1.4298,-1.4298,-1.4298,-1.4298,-1.4298,-1.4298,-1.4298,-1.4298,-1.4298,-1.4298,-1.4298,-1.4298,-1.4298,-1.4208,-1.4022,-1.3539,-1.2958,-1.237,-1.1683,-1.0998,-1.031,-0.9916,-0.9517,-0.9324,-0.9525,-0.9916,-1.0502,-1.0998,-1.1585,-1.2268,-1.217,-1.2073,-1.178,-1.1585,-1.1194,-1.0703,-1.0404,-1.0015,-0.962,-0.9031,-0.873,-0.8432,-0.8333,-0.8233,-0.8137,-0.8038,-0.8038,-0.8038,-0.8038,-0.8038,-0.8038,-0.8038,-0.8038,-0.8038,-0.8038,-3.0516,-2.9784,-2.9771,-2.9784,-2.9836,-3.0202,-3.0607,-3.0947,-3.0986,-3.0911,-3.0773,-3.052,-3.0228,-2.9792,-2.8907,-2.8179,-2.7441,-2.6869,-2.6385,-2.6063,-2.5895,-2.5895,-2.5895,-2.5895,-2.5895,-2.5822,-2.5728,-2.5295,-2.4509,-2.3647,-2.2334,-2.0907,-2.0292,-1.9745,-1.9379,-1.9104,-1.9104,-1.9104,-1.9004,-1.892,-1.8827,-1.8827,-1.8827,-1.8827,-1.8735,-1.8735,-1.8465,-1.7893,-1.7419,-1.6857,-1.6021,-1.5363,-1.507,-1.4688,-1.4496,-1.449,-1.4298,-1.4298,-1.4298,-1.4298,-1.4298,-1.4298,-1.4298,-1.4298,-1.4298,-1.4298,-1.4298,-1.4298,-1.4298,-1.4298,-1.4298,-1.4298,-1.4298,-1.4208,-1.3925,-1.3443,-1.2861,-1.2078,-1.1389,-1.0507,-0.9821,-0.9225,-0.8825,-0.863,-0.8928,-0.9126,-0.9422,-0.9817,-1.0314,-1.0998,-1.1292,-1.1096,-1.0895,-1.06,-1.0113,-0.9723,-0.9422,-0.9126,-0.8829,-0.8634,-0.8432,-0.8333,-0.8137,-0.8038,-0.8038,-0.8038,-0.8038,-0.8038,-0.8038,-0.8038,-0.8038,-0.8038,-0.8038,-0.8038,-0.8038,-2.9915,-2.9314,-2.9274,-2.9274,-2.934,-2.9653,-3.0006,-3.0272,-3.0764,-3.0911,-3.0698,-3.0368,-2.9998,-2.9378,-2.8566,-2.7846,-2.7208,-2.6633,-2.6229,-2.5979,-2.5895,-2.5895,-2.5895,-2.5906,-2.5812,-2.5738,-2.5475,-2.5031,-2.3983,-2.2696,-2.1383,-2.0555,-2.0027,-1.9563,-1.9279,-1.9012,-1.892,-1.892,-1.892,-1.8827,-1.8827,-1.8827,-1.8827,-1.8735,-1.8735,-1.8558,-1.828,-1.752,-1.6864,-1.6298,-1.5363,-1.479,-1.4592,-1.4394,-1.4298,-1.4298,-1.4298,-1.4298,-1.4298,-1.4298,-1.4298,-1.4298,-1.4298,-1.4298,-1.4298,-1.4298,-1.4298,-1.4298,-1.4298,-1.4298,-1.4298,-1.4298,-1.4298,-1.4298,-1.3823,-1.3346,-1.2662,-1.1883,-1.1096,-1.0216,-0.9521,-0.8924,-0.8528,-0.8333,-0.8333,-0.8627,-0.8825,-0.9027,-0.9426,-0.992,-1.0117,-1.0117,-0.9916,-0.9616,-0.9229,-0.8935,-0.8832,-0.873,-0.8531,-0.8336,-0.8233,-0.8137,-0.8038,-0.8038,-0.8038,-0.8038,-0.8038,-0.8038,-0.8038,-0.8038,-0.8038,-0.8038,-0.8038,-0.8038,-0.8038,-2.9287,-2.9274,-2.9274,-2.9274,-2.9274,-2.9314,-2.9243,-2.9152,-3.0186,-3.0644,-3.0417,-3.0126,-2.9689,-2.8973,-2.8155,-2.751,-2.6951,-2.6479,-2.6157,-2.5895,-2.5895,-2.5895,-2.5906,-2.5906,-2.5728,-2.5559,-2.5126,-2.4423,-2.3387,-2.2176,-2.1024,-2.0292,-1.9936,-1.9571,-1.9188,-1.9004,-1.892,-1.8827,-1.8827,-1.8827,-1.8827,-1.8827,-1.8827,-1.8735,-1.8558,-1.8288,-1.7807,-1.7145,-1.6298,-1.573,-1.5166,-1.4592,-1.44,-1.4298,-1.4298,-1.4298,-1.4298,-1.4298,-1.4298,-1.4298,-1.4298,-1.4298,-1.4298,-1.4298,-1.4298,-1.4298,-1.4298,-1.4298,-1.4298,-1.4298,-1.4298,-1.4298,-1.4298,-1.4208,-1.3919,-1.3443,-1.2953,-1.2078,-1.1096,-1.0216,-0.9525,-0.8928,-0.8428,-0.8333,-0.8237,-0.8333,-0.8432,-0.8531,-0.873,-0.9031,-0.9133,-0.9232,-0.913,-0.9023,-0.873,-0.8535,-0.8435,-0.8336,-0.8137,-0.8038,-0.8137,-0.8038,-0.8038,-0.8038,-0.8038,-0.8038,-0.8038,-0.8038,-0.8038,-0.8038,-0.8038,-0.8038,-0.8038,-0.8038,-0.8038,-2.9274,-2.9274,-2.9274,-2.9274,-2.9274,-2.9119,-2.9035,-2.8977,-2.8993,-2.9183,-2.929,-2.9426,-2.9069,-2.8275,-2.7752,-2.7116,-2.6565,-2.629,-2.6074,-2.599,-2.5895,-2.5895,-2.5906,-2.5738,-2.5549,-2.52,-2.4594,-2.3637,-2.2501,-2.1454,-2.0744,-2.011,-1.9845,-1.9654,-1.9288,-1.9104,-1.9004,-1.8827,-1.8827,-1.8827,-1.8827,-1.8827,-1.8827,-1.8643,-1.8465,-1.7994,-1.7426,-1.6581,-1.5832,-1.5267,-1.4688,-1.44,-1.4298,-1.4298,-1.4298,-1.4298,-1.4298,-1.4298,-1.4298,-1.4298,-1.4298,-1.4298,-1.4298,-1.4298,-1.4298,-1.4298,-1.4298,-1.4298,-1.4298,-1.4298,-1.4298,-1.4298,-1.4298,-1.4112,-1.4022,-1.363,-1.334,-1.2268,-1.1194,-1.0408,-0.9624,-0.9027,-0.863,-0.8333,-0.8237,-0.8137,-0.8137,-0.8137,-0.8237,-0.8435,-0.8535,-0.8634,-0.863,-0.8531,-0.8336,-0.8237,-0.8237,-0.8137,-0.8038,-0.8038,-0.8038,-0.8038,-0.8038,-0.8038,-0.8038,-0.8038,-0.8038,-0.8038,-0.8038,-0.8038,-0.8038,-0.8038,-0.8038,-0.8038,-0.8038,-2.8964,-2.8964,-2.8964,-2.8964,-2.8925,-2.8634,-2.8376,-2.8234,-2.7936,-2.7653,-2.7631,-2.8047,-2.8021,-2.7325,-2.6978,-2.6644,-2.6117,-2.6069,-2.5957,-2.5906,-2.5895,-2.5895,-2.5822,-2.5654,-2.5295,-2.4861,-2.381,-2.2677,-2.1624,-2.1177,-2.0645,-2.011,-1.9928,-1.9745,-1.9379,-1.9288,-1.9104,-1.8835,-1.8827,-1.8827,-1.8827,-1.8827,-1.8743,-1.8558,-1.8187,-1.7621,-1.6857,-1.6109,-1.5445,-1.4975,-1.4496,-1.44,-1.4298,-1.4298,-1.4298,-1.4298,-1.4298,-1.4298,-1.4298,-1.4298,-1.4298,-1.4298,-1.4298,-1.4298,-1.4298,-1.4298,-1.4298,-1.4298,-1.4298,-1.4298,-1.4298,-1.4298,-1.4298,-1.4208,-1.3925,-1.3636,-1.3152,-1.2273,-1.1389,-1.0605,-0.9916,-0.9229,-0.8829,-0.8432,-0.8333,-0.8137,-0.8038,-0.8038,-0.8038,-0.8038,-0.8137,-0.8137,-0.8233,-0.8233,-0.8137,-0.8137,-0.8038,-0.8038,-0.8038,-0.8038,-0.8038,-0.8038,-0.8038,-0.8038,-0.8038,-0.8038,-0.8038,-0.8038,-0.8038,-0.8038,-0.8038,-0.8038,-0.8038,-0.8038,-0.8038,-2.8579,-2.8579,-2.8579,-2.8528,-2.8341,-2.7895,-2.743,-2.711,-2.6801,-2.6274,-2.585,-2.6526,-2.6344,-2.614,-2.5847,-2.5665,-2.5588,-2.5711,-2.5721,-2.5895,-2.5895,-2.5895,-2.5738,-2.557,-2.4946,-2.4079,-2.3047,-2.2255,-2.1383,-2.1096,-2.0736,-2.0382,-2.011,-1.9845,-1.9579,-1.9387,-1.9104,-1.892,-1.8827,-1.8827,-1.8827,-1.8827,-1.8658,-1.8381,-1.7908,-1.7246,-1.648,-1.5818,-1.5153,-1.4777,-1.449,-1.4394,-1.4298,-1.4298,-1.4298,-1.4298,-1.4298,-1.4298,-1.4298,-1.4298,-1.4298,-1.4298,-1.4298,-1.4298,-1.4298,-1.4298,-1.4298,-1.4298,-1.4298,-1.4298,-1.4298,-1.4298,-1.4298,-1.4304,-1.4022,-1.3642,-1.3055,-1.237,-1.1683,-1.09,-1.0212,-0.9525,-0.8928,-0.8627,-0.8333,-0.8137,-0.8038,-0.8038,-0.8038,-0.8038,-0.8038,-0.8038,-0.8137,-0.8038,-0.8038,-0.8038,-0.8038,-0.8038,-0.8038,-0.8038,-0.8038,-0.8038,-0.8038,-0.8038,-0.8038,-0.8038,-0.8038,-0.8038,-0.8038,-0.8038,-0.8038,-0.8038,-0.8038,-0.8038,-0.8038,-2.8388,-2.8315,-2.8243,-2.8003,-2.754,-2.708,-2.6652,-2.6095,-2.548,-2.4956,-2.4833,-2.4549,-2.4705,-2.5294,-2.5139,-2.5013,-2.5128,-2.5273,-2.5622,-2.5852,-2.579,-2.5717,-2.5475,-2.5041,-2.4262,-2.3309,-2.253,-2.182,-2.1284,-2.1006,-2.0736,-2.0292,-2.0292,-2.0027,-1.9679,-1.9487,-1.9304,-1.902,-1.8827,-1.8827,-1.8827,-1.8735,-1.8651,-1.828,-1.7621,-1.6951,-1.6197,-1.535,-1.4777,-1.449,-1.4292,-1.4298,-1.4298,-1.4298,-1.4298,-1.4298,-1.4298,-1.4298,-1.4298,-1.4298,-1.4298,-1.4298,-1.4298,-1.4298,-1.4298,-1.4298,-1.4298,-1.4298,-1.4298,-1.4298,-1.4298,-1.4298,-1.4202,-1.4208,-1.4016,-1.3732,-1.3244,-1.2662,-1.2073,-1.1292,-1.0413,-0.962,-0.8825,-0.8627,-0.8432,-0.8237,-0.8038,-0.8038,-0.8038,-0.8038,-0.8038,-0.8038,-0.8038,-0.8038,-0.8038,-0.8038,-0.8038,-0.8038,-0.8038,-0.8038,-0.8038,-0.8038,-0.8038,-0.8038,-0.8038,-0.8038,-0.8038,-0.8038,-0.8038,-0.8038,-0.8038,-0.8038,-0.8038,-0.8038,-0.8038]},{"header":{"parameterUnit":"m.s-1","parameterCategory":1,"la1":31.0,"la2":29.5877,"lo1":-88.7671,"lo2":-86.6584,"dy":0.0162,"dx":0.0185,"nx":115,"ny":88,"refTime":"2023-08-07T00:00:00:Z","depth":0,"parameterNumber":3,"parameterNumberName":"V-component_of_WINDS"},"data":[0.0,0.0,0.0,0.0,0.0,0.0,0.0,0.0,0.0,0.0,0.0,0.0,0.0,0.0,0.0,0.0,0.0,0.0,0.0,0.0,0.0,0.0,0.0,0.0,0.0,0.0,0.0,0.0,0.0,0.0,0.0,0.0,0.0,0.0,0.0,0.0,0.0,0.0,0.0,0.0,0.0,0.0,0.0,0.0,0.0,0.0,0.0,0.0,0.0,0.0,0.0,0.0,0.0,0.0,0.0,0.0,0.0,0.0,0.0,0.0,0.0,0.0,0.0,0.0,0.0,0.0,0.0,0.0,0.0,0.0,0.0,0.0,0.0,0.0,0.0,0.0,0.0,0.0,0.0,0.0,0.0,0.0,0.0,0.0,0.0,0.0,0.0,0.0,0.0,0.0,0.0,0.0,0.0,0.0,0.0,0.0,0.0,0.0,0.0,0.0,0.0,0.0,0.0,0.0,0.0,0.0,0.0,0.0,0.0,0.0,0.0,0.0,0.0,0.0,0.0,0.0,0.0,0.0,0.0,0.0,0.0,0.0,0.0,0.0,0.0,0.0,0.0,0.0,0.0,0.0,0.0,0.0,0.0,0.0,0.0,0.0,0.0,0.0,0.0,0.0,0.0,0.0,0.0,0.0,0.0,0.0,0.0,0.0,0.0,0.0,0.0,0.0,0.0,0.0,0.0,0.0,0.0,0.0,0.0,0.0,0.0,0.0,0.0,0.0,0.0,0.0,0.0,0.0,0.0,0.0,0.0,0.0,0.0,0.0,0.0,0.0,0.0,0.0,0.0,0.0,0.0,0.0,0.0,0.0,0.0,0.0,0.0,0.0,0.0,0.0,0.0,0.0,0.0,0.0,0.0,0.0,0.0,0.0,0.0,0.0,0.0,0.0,0.0,0.0,0.0,0.0,0.0,0.0,0.0,0.0,0.0,0.0,0.0,0.0,0.0,0.0,0.0,0.0,0.0,0.0,0.0,0.0,0.0,0.0,0.0,0.0,0.0,0.0,0.0,0.0,0.0,0.0,0.0,0.0,0.0,0.0,0.0,0.0,0.0,0.0,0.0,0.0,0.0,0.0,0.0,0.0,0.0,0.0,0.0,0.0,0.0,0.0,0.0,0.0,0.0,0.0,0.0,0.0,0.0,0.0,0.0,0.0,0.0,0.0,0.0,0.0,0.0,0.0,0.0,0.0,0.0,0.0,0.0,0.0,0.0,0.0,0.0,0.0,0.0,0.0,0.0,0.0,0.0,0.0,0.0,0.0,0.0,0.0,0.0,0.0,0.0,0.0,0.0,0.0,0.0,0.0,0.0,0.0,0.0,0.0,0.0,0.0,0.0,0.0,0.0,0.0,0.0,0.0,0.0,0.0,0.0,0.0,0.0,0.0,0.0,0.0,0.0,0.0,0.0,0.0,0.0,0.0,0.0,0.0,0.0,0.0,0.0,0.0,0.0,0.0,0.0,0.0,0.0,0.0,0.0,0.0,0.0,0.0,0.0,0.0,0.0,0.0,0.0,0.0,0.0,0.0,0.0,0.0,0.0,0.0,0.0,0.0,0.0,0.0,0.0,0.0,0.0,0.0,0.0,0.0,0.0,0.0,0.0,0.0,0.0,0.0,0.0,0.0,0.0,0.0,0.0,0.0,0.0,0.0,0.0,0.0,0.0,0.0,0.0,0.0,0.0,0.0,0.0,0.0,0.0,0.0,0.0,0.0,0.0,0.0,0.0,0.0,0.0,0.0,0.0,0.0,0.0,0.0,0.0,0.0,0.0,0.0,0.0,0.0,0.0,0.0,0.0,0.0,0.0,0.0,0.0,0.0,0.0,0.0,0.0,0.0,0.0,0.0,0.0,0.0,0.0,0.0,0.0,0.0,0.0,0.0,0.0,0.0,0.0,0.0,0.0,0.0,0.0,0.0,0.0,0.0,0.0,0.0,0.0,0.0,0.0,0.0,0.0,0.0,0.0,0.0,0.0,0.0,0.0,0.0,0.0,0.0,0.0,0.0,0.0,0.0,0.0,0.0,0.0,0.0,0.0,0.0,0.0,0.0,0.0,0.0,0.0,0.0,0.0,0.0,0.0,0.0,0.0,0.0,0.0,0.0,0.0,0.0,0.0,0.0,0.0,0.0,0.0,0.0,0.0,0.0,0.0,0.0,0.0,0.0,0.0,0.0,0.0,0.0,0.0,0.0,0.0,0.0,0.0,0.0,0.0,0.0,0.0,0.0,0.0,0.0,0.0,0.0,0.0,0.0,0.0,0.0,0.0,0.0,0.0,0.0,0.0,0.0,0.0,0.0,0.0,0.0,0.0,0.0,0.0,0.0,0.0,0.0,0.0,0.0,0.0,0.0,0.0,0.0,0.0,0.0,0.0,0.0,0.0,0.0,0.0,0.0,0.0,0.0,0.0,0.0,0.0,0.0,0.0,0.0,0.0,0.0,0.0,0.0,0.0,0.0,0.0,0.0,0.0,0.0,0.0,0.0,0.0,0.0,0.0,0.0,0.0,0.0,0.0,0.0,0.0,0.0,0.0,0.0,0.0,0.0,0.0,0.0,0.0,0.0,0.0,0.0,0.0,0.0,0.0,0.0,0.0,0.0,0.0,0.0,0.0,0.0,0.0,0.0,0.0,0.0,0.0,0.0,0.0,0.0,0.0,0.0,0.0,0.0,0.0,0.0,0.0,0.0,0.0,0.0,0.0,0.0,0.0,0.0,0.0,0.0,0.0,0.0,0.0,0.0,0.0,0.0,0.0,0.0,0.0,0.0,0.0,0.0,0.0,0.0,0.0,0.0,0.0,0.0,0.0,0.0,0.0,0.0,0.0,0.0,0.0,0.0,0.0,0.0,0.0,0.0,0.0,0.0,0.0,0.0,0.0,0.0,0.0,0.0,0.0,0.0,0.0,0.0,0.0,0.0,0.0,0.0,0.0,0.0,0.0,0.0,0.0,0.0,0.0,0.0,0.0,0.0,0.0,0.0,0.0,0.0,0.0,0.0,0.0,0.0,0.0,0.0,0.0,0.0,0.0,0.0,0.0,0.0,0.0,0.0,0.0,0.0,0.0,0.0,0.0,0.0,0.0,0.0,0.0,0.0,0.0,0.0,0.0,0.0,0.0,0.0,0.0,0.0,0.0,0.0,0.0,0.0,0.0,0.0,0.0,0.0,0.0,0.0,0.0,0.0,0.0,0.0,0.0,0.0,0.0,0.0,0.0,0.0,0.0,0.0,0.0,0.0,0.0,0.0,0.0,0.0,0.0,0.0,0.0,0.0,0.0,0.0,0.0,0.0,0.0,0.0,0.0,0.0,0.0,0.0,0.0,0.0,0.0,0.0,0.0,0.0,0.0,0.0,0.0,0.0,0.0,0.0,0.0,0.0,0.0,0.0,0.0,0.0,0.0,0.0,0.0,0.0,0.0,0.0,0.0,0.0,0.0,0.0,0.0,0.0,0.0,0.0,0.0,0.0,0.0,0.0,0.0,0.0,0.0,0.0,0.0,0.0,0.0,0.0,0.0,0.0,0.0,0.0,0.0,0.0,0.0,0.0,0.0,0.0,0.0,0.0,0.0,0.0,0.0,0.0,0.0,0.0,0.0,0.0,0.0,0.0,0.0,0.0,0.0,0.0,0.0,0.0,0.0,0.0,0.0,0.0,0.0,0.0,0.0,0.0,0.0,0.0,0.0,0.0,0.0,0.0,0.0,0.0,0.0,0.0,0.0,0.0,0.0,0.0,0.0,0.0,0.0,0.0,0.0,0.0,0.0,0.0,0.0,0.0,0.0,0.0,0.0,0.0,0.0,0.0,0.0,0.0,0.0,0.0,0.0,0.0,0.0,0.0,0.0,0.0,0.0,0.0,0.0,0.0,0.0,0.0,0.0,0.0,0.0,0.0,0.0,0.0,0.0,0.0,0.0,0.0,0.0,0.0,0.0,0.0,0.0,0.0,0.0,0.0,0.0,0.0,0.0,0.0,0.0,0.0,0.0,0.0,0.0,0.0,0.0,0.0,0.0,0.0,0.0,0.0,0.0,0.0,0.0,0.0,0.0,0.0,0.0,0.0,0.0,0.0,0.0,0.0,0.0,0.0,0.0,0.0,0.0,0.0,0.0,0.0,0.0,0.0,0.0,0.0,0.0,0.0,0.0,0.0,0.0,0.0,0.0,0.0,0.0,0.0,0.0,0.0,0.0,0.0,0.0,0.0,0.0,0.0,0.0,0.0,0.0,0.0,0.0,0.0,0.0,0.0,0.0,0.0,0.0,0.0,0.0,0.0,-3.1834,0.0,0.0,0.0,0.0,0.0,0.0,0.0,0.0,0.0,0.0,0.0,0.0,0.0,0.0,0.0,0.0,0.0,0.0,0.0,0.0,0.0,0.0,0.0,0.0,0.0,0.0,0.0,0.0,0.0,0.0,0.0,0.0,0.0,0.0,0.0,0.0,0.0,0.0,0.0,0.0,0.0,0.0,0.0,0.0,0.0,0.0,0.0,0.0,0.0,0.0,0.0,0.0,0.0,0.0,0.0,0.0,0.0,0.0,0.0,0.0,0.0,0.0,0.0,0.0,0.0,0.0,0.0,0.0,0.0,0.0,0.0,0.0,0.0,0.0,0.0,0.0,0.0,0.0,0.0,0.0,0.0,0.0,0.0,0.0,0.0,0.0,0.0,0.0,0.0,0.0,0.0,0.0,0.0,0.0,0.0,0.0,0.0,0.0,0.0,0.0,0.0,0.0,0.0,0.0,0.0,0.0,0.0,0.0,0.0,0.0,-3.4147,-3.3894,-3.3482,-3.2697,-3.154,0.0,0.0,0.0,0.0,0.0,0.0,0.0,0.0,0.0,0.0,0.0,0.0,0.0,0.0,0.0,0.0,0.0,0.0,0.0,0.0,0.0,0.0,0.0,0.0,0.0,0.0,0.0,0.0,0.0,0.0,0.0,0.0,0.0,0.0,0.0,0.0,0.0,0.0,0.0,0.0,0.0,0.0,0.0,0.0,0.0,0.0,0.0,0.0,0.0,0.0,0.0,0.0,0.0,0.0,0.0,0.0,0.0,0.0,0.0,0.0,0.0,0.0,0.0,0.0,0.0,0.0,0.0,0.0,0.0,0.0,0.0,0.0,0.0,0.0,0.0,0.0,0.0,0.0,0.0,0.0,0.0,0.0,0.0,0.0,0.0,0.0,0.0,0.0,0.0,0.0,0.0,0.0,0.0,0.0,0.0,0.0,0.0,0.0,0.0,0.0,0.0,0.0,0.0,0.0,0.0,0.0,0.0,0.0,0.0,0.0,0.0,0.0,-3.33,-3.2401,-3.085,0.0,0.0,0.0,0.0,0.0,0.0,0.0,0.0,0.0,0.0,0.0,0.0,0.0,0.0,0.0,0.0,0.0,0.0,0.0,0.0,0.0,0.0,0.0,0.0,0.0,0.0,0.0,0.0,0.0,0.0,0.0,0.0,0.0,0.0,0.0,0.0,0.0,0.0,0.0,0.0,0.0,0.0,0.0,0.0,0.0,0.0,0.0,0.0,0.0,0.0,0.0,0.0,0.0,0.0,0.0,0.0,0.0,0.0,0.0,0.0,0.0,0.0,0.0,0.0,0.0,0.0,0.0,0.0,0.0,0.0,0.0,0.0,0.0,0.0,0.0,0.0,0.0,0.0,0.0,0.0,0.0,0.0,0.0,0.0,0.0,0.0,0.0,0.0,0.0,0.0,0.0,0.0,0.0,0.0,0.0,0.0,0.0,0.0,0.0,0.0,0.0,0.0,0.0,0.0,0.0,0.0,0.0,0.0,0.0,0.0,-3.3654,-3.281,-3.2513,0.0,-2.9795,0.0,0.0,0.0,0.0,0.0,0.0,0.0,0.0,0.0,0.0,0.0,0.0,0.0,0.0,0.0,0.0,0.0,0.0,0.0,0.0,0.0,0.0,0.0,0.0,0.0,0.0,0.0,0.0,0.0,0.0,0.0,0.0,0.0,0.0,0.0,0.0,0.0,0.0,0.0,0.0,0.0,0.0,0.0,0.0,0.0,0.0,0.0,0.0,0.0,0.0,0.0,0.0,0.0,0.0,0.0,0.0,0.0,0.0,0.0,0.0,0.0,0.0,0.0,0.0,0.0,0.0,0.0,0.0,0.0,0.0,0.0,0.0,0.0,0.0,0.0,0.0,0.0,0.0,0.0,0.0,0.0,0.0,0.0,0.0,0.0,0.0,0.0,0.0,0.0,0.0,0.0,0.0,0.0,0.0,0.0,0.0,0.0,0.0,0.0,0.0,0.0,0.0,0.0,0.0,0.0,0.0,0.0,0.0,0.0,0.0,-3.352,-3.2742,-3.1746,-3.0555,0.0,0.0,0.0,0.0,0.0,0.0,0.0,0.0,0.0,0.0,0.0,0.0,0.0,0.0,0.0,0.0,0.0,0.0,0.0,0.0,0.0,0.0,0.0,0.0,0.0,0.0,0.0,0.0,0.0,0.0,0.0,0.0,0.0,0.0,0.0,0.0,0.0,0.0,0.0,0.0,0.0,0.0,0.0,0.0,0.0,0.0,0.0,0.0,0.0,0.0,0.0,0.0,0.0,0.0,0.0,0.0,0.0,0.0,0.0,0.0,0.0,0.0,0.0,0.0,0.0,0.0,0.0,0.0,0.0,0.0,0.0,0.0,0.0,0.0,0.0,0.0,0.0,0.0,0.0,0.0,0.0,0.0,0.0,0.0,0.0,0.0,0.0,0.0,0.0,0.0,0.0,0.0,0.0,0.0,0.0,0.0,0.0,0.0,0.0,0.0,0.0,0.0,0.0,0.0,0.0,0.0,0.0,0.0,0.0,0.0,-3.3897,-3.3269,-3.1981,-3.0767,-2.9481,-2.8216,0.0,0.0,0.0,0.0,0.0,0.0,0.0,0.0,0.0,0.0,0.0,0.0,0.0,0.0,0.0,0.0,0.0,0.0,0.0,0.0,0.0,0.0,0.0,0.0,0.0,0.0,0.0,0.0,0.0,0.0,0.0,0.0,0.0,0.0,0.0,0.0,0.0,0.0,0.0,0.0,0.0,0.0,0.0,0.0,0.0,0.0,0.0,0.0,0.0,0.0,0.0,0.0,0.0,0.0,0.0,0.0,0.0,0.0,0.0,0.0,0.0,0.0,0.0,0.0,0.0,0.0,0.0,0.0,0.0,0.0,0.0,0.0,0.0,0.0,0.0,0.0,0.0,0.0,0.0,0.0,0.0,0.0,0.0,0.0,0.0,0.0,0.0,0.0,0.0,0.0,0.0,0.0,0.0,0.0,0.0,0.0,0.0,0.0,0.0,0.0,0.0,0.0,0.0,0.0,0.0,0.0,0.0,0.0,-3.4197,-3.4028,-3.2675,-3.0295,-2.9595,-2.8633,0.0,0.0,0.0,0.0,0.0,0.0,0.0,0.0,0.0,0.0,0.0,0.0,0.0,0.0,0.0,0.0,0.0,0.0,0.0,0.0,0.0,0.0,0.0,0.0,0.0,0.0,0.0,0.0,0.0,0.0,0.0,0.0,0.0,0.0,0.0,0.0,0.0,0.0,0.0,0.0,0.0,0.0,0.0,0.0,0.0,0.0,0.0,0.0,0.0,0.0,0.0,0.0,0.0,0.0,0.0,0.0,0.0,0.0,0.0,0.0,0.0,0.0,0.0,0.0,0.0,0.0,0.0,0.0,0.0,0.0,0.0,0.0,0.0,0.0,0.0,0.0,0.0,0.0,0.0,0.0,0.0,0.0,0.0,0.0,0.0,0.0,0.0,0.0,0.0,0.0,0.0,0.0,0.0,0.0,0.0,0.0,0.0,0.0,0.0,0.0,0.0,0.0,0.0,0.0,0.0,0.0,0.0,0.0,0.0,-3.3909,-3.3196,-3.1995,-3.0161,-2.935,-2.8251,0.0,0.0,0.0,0.0,0.0,0.0,0.0,0.0,0.0,0.0,0.0,0.0,0.0,0.0,0.0,0.0,0.0,0.0,0.0,0.0,0.0,0.0,0.0,0.0,0.0,0.0,0.0,0.0,0.0,0.0,0.0,0.0,0.0,0.0,0.0,0.0,0.0,0.0,0.0,0.0,0.0,0.0,0.0,0.0,0.0,0.0,0.0,0.0,0.0,0.0,0.0,0.0,0.0,0.0,0.0,0.0,0.0,0.0,0.0,0.0,0.0,0.0,0.0,0.0,0.0,0.0,0.0,0.0,0.0,0.0,0.0,0.0,0.0,0.0,0.0,0.0,0.0,0.0,0.0,0.0,0.0,0.0,0.0,0.0,0.0,0.0,0.0,0.0,0.0,0.0,0.0,0.0,0.0,0.0,0.0,0.0,0.0,0.0,0.0,0.0,0.0,0.0,0.0,0.0,0.0,0.0,0.0,0.0,0.0,-3.3649,0.0,-3.1384,-2.9748,-2.8975,-2.7902,0.0,0.0,0.0,0.0,0.0,0.0,0.0,0.0,0.0,0.0,0.0,0.0,0.0,0.0,0.0,0.0,0.0,0.0,0.0,0.0,0.0,0.0,0.0,0.0,0.0,0.0,0.0,0.0,0.0,0.0,0.0,0.0,0.0,0.0,0.0,0.0,0.0,0.0,0.0,0.0,0.0,0.0,0.0,0.0,0.0,0.0,0.0,0.0,0.0,0.0,0.0,0.0,0.0,0.0,0.0,0.0,0.0,0.0,0.0,0.0,0.0,0.0,0.0,0.0,0.0,0.0,0.0,0.0,0.0,0.0,0.0,0.0,0.0,0.0,0.0,0.0,0.0,0.0,0.0,0.0,0.0,0.0,0.0,0.0,0.0,0.0,0.0,0.0,0.0,0.0,0.0,0.0,0.0,0.0,0.0,0.0,0.0,0.0,0.0,0.0,0.0,0.0,0.0,0.0,0.0,0.0,0.0,0.0,-3.4348,-3.3254,-3.255,-3.1053,-2.8854,-2.8563,-2.7755,0.0,0.0,0.0,0.0,0.0,0.0,0.0,0.0,0.0,0.0,0.0,0.0,0.0,0.0,0.0,0.0,0.0,0.0,0.0,0.0,0.0,0.0,0.0,0.0,0.0,0.0,0.0,0.0,0.0,0.0,0.0,0.0,0.0,0.0,0.0,0.0,0.0,0.0,0.0,0.0,0.0,0.0,0.0,0.0,0.0,0.0,0.0,0.0,0.0,0.0,0.0,0.0,0.0,0.0,0.0,0.0,0.0,0.0,0.0,0.0,0.0,0.0,0.0,0.0,0.0,0.0,0.0,0.0,0.0,0.0,0.0,0.0,0.0,0.0,0.0,0.0,0.0,0.0,0.0,0.0,0.0,0.0,0.0,0.0,0.0,0.0,0.0,0.0,0.0,0.0,0.0,0.0,0.0,0.0,0.0,0.0,0.0,0.0,0.0,0.0,0.0,0.0,0.0,0.0,0.0,0.0,0.0,0.0,0.0,-3.339,-3.223,-3.1019,-2.9669,-2.8602,-2.7825,0.0,0.0,0.0,0.0,0.0,0.0,0.0,0.0,0.0,0.0,0.0,0.0,0.0,0.0,0.0,0.0,0.0,0.0,0.0,0.0,0.0,0.0,0.0,0.0,0.0,0.0,0.0,0.0,0.0,0.0,0.0,0.0,0.0,0.0,0.0,0.0,0.0,0.0,0.0,0.0,0.0,0.0,0.0,0.0,0.0,0.0,0.0,0.0,0.0,0.0,0.0,0.0,0.0,0.0,0.0,0.0,0.0,0.0,0.0,0.0,0.0,0.0,0.0,0.0,0.0,0.0,0.0,0.0,0.0,0.0,0.0,0.0,0.0,0.0,0.0,0.0,0.0,0.0,0.0,0.0,0.0,0.0,0.0,0.0,0.0,0.0,0.0,0.0,0.0,0.0,0.0,0.0,0.0,0.0,0.0,0.0,0.0,0.0,0.0,0.0,0.0,0.0,0.0,0.0,0.0,0.0,0.0,0.0,0.0,-3.3287,-3.2165,-3.0936,-2.9859,-2.8836,-2.8085,-2.7656,0.0,0.0,0.0,0.0,0.0,0.0,0.0,0.0,0.0,0.0,0.0,0.0,0.0,0.0,0.0,0.0,0.0,0.0,0.0,0.0,0.0,0.0,0.0,0.0,0.0,0.0,0.0,0.0,0.0,0.0,0.0,0.0,0.0,0.0,0.0,0.0,0.0,0.0,0.0,0.0,0.0,0.0,0.0,0.0,0.0,0.0,0.0,0.0,0.0,0.0,0.0,0.0,0.0,0.0,0.0,0.0,0.0,0.0,0.0,0.0,0.0,0.0,0.0,0.0,0.0,0.0,0.0,0.0,0.0,0.0,0.0,0.0,0.0,0.0,0.0,0.0,0.0,0.0,0.0,0.0,0.0,0.0,0.0,0.0,0.0,0.0,0.0,0.0,0.0,0.0,0.0,0.0,0.0,0.0,0.0,0.0,0.0,0.0,0.0,0.0,0.0,0.0,0.0,0.0,0.0,0.0,0.0,0.0,-3.3112,-3.2234,-3.1086,-2.958,-2.9283,-2.8684,0.0,0.0,0.0,0.0,0.0,0.0,0.0,0.0,0.0,0.0,0.0,0.0,0.0,0.0,0.0,0.0,0.0,0.0,0.0,0.0,0.0,0.0,0.0,0.0,0.0,0.0,0.0,0.0,0.0,0.0,0.0,0.0,0.0,0.0,0.0,0.0,0.0,0.0,0.0,0.0,0.0,0.0,0.0,0.0,0.0,0.0,0.0,0.0,0.0,0.0,0.0,0.0,0.0,0.0,0.0,0.0,0.0,0.0,0.0,0.0,0.0,0.0,0.0,0.0,0.0,0.0,0.0,0.0,0.0,0.0,0.0,0.0,0.0,0.0,0.0,0.0,0.0,0.0,0.0,0.0,0.0,0.0,0.0,0.0,0.0,0.0,0.0,0.0,0.0,0.0,0.0,0.0,0.0,0.0,0.0,0.0,0.0,0.0,0.0,0.0,0.0,0.0,0.0,0.0,0.0,0.0,0.0,0.0,0.0,-3.3785,-3.3108,-3.2014,-3.068,-3.0442,-3.0056,0.0,0.0,0.0,0.0,0.0,0.0,0.0,0.0,0.0,0.0,0.0,0.0,0.0,0.0,0.0,0.0,0.0,0.0,0.0,0.0,0.0,0.0,0.0,0.0,0.0,0.0,0.0,0.0,0.0,0.0,0.0,0.0,0.0,0.0,0.0,0.0,0.0,0.0,0.0,0.0,0.0,0.0,0.0,0.0,0.0,0.0,0.0,0.0,0.0,0.0,0.0,0.0,0.0,0.0,0.0,0.0,0.0,0.0,0.0,0.0,0.0,0.0,0.0,0.0,0.0,0.0,0.0,0.0,0.0,0.0,0.0,0.0,0.0,0.0,0.0,0.0,0.0,0.0,0.0,0.0,0.0,0.0,0.0,0.0,0.0,0.0,0.0,0.0,0.0,0.0,0.0,0.0,0.0,0.0,0.0,0.0,0.0,0.0,0.0,0.0,0.0,0.0,0.0,0.0,0.0,0.0,0.0,0.0,-3.415,-3.4389,-3.3899,-3.3184,-3.2421,-3.1606,-3.089,0.0,0.0,0.0,0.0,0.0,0.0,0.0,0.0,0.0,0.0,0.0,0.0,0.0,0.0,0.0,0.0,0.0,0.0,0.0,0.0,0.0,0.0,0.0,0.0,0.0,0.0,0.0,0.0,0.0,0.0,0.0,0.0,0.0,0.0,0.0,0.0,0.0,0.0,0.0,0.0,0.0,0.0,0.0,0.0,0.0,0.0,0.0,0.0,0.0,0.0,0.0,0.0,0.0,0.0,0.0,0.0,0.0,0.0,0.0,0.0,0.0,0.0,0.0,0.0,0.0,0.0,0.0,0.0,0.0,0.0,0.0,0.0,0.0,0.0,0.0,0.0,0.0,0.0,0.0,0.0,0.0,0.0,0.0,0.0,0.0,0.0,0.0,0.0,0.0,0.0,0.0,0.0,0.0,0.0,0.0,0.0,0.0,0.0,0.0,0.0,0.0,0.0,0.0,0.0,0.0,0.0,0.0,0.0,-3.4661,-3.4905,-3.4528,-3.4265,-3.4082,-3.2713,-3.1744,0.0,0.0,0.0,0.0,0.0,0.0,0.0,0.0,0.0,0.0,0.0,0.0,0.0,0.0,0.0,0.0,0.0,0.0,0.0,0.0,0.0,0.0,0.0,0.0,0.0,0.0,0.0,0.0,0.0,0.0,0.0,0.0,0.0,0.0,0.0,0.0,0.0,0.0,0.0,0.0,0.0,0.0,0.0,0.0,0.0,0.0,0.0,0.0,0.0,0.0,0.0,0.0,0.0,0.0,0.0,0.0,0.0,0.0,0.0,0.0,0.0,0.0,0.0,0.0,0.0,0.0,0.0,0.0,0.0,0.0,0.0,0.0,0.0,0.0,0.0,0.0,0.0,0.0,0.0,0.0,0.0,0.0,0.0,0.0,0.0,0.0,0.0,0.0,0.0,0.0,0.0,0.0,0.0,0.0,0.0,0.0,0.0,0.0,0.0,0.0,0.0,0.0,0.0,0.0,0.0,0.0,0.0,0.0,-3.5786,-3.495,-3.5307,-3.5189,-3.4569,-3.3694,-3.2998,0.0,0.0,0.0,0.0,0.0,0.0,0.0,0.0,0.0,0.0,0.0,0.0,0.0,0.0,0.0,0.0,0.0,0.0,0.0,0.0,0.0,0.0,0.0,0.0,0.0,0.0,0.0,0.0,0.0,0.0,0.0,0.0,0.0,0.0,0.0,0.0,0.0,0.0,0.0,0.0,0.0,0.0,0.0,0.0,0.0,0.0,0.0,0.0,-4.3979,0.0,0.0,0.0,0.0,0.0,0.0,0.0,0.0,0.0,0.0,0.0,0.0,0.0,0.0,0.0,0.0,0.0,0.0,0.0,0.0,0.0,0.0,0.0,0.0,0.0,0.0,0.0,0.0,0.0,0.0,0.0,0.0,0.0,0.0,0.0,0.0,0.0,0.0,0.0,0.0,0.0,0.0,0.0,0.0,0.0,0.0,0.0,0.0,0.0,0.0,0.0,0.0,0.0,0.0,0.0,0.0,0.0,0.0,0.0,-3.6273,-3.5698,-3.5748,-3.5572,-3.5396,-3.4518,-3.3848,0.0,0.0,0.0,0.0,0.0,0.0,0.0,0.0,0.0,0.0,0.0,0.0,0.0,0.0,0.0,0.0,0.0,0.0,0.0,0.0,0.0,0.0,0.0,0.0,0.0,0.0,0.0,0.0,0.0,0.0,0.0,0.0,0.0,0.0,0.0,0.0,0.0,0.0,0.0,0.0,0.0,0.0,0.0,0.0,0.0,0.0,0.0,0.0,0.0,0.0,0.0,0.0,0.0,0.0,0.0,0.0,0.0,0.0,0.0,0.0,0.0,0.0,0.0,0.0,0.0,0.0,0.0,0.0,0.0,0.0,0.0,0.0,0.0,0.0,0.0,0.0,0.0,0.0,0.0,0.0,0.0,0.0,0.0,0.0,0.0,0.0,0.0,0.0,0.0,0.0,0.0,0.0,0.0,0.0,0.0,0.0,0.0,0.0,0.0,0.0,0.0,0.0,0.0,0.0,0.0,0.0,0.0,-3.6318,-3.6478,-3.6621,-3.5908,-3.5747,-3.6037,-3.5093,-3.4562,-3.4418,0.0,0.0,0.0,0.0,0.0,0.0,0.0,0.0,0.0,0.0,0.0,0.0,0.0,0.0,0.0,0.0,0.0,0.0,0.0,0.0,0.0,0.0,0.0,0.0,0.0,0.0,0.0,0.0,0.0,0.0,0.0,0.0,0.0,0.0,0.0,0.0,0.0,0.0,-4.7323,-4.8707,0.0,0.0,0.0,0.0,0.0,0.0,0.0,0.0,-4.4727,0.0,0.0,0.0,0.0,0.0,0.0,0.0,0.0,0.0,0.0,0.0,0.0,0.0,0.0,0.0,0.0,0.0,0.0,0.0,0.0,0.0,0.0,0.0,0.0,0.0,0.0,0.0,0.0,0.0,0.0,0.0,0.0,0.0,0.0,0.0,0.0,0.0,0.0,0.0,0.0,0.0,0.0,0.0,0.0,0.0,0.0,0.0,0.0,0.0,0.0,0.0,0.0,0.0,0.0,0.0,0.0,-3.6509,-3.665,-3.6637,-3.6686,-3.627,-3.5881,-3.5637,-3.5272,-3.5124,-3.5046,0.0,0.0,0.0,0.0,0.0,0.0,0.0,0.0,0.0,0.0,0.0,0.0,0.0,0.0,0.0,0.0,0.0,0.0,0.0,0.0,0.0,0.0,0.0,0.0,0.0,0.0,0.0,0.0,0.0,0.0,0.0,0.0,0.0,0.0,0.0,0.0,0.0,0.0,0.0,-4.9875,-5.0391,0.0,0.0,0.0,0.0,0.0,0.0,0.0,0.0,-4.5826,0.0,0.0,0.0,0.0,0.0,0.0,0.0,0.0,0.0,0.0,0.0,0.0,0.0,0.0,0.0,0.0,0.0,0.0,0.0,0.0,0.0,0.0,0.0,0.0,0.0,0.0,0.0,0.0,0.0,0.0,0.0,0.0,0.0,0.0,0.0,0.0,0.0,0.0,0.0,0.0,0.0,0.0,0.0,0.0,0.0,0.0,0.0,0.0,0.0,0.0,0.0,0.0,0.0,0.0,0.0,-3.6753,-3.6453,-3.6621,-3.7232,-3.6611,-3.6317,-3.6509,-3.6117,-3.6005,0.0,0.0,0.0,0.0,0.0,0.0,0.0,0.0,0.0,0.0,0.0,0.0,0.0,0.0,0.0,0.0,0.0,0.0,0.0,0.0,0.0,0.0,0.0,0.0,0.0,0.0,0.0,0.0,0.0,0.0,0.0,0.0,0.0,0.0,0.0,0.0,0.0,0.0,0.0,0.0,-5.0571,-5.0505,-4.996,0.0,0.0,0.0,0.0,0.0,0.0,-4.7406,-4.7622,0.0,0.0,0.0,0.0,0.0,0.0,0.0,0.0,0.0,0.0,0.0,0.0,0.0,0.0,0.0,0.0,0.0,0.0,0.0,0.0,0.0,0.0,0.0,0.0,0.0,0.0,0.0,0.0,0.0,0.0,0.0,0.0,0.0,0.0,0.0,0.0,0.0,0.0,0.0,0.0,0.0,0.0,0.0,0.0,0.0,0.0,0.0,0.0,0.0,0.0,0.0,0.0,0.0,0.0,0.0,-3.6776,-3.6315,-3.6722,-3.8013,-3.7085,-3.6873,-3.7551,-3.7061,-3.6772,0.0,0.0,0.0,0.0,0.0,0.0,0.0,0.0,0.0,0.0,0.0,0.0,0.0,0.0,0.0,0.0,0.0,0.0,0.0,0.0,0.0,0.0,0.0,0.0,0.0,0.0,0.0,0.0,0.0,0.0,0.0,0.0,0.0,0.0,0.0,0.0,0.0,0.0,0.0,0.0,0.0,-5.0938,-5.1095,-5.0455,0.0,0.0,0.0,0.0,-4.8338,-4.9277,0.0,0.0,0.0,0.0,0.0,0.0,0.0,0.0,0.0,0.0,0.0,0.0,0.0,0.0,0.0,0.0,0.0,0.0,0.0,0.0,0.0,0.0,0.0,0.0,0.0,0.0,0.0,0.0,0.0,0.0,0.0,0.0,0.0,0.0,0.0,0.0,0.0,0.0,0.0,0.0,0.0,0.0,0.0,0.0,0.0,0.0,0.0,0.0,0.0,0.0,0.0,0.0,0.0,0.0,0.0,0.0,-3.6175,-3.6456,-3.7176,-3.8554,-3.814,-3.7965,-3.8222,-3.7702,-3.7144,0.0,0.0,0.0,0.0,0.0,0.0,0.0,0.0,0.0,0.0,0.0,0.0,0.0,0.0,0.0,0.0,0.0,0.0,0.0,0.0,0.0,0.0,0.0,0.0,0.0,0.0,0.0,0.0,0.0,0.0,0.0,0.0,0.0,0.0,0.0,0.0,0.0,0.0,0.0,0.0,0.0,-5.2702,-5.2337,-5.1713,-5.0874,0.0,0.0,-5.0143,-4.9919,-5.1752,0.0,0.0,0.0,0.0,0.0,0.0,0.0,0.0,0.0,0.0,0.0,0.0,0.0,0.0,0.0,0.0,0.0,0.0,0.0,0.0,0.0,0.0,0.0,0.0,0.0,0.0,0.0,0.0,0.0,0.0,0.0,0.0,0.0,0.0,0.0,0.0,0.0,0.0,0.0,0.0,0.0,0.0,0.0,0.0,0.0,0.0,0.0,0.0,0.0,0.0,0.0,0.0,0.0,0.0,0.0,-3.4959,-3.6083,-3.6404,-3.7361,-3.8955,-3.8829,-3.8853,-3.9324,-3.86,-3.8083,0.0,0.0,0.0,0.0,0.0,0.0,0.0,0.0,0.0,0.0,0.0,0.0,0.0,0.0,0.0,0.0,0.0,0.0,0.0,0.0,0.0,0.0,0.0,0.0,0.0,0.0,0.0,0.0,0.0,0.0,0.0,0.0,0.0,0.0,0.0,0.0,0.0,0.0,0.0,0.0,0.0,0.0,-5.3421,-5.2588,0.0,0.0,0.0,-5.341,-5.3483,0.0,0.0,0.0,0.0,0.0,0.0,0.0,0.0,0.0,0.0,0.0,0.0,0.0,0.0,0.0,0.0,0.0,0.0,0.0,0.0,0.0,0.0,0.0,0.0,0.0,0.0,0.0,0.0,0.0,0.0,0.0,0.0,0.0,0.0,0.0,0.0,0.0,0.0,0.0,0.0,0.0,0.0,0.0,0.0,0.0,0.0,0.0,0.0,0.0,0.0,0.0,0.0,0.0,0.0,0.0,0.0,0.0,-3.6096,-3.6779,-3.7831,-3.9258,-3.9466,-3.9828,-4.0249,-3.9538,0.0,0.0,0.0,0.0,0.0,0.0,0.0,0.0,0.0,0.0,0.0,0.0,0.0,0.0,0.0,0.0,0.0,0.0,0.0,0.0,0.0,0.0,0.0,0.0,0.0,0.0,0.0,-4.2843,0.0,0.0,0.0,0.0,0.0,0.0,0.0,0.0,0.0,0.0,0.0,0.0,0.0,0.0,-5.2123,-5.4318,-5.3848,-5.3399,0.0,0.0,-5.6273,-5.6293,-5.6966,-5.6781,0.0,0.0,0.0,0.0,0.0,0.0,0.0,0.0,0.0,0.0,0.0,0.0,0.0,0.0,0.0,0.0,0.0,0.0,0.0,0.0,0.0,0.0,0.0,0.0,0.0,0.0,0.0,0.0,0.0,0.0,0.0,0.0,0.0,0.0,0.0,0.0,0.0,0.0,0.0,0.0,0.0,0.0,0.0,0.0,0.0,0.0,0.0,0.0,0.0,0.0,0.0,0.0,0.0,0.0,0.0,-3.6136,-3.7743,-3.8906,-3.9516,-4.0374,-4.0844,-4.0883,-4.0227,-3.977,0.0,0.0,0.0,0.0,0.0,0.0,0.0,0.0,0.0,0.0,0.0,0.0,0.0,0.0,0.0,0.0,0.0,0.0,0.0,0.0,0.0,0.0,0.0,0.0,0.0,0.0,0.0,0.0,0.0,0.0,0.0,0.0,0.0,0.0,0.0,0.0,0.0,0.0,0.0,0.0,0.0,-5.3817,-5.4958,-5.5717,-5.6366,0.0,0.0,-5.7971,-5.7364,-5.8038,-5.7812,-5.5513,0.0,0.0,0.0,0.0,0.0,0.0,0.0,0.0,0.0,0.0,0.0,0.0,0.0,0.0,0.0,0.0,0.0,0.0,0.0,0.0,0.0,0.0,0.0,0.0,0.0,0.0,0.0,0.0,0.0,0.0,0.0,0.0,0.0,0.0,0.0,0.0,0.0,0.0,0.0,0.0,0.0,0.0,0.0,0.0,0.0,0.0,0.0,0.0,0.0,0.0,0.0,0.0,0.0,-3.6231,-3.6558,-3.8291,-3.9468,-4.0089,-4.109,-4.1683,-4.1683,-4.0857,-4.0452,0.0,0.0,0.0,0.0,0.0,0.0,0.0,0.0,0.0,0.0,0.0,0.0,0.0,0.0,0.0,0.0,0.0,0.0,0.0,0.0,0.0,0.0,0.0,0.0,0.0,0.0,0.0,0.0,-4.1922,-4.1579,-4.0945,0.0,0.0,0.0,0.0,0.0,0.0,0.0,0.0,0.0,0.0,-5.4171,-5.6661,-5.6665,0.0,0.0,-5.8941,-5.9119,-5.9096,-5.9439,-5.8926,-5.6763,-5.5079,0.0,0.0,0.0,0.0,0.0,0.0,0.0,0.0,0.0,0.0,0.0,0.0,0.0,0.0,0.0,0.0,0.0,0.0,0.0,0.0,0.0,0.0,0.0,0.0,0.0,0.0,0.0,0.0,0.0,0.0,0.0,0.0,0.0,0.0,0.0,0.0,0.0,0.0,0.0,0.0,0.0,0.0,0.0,0.0,0.0,0.0,0.0,0.0,0.0,0.0,0.0,0.0,-3.698,-3.733,-3.9087,-4.0281,-4.0763,-4.185,-4.2377,-4.2189,-4.1504,-4.1159,0.0,0.0,0.0,0.0,0.0,0.0,0.0,0.0,0.0,0.0,0.0,0.0,0.0,0.0,0.0,0.0,0.0,0.0,0.0,0.0,0.0,0.0,0.0,0.0,0.0,0.0,0.0,0.0,-4.1731,-4.1275,-4.1023,0.0,0.0,0.0,0.0,0.0,0.0,0.0,0.0,0.0,0.0,-5.4827,-5.7942,-5.7879,-5.8135,-6.0132,-6.0306,-6.0316,-6.0283,-6.0289,-5.9574,-5.7762,0.0,0.0,0.0,0.0,0.0,0.0,0.0,0.0,0.0,0.0,0.0,0.0,0.0,0.0,0.0,0.0,0.0,0.0,0.0,0.0,0.0,0.0,0.0,0.0,0.0,0.0,0.0,0.0,0.0,0.0,-3.5955,0.0,0.0,0.0,0.0,0.0,0.0,0.0,0.0,0.0,0.0,0.0,0.0,0.0,0.0,0.0,0.0,0.0,0.0,0.0,0.0,0.0,0.0,-3.8169,-3.8369,-4.0223,-4.1313,-4.2005,-4.2808,-4.2944,-4.2369,-4.2173,-4.1923,-4.1485,0.0,0.0,0.0,0.0,0.0,0.0,0.0,0.0,0.0,0.0,0.0,0.0,0.0,0.0,0.0,0.0,0.0,0.0,0.0,0.0,0.0,0.0,0.0,0.0,0.0,0.0,-4.1691,-4.0817,-4.0698,0.0,0.0,0.0,0.0,0.0,0.0,0.0,0.0,0.0,0.0,-5.4059,-5.6179,-5.8371,-5.9374,-6.0211,-6.1543,-6.1743,-6.1521,-6.0755,-6.0398,-5.9554,0.0,0.0,0.0,0.0,0.0,0.0,0.0,0.0,0.0,0.0,0.0,0.0,0.0,0.0,0.0,0.0,0.0,0.0,0.0,0.0,0.0,0.0,0.0,0.0,0.0,0.0,0.0,-3.7891,-3.7531,0.0,0.0,0.0,0.0,0.0,0.0,0.0,0.0,0.0,0.0,0.0,-3.9465,-4.0418,0.0,0.0,0.0,0.0,0.0,0.0,0.0,0.0,0.0,0.0,0.0,0.0,-3.9558,-4.0265,-4.1607,-4.2628,-4.323,-4.3845,-4.3967,-4.3505,-4.3361,-4.2925,-4.2239,0.0,0.0,0.0,0.0,0.0,0.0,0.0,0.0,0.0,0.0,0.0,0.0,0.0,0.0,0.0,0.0,0.0,0.0,0.0,0.0,0.0,0.0,0.0,0.0,0.0,-4.2745,0.0,0.0,0.0,0.0,0.0,0.0,0.0,0.0,0.0,0.0,0.0,-5.0461,-5.2825,-5.4785,-5.6686,-5.848,-5.9097,-5.9685,0.0,0.0,0.0,0.0,0.0,0.0,0.0,0.0,0.0,0.0,0.0,0.0,0.0,0.0,-5.8108,-5.6879,-5.6517,-5.643,-5.6508,0.0,0.0,0.0,0.0,0.0,0.0,0.0,0.0,0.0,0.0,0.0,0.0,0.0,0.0,0.0,0.0,-3.8647,0.0,0.0,0.0,0.0,0.0,0.0,0.0,0.0,-4.0177,-4.0947,-4.1349,-4.2288,-4.3097,0.0,-4.369,-4.2898,0.0,0.0,0.0,0.0,0.0,0.0,0.0,0.0,-4.1076,-4.199,-4.2955,-4.3889,-4.468,-4.5014,-4.4991,-4.4501,-4.4185,-4.3573,-4.2622,-4.2123,-4.1805,0.0,0.0,0.0,0.0,0.0,0.0,0.0,0.0,0.0,0.0,0.0,0.0,0.0,0.0,0.0,0.0,0.0,0.0,0.0,0.0,0.0,0.0,0.0,-4.2507,0.0,0.0,0.0,0.0,0.0,0.0,0.0,0.0,0.0,-4.8457,-5.0329,-5.2541,-5.4592,-5.6164,-5.7634,-5.9073,0.0,0.0,0.0,0.0,0.0,0.0,0.0,-6.1142,-6.1164,-6.1402,-6.1612,-6.1966,-6.2449,-6.273,-6.2293,0.0,0.0,-6.0098,-5.9601,-5.9518,-5.9314,-5.9421,-5.9349,-5.8974,-5.895,-5.8892,0.0,0.0,0.0,0.0,0.0,0.0,0.0,0.0,-4.1111,-4.1191,0.0,-3.9929,0.0,0.0,0.0,0.0,0.0,0.0,0.0,0.0,-4.1742,-4.2712,-4.3314,-4.4021,-4.4769,-4.5389,-4.5605,-4.5672,-4.5595,-4.317,0.0,0.0,0.0,0.0,0.0,0.0,-4.2574,-4.3685,-4.4364,-4.5294,-4.6461,-4.6319,-4.5933,-4.5214,-4.4595,-4.37,-4.2709,-4.2931,-4.256,-4.1464,-4.1749,0.0,0.0,0.0,0.0,0.0,0.0,0.0,0.0,0.0,0.0,0.0,0.0,0.0,0.0,0.0,0.0,0.0,0.0,0.0,0.0,-4.2487,0.0,0.0,0.0,0.0,0.0,0.0,0.0,0.0,0.0,0.0,-5.1209,-5.3097,-5.5156,-5.6838,0.0,0.0,0.0,0.0,-6.0879,-6.1526,-6.1617,-6.1629,-6.1388,-6.2125,-6.26,-6.2196,0.0,0.0,-6.4252,-6.4841,-6.5312,-6.5595,-6.6,-6.5429,-6.1551,-6.0952,-6.0767,-6.0297,-6.0179,-6.0037,-6.0157,-6.0292,-6.0283,-3.8189,0.0,0.0,0.0,0.0,-4.1644,-4.2409,-4.2898,-4.323,-4.3081,-4.2617,-4.2024,0.0,0.0,0.0,0.0,0.0,0.0,-4.187,-4.2076,-4.2912,-4.3557,-4.4143,-4.4639,-4.536,-4.6299,-4.6926,-4.7159,-4.7022,-4.614,-4.4772,-4.3077,0.0,0.0,0.0,0.0,-4.3546,-4.4739,-4.542,-4.6161,-4.6978,-4.6925,-4.6534,-4.5754,-4.4556,-4.4266,-4.4815,-4.4,-4.3485,-4.3361,-4.3017,0.0,0.0,0.0,0.0,0.0,0.0,0.0,0.0,0.0,0.0,0.0,0.0,0.0,0.0,0.0,0.0,0.0,0.0,0.0,-4.3073,-4.2789,-4.33,0.0,0.0,0.0,0.0,0.0,0.0,0.0,0.0,0.0,-5.5231,-5.5341,-5.6018,0.0,0.0,-5.9531,-6.0024,-6.0428,-6.0707,-6.0984,0.0,0.0,0.0,-6.1783,-6.2199,-6.2764,-6.3682,-6.4334,-6.4515,-6.4701,-6.4667,-6.4258,-6.4732,-6.46,-6.3202,-6.359,-6.4062,-6.4025,-6.3603,-6.3062,-6.2668,-6.2533,-6.2195,-3.9855,-4.0001,-3.987,-4.0692,-4.1977,-4.3057,-4.37,-4.4163,-4.4274,-4.4028,-4.3396,-4.3006,-4.2436,-4.1744,-4.1508,0.0,0.0,0.0,-4.2882,-4.3089,-4.3543,-4.4038,-4.4696,-4.5086,-4.5893,-4.6919,-4.7719,-4.8152,-4.8233,-4.7762,-4.6948,-4.577,0.0,0.0,-4.3809,-4.3997,-4.4586,-4.5541,-4.5957,-4.6559,-4.7142,-4.7055,-4.6734,-4.6069,-4.5295,-4.5063,-4.5564,-4.4754,-4.4177,-4.3821,-4.3488,-4.2864,0.0,0.0,0.0,0.0,0.0,0.0,0.0,0.0,0.0,0.0,0.0,-4.5247,0.0,0.0,0.0,0.0,-4.368,-4.3469,-4.3314,-4.3952,0.0,0.0,0.0,0.0,0.0,0.0,0.0,-5.2877,-5.4369,-5.598,-5.7288,-5.7069,-5.7395,-5.9052,-5.9793,-6.0226,-6.0515,0.0,-6.1053,-6.1185,-6.1449,-6.1709,-6.179,-6.1887,-6.2317,-6.3155,-6.4042,-6.458,-6.4597,-6.4377,-6.4021,-6.3666,-6.3632,-6.3599,-6.3159,-6.3582,-6.4055,-6.4309,-6.4038,-6.3497,-6.2787,-6.2651,-6.2279,-4.148,-4.2426,-4.1576,-4.2064,-4.3542,-4.4109,-4.4493,-4.4622,-4.4678,-4.4332,-4.3642,-4.3169,-4.292,-4.2879,-4.2325,0.0,-4.292,-4.292,-4.3197,-4.3709,-4.3926,-4.4436,-4.5049,-4.5424,-4.6247,-4.751,-4.8052,-4.8687,-4.9262,-4.8509,-4.8147,-4.8099,-4.6249,-4.4966,-4.4419,-4.4981,-4.5575,-4.6169,-4.6247,-4.6591,-4.7184,-4.6985,-4.6691,-4.6294,-4.6262,-4.6045,-4.5421,-4.5309,-4.4737,-4.3423,-4.3443,-4.2848,-4.1574,0.0,0.0,0.0,0.0,0.0,0.0,0.0,0.0,0.0,0.0,0.0,0.0,0.0,0.0,0.0,-4.3912,0.0,-4.3816,-4.5696,0.0,0.0,0.0,-5.1194,-5.1416,-5.2824,-5.3923,-5.4509,0.0,0.0,-5.789,0.0,-5.8859,-6.0423,-6.0804,-6.1003,-6.1217,-6.1232,-6.1444,-6.1648,-6.1778,-6.1891,-6.1964,-6.2076,-6.233,-6.3074,-6.3852,-6.4089,-6.414,-6.3632,-6.326,-6.3108,-6.2651,-6.2195,-6.2195,-6.1704,-6.1417,-6.2205,-6.2229,-6.1992,-6.1417,-6.1264,-6.1104,-4.2275,-4.3219,-4.3377,-4.3822,-4.4385,-4.5021,-4.5193,-4.5216,-4.4955,-4.4746,-4.458,-4.4185,-4.4013,-4.3999,-4.3845,-4.3873,-4.4013,-4.4013,-4.4177,-4.449,-4.4612,-4.4854,-4.5367,-4.5848,-4.6476,-4.7314,-4.811,-4.8867,-4.9454,-4.8586,-4.8222,-4.8323,-4.6821,-4.5969,-4.5826,-4.5841,-4.6,-4.6287,-4.6843,-4.7177,-4.7336,-4.7266,-4.6981,-4.6294,-4.6262,-4.6324,-4.6271,-4.5789,-4.5182,-4.4445,-4.3945,-4.3314,-4.2564,-4.2847,0.0,0.0,0.0,0.0,0.0,0.0,0.0,0.0,0.0,-4.514,-4.5032,0.0,-4.4569,0.0,-4.5024,-4.5711,-4.6992,-4.7473,0.0,0.0,-5.1463,-5.2135,-5.2808,-5.3752,-5.4445,-5.47,-5.5446,-5.6328,-5.7332,-5.7539,-5.8133,-5.9648,-5.9977,-6.0114,-6.0192,-6.0331,-6.0468,-6.0562,-6.0562,-6.0545,-6.0622,-6.0639,-6.0892,-6.1704,-6.1484,-6.1383,-6.1992,-6.1434,-6.0909,-6.0909,-6.0791,-6.0639,-6.0605,-6.0562,-6.0663,-6.0849,-6.0732,-6.0681,-6.057,-6.0629,-6.0483,-4.2903,-4.3738,-4.4111,-4.4363,-4.4685,-4.5335,-4.5503,-4.5316,-4.519,-4.4883,-4.4699,-4.4659,-4.4612,-4.4597,-4.469,-4.4676,-4.4676,-4.4676,-4.4862,-4.5138,-4.5152,-4.5336,-4.5851,-4.6006,-4.6486,-4.7171,-4.7604,-4.8195,-4.8686,-4.8136,-4.7908,-4.8127,-4.7091,-4.6545,-4.6528,-4.6333,-4.6207,-4.6278,-4.6733,-4.6925,-4.7052,-4.7052,-4.6859,-4.6561,-4.6239,-4.6132,-4.6253,-4.5591,-4.4996,-4.435,-4.3994,-4.3376,-4.2492,-4.307,-4.3429,0.0,0.0,0.0,0.0,0.0,0.0,0.0,0.0,0.0,0.0,0.0,-4.5669,0.0,-4.6324,-4.7166,-4.8476,-4.9164,-5.0318,-5.2147,-5.2687,-5.3126,-5.3649,-5.443,-5.489,-5.4957,-5.5689,-5.6321,-5.673,-5.6781,-5.7071,-5.8012,-5.8171,-5.8699,-5.9902,-5.9994,-5.9773,-5.9756,-5.9411,-5.8981,-5.8693,-5.8913,-5.9133,-5.9252,-5.9201,-5.9268,-5.9691,-5.915,-5.8626,-5.8626,-5.8445,-5.8298,-5.8354,-5.8481,-5.8641,-5.8641,-5.857,-5.8872,-5.9791,-6.0086,-5.9797,-4.3209,-4.4216,-4.4109,-4.4221,-4.447,-4.5136,-4.526,-4.5197,-4.5113,-4.4748,-4.4265,-4.4464,-4.4542,-4.4663,-4.4889,-4.4995,-4.501,-4.5081,-4.5307,-4.558,-4.5508,-4.5735,-4.6226,-4.6028,-4.6211,-4.6848,-4.6945,-4.7232,-4.7814,-4.7505,-4.7477,-4.7677,-4.7179,-4.6876,-4.6876,-4.6545,-4.6404,-4.642,-4.6404,-4.6474,-4.6652,-4.6652,-4.6738,-4.6844,-4.6196,-4.5824,-4.5791,-4.5079,-4.4432,-4.3751,-4.3893,-4.332,-4.2157,-4.3188,-4.3664,0.0,-4.4402,0.0,0.0,0.0,0.0,0.0,0.0,0.0,0.0,-4.6908,-4.7121,-4.7005,-4.77,-4.8446,-4.9158,-5.0555,-5.1741,-5.2622,-5.3434,-5.3943,-5.4063,-5.4792,-5.5252,-5.5121,-5.5752,-5.6213,-5.6078,-5.6062,-5.6062,-5.6402,-5.6421,-5.7364,-5.9556,-5.9392,-5.8766,-5.8885,-5.8179,-5.7552,-5.704,-5.7311,-5.748,-5.6989,-5.7294,-5.7666,-5.7789,-5.7281,-5.684,-5.6789,-5.659,-5.6269,-5.6303,-5.6507,-5.6641,-5.6845,-5.6896,-5.738,-5.8646,-5.9054,-5.8746,-4.3389,-4.4109,-4.3857,-4.3822,-4.4038,-4.3468,-4.3686,-4.4551,-4.4059,-4.3575,-4.3178,-4.3253,-4.3343,-4.3578,-4.4153,-4.4457,-4.4651,-4.5168,-4.5776,-4.6388,-4.5757,-4.5841,-4.6396,-4.6033,-4.6143,-4.6597,-4.6966,-4.7448,-4.8056,-4.7595,-4.7566,-4.7906,-4.7249,-4.6876,-4.6892,0.0,0.0,0.0,-4.6807,-4.6823,-4.6807,-4.6807,-4.6892,-4.6876,-4.618,0.0,-4.5759,-4.4724,-4.4073,-4.3911,-4.367,0.0,0.0,0.0,0.0,0.0,0.0,0.0,0.0,0.0,0.0,0.0,-4.7202,-4.7365,-4.7288,-4.7786,-4.8097,-4.8131,-4.8779,-4.959,-5.0463,-5.0771,-5.1586,-5.3077,-5.3404,-5.3776,-5.4299,-5.4569,-5.4736,-5.4879,-5.5,-5.5196,-5.533,-5.5392,-5.568,-5.6247,-5.6394,-5.6819,-5.7851,-5.7378,-5.6832,-5.6764,-5.6508,-5.6422,-5.632,-5.6371,-5.6371,-5.6337,-5.6371,-5.6559,-5.6662,-5.6645,-5.6542,-5.6608,-5.6658,-5.6535,-5.665,-5.6932,-5.6935,-5.7202,-5.7311,-5.7393,-5.7122,-5.7089,-5.7071,-4.3238,0.0,-4.3491,-4.3315,0.0,-4.2913,-4.3088,-4.3638,-4.3342,-4.3197,-4.3076,-4.3179,-4.3341,-4.3457,-4.3861,-4.4181,-4.4429,-4.4763,-4.5361,-4.6036,-4.5694,-4.6018,-4.6808,-4.6245,-4.6315,-4.6762,-4.6677,-4.6877,-4.7285,-4.7093,-4.7162,-4.7459,-4.707,-4.6876,-4.6876,-4.6876,-4.6876,-4.6876,-4.6876,-4.6876,-4.6876,-4.6536,-4.6342,-4.6309,0.0,0.0,0.0,0.0,0.0,0.0,0.0,0.0,0.0,0.0,0.0,-4.5283,-4.5494,-4.5667,-4.577,-4.5736,-4.617,-4.7278,-4.8256,-4.8781,-4.8741,-4.9028,-4.9193,-4.9193,-4.9536,-5.011,-5.0909,-5.1012,-5.1503,-5.2666,-5.2822,-5.2977,-5.3304,-5.3373,-5.3452,-5.3636,-5.3636,-5.3758,-5.4004,-5.4063,-5.4262,-5.4764,-5.4793,-5.485,-5.5209,-5.5623,-5.5649,-5.4664,-5.4185,-5.398,-5.4032,-5.4422,-5.4693,-5.4675,-5.4806,-5.4871,-5.5017,-5.4753,-5.462,-5.4683,-5.479,-5.4913,-5.5079,-5.5319,-5.5496,-5.5555,-5.5671,-5.5555,-5.5183,-5.6095,-5.7005,-4.2797,-4.2998,-4.2953,-4.2789,-4.2491,-4.2616,-4.2661,-4.2661,0.0,0.0,0.0,-4.32,-4.3286,-4.3387,-4.3675,-4.3976,-4.4232,-4.442,-4.4971,-4.5798,-4.5677,-4.626,-4.7152,-4.6403,-4.6312,-4.6716,-4.6359,-4.6269,-4.6421,-4.6518,-4.6722,-4.6892,-4.6876,-4.6876,-4.6876,-4.6876,-4.6811,-4.6714,-4.6811,-4.6828,-4.6682,-4.6099,-4.5743,-4.5629,-4.4383,-4.3702,-4.3767,-4.329,-4.3068,-4.3218,-4.3697,-4.4121,-4.4463,-4.4998,-4.5336,-4.5477,-4.5718,-4.5871,-4.5871,-4.5838,-4.6378,-4.7625,-4.8916,-4.9717,-4.9976,-5.0011,-5.0011,-5.0011,-5.0011,-5.0252,-5.0856,-5.0907,-5.1218,-5.1942,-5.2028,-5.2063,-5.2218,-5.2235,-5.2425,-5.2535,-5.2723,-5.277,-5.3151,-5.3264,-5.3194,-5.3324,-5.3444,-5.3024,-5.3119,-5.4192,-5.4494,-5.321,-5.2677,-5.2066,-5.2094,-5.2681,-5.3053,-5.3253,-5.3385,-5.3462,-5.3435,-5.3177,-5.2909,-5.3234,-5.3141,-5.3415,-5.3545,-5.3922,-5.3851,-5.3921,-5.3904,-5.3851,-5.3976,-5.5564,-5.6746,-4.2166,-4.2314,-4.2237,-4.2103,-4.2077,-4.1711,-4.1723,-4.1935,-4.221,-4.2224,-4.1877,-4.1961,-4.206,-4.2314,-4.3073,-4.3558,-4.3838,-4.487,-4.5798,0.0,-4.6144,-4.6403,-4.7062,-4.638,-4.5889,-4.5591,-4.6023,-4.6099,-4.5842,-4.6309,-4.6738,-4.6876,-4.6876,-4.6876,-4.6876,-4.6876,-4.6568,-4.5986,-4.6568,-4.6585,-4.5969,-4.5856,-4.5516,-4.4933,-4.414,-4.3783,-4.3974,-4.3522,-4.3432,-4.3713,-4.4259,-4.4725,-4.5069,-4.5477,-4.5803,-4.5922,-4.609,-4.614,-4.6122,-4.6023,-4.6272,-4.6897,-4.7709,-4.8691,-4.9873,-5.0011,-5.0011,-4.9993,-4.9942,-5.0045,-5.0149,-5.0131,-5.0407,-5.1132,-5.1252,-5.1571,-5.2243,-5.2389,-5.249,-5.2862,-5.3138,-5.3291,-5.3548,-5.378,-5.3849,-5.4043,-5.3602,-5.3584,-5.313,-5.3172,-5.2994,-5.2624,-5.2545,-5.2577,-5.2451,-5.2753,-5.2829,-5.3067,-5.3169,-5.3359,-5.3596,-5.353,-5.3549,-5.3919,-5.3864,-5.4003,-5.4191,-5.4421,-5.4269,-5.4229,-5.4188,-5.4296,-5.4175,-5.4723,-5.486,-4.2256,-4.1887,-4.2091,-4.1952,-4.171,-4.158,-4.1717,-4.1926,-4.2132,-4.2088,-4.1912,-4.1897,-4.2078,-4.2272,-4.2617,-4.3063,-4.3552,-4.4173,-4.5011,-4.5773,-4.5765,-4.6145,-4.6733,-4.618,-4.5736,-4.5584,-4.5874,-4.5927,-4.5769,-4.6399,-4.6823,-4.6844,-4.6504,-4.6115,-4.5775,-4.5743,-4.5581,-4.5273,-4.5937,-4.5953,-4.5273,-4.4868,-4.4512,-4.4204,-4.3572,-4.3342,-4.3388,-4.3553,-4.3772,-4.4064,-4.4669,-4.5159,-4.5477,-4.5752,-4.5972,-4.6073,-4.6172,-4.6189,-4.6189,-4.6492,-4.6793,-4.7004,-4.7611,-4.8268,-4.8907,-4.8938,-4.8882,-4.8976,-4.8976,-4.8976,-4.8976,-4.892,-4.9175,-4.9901,-4.9855,-5.0241,-5.1072,-5.1286,-5.1516,-5.1856,-5.2038,-5.2272,-5.283,-5.2863,-5.2913,-5.2982,-5.2812,-5.2412,-5.1741,-5.1511,-5.161,-5.2053,-5.156,-5.1147,-5.1205,-5.1333,-5.1616,-5.2041,-5.2395,-5.2782,-5.3274,-5.3301,-5.3158,-5.3237,-5.3333,-5.32,-5.3023,-5.2907,-5.2808,-5.2436,-5.2409,-5.2427,-5.2427,-5.2427,-5.2824,-4.2223,-4.1592,-4.2024,-4.1923,-4.1578,-4.1717,-4.1897,-4.2092,-4.2092,-4.2092,-4.2092,-4.2175,-4.2242,-4.2392,-4.2555,-4.279,-4.3199,-4.3559,-4.4158,-4.4794,-4.5142,-4.5626,-4.6067,-4.5636,-4.5382,-4.5403,-4.5646,-4.5726,-4.5678,-4.6293,-4.6568,-4.6374,-4.5856,-4.5305,-4.4804,-4.4804,-4.4706,-4.4593,-4.4917,-4.4917,-4.4544,-4.3994,-4.3638,-4.3507,-4.313,-4.2961,-4.3146,-4.3595,-4.4105,-4.4519,-4.5069,-4.5425,-4.561,-4.5711,-4.574,-4.5681,-4.587,-4.5996,-4.6189,-4.67,-4.6949,-4.6898,-4.7387,-4.7613,-4.7613,-4.7577,-4.768,-4.8012,-4.8151,-4.8134,-4.8151,-4.808,-4.8162,-4.8716,-4.873,-4.899,-4.966,-4.9948,-5.0204,-5.0541,-5.0732,-5.1005,-5.137,-5.1418,-5.14,-5.1418,-5.1272,-5.0855,-5.0222,-5.0097,-5.0548,-5.0962,-5.0417,-4.9799,-4.9743,-4.9998,-5.0396,-5.098,-5.1346,-5.1772,-5.2228,-5.2162,-5.2028,-5.2018,-5.2108,-5.197,-5.1468,-5.1402,-5.128,-5.0915,-5.0921,-5.0678,-5.0769,-5.0751,-5.1121,-4.1578,-4.144,-4.165,-4.1872,-4.2009,-4.2009,-4.2092,-4.2092,-4.2092,-4.2092,-4.2049,-4.231,-4.2377,-4.2474,-4.2915,-4.2985,-4.2756,-4.3633,-4.3981,-4.3905,-4.4345,-4.4715,-4.5061,-4.4965,-4.4544,-4.4204,-4.5208,-4.5435,-4.4933,-4.5565,-4.5597,-4.5046,-4.4917,-4.4836,-4.4755,-4.4755,-4.4447,-4.3816,-4.3265,-4.3249,-4.3783,-4.3751,-4.3475,-4.3013,-4.2932,-4.319,-4.3571,-4.4047,-4.4519,-4.5069,-4.5425,-4.5473,-4.5047,-4.5106,-4.4869,-4.4255,-4.4817,-4.5484,-4.6067,-4.6242,-4.621,-4.6127,-4.6112,-4.6182,-4.6182,-4.6199,-4.6777,-4.7648,-4.8012,-4.8013,-4.8082,-4.8012,-4.7995,-4.8187,-4.8186,-4.831,-4.8697,-4.8783,-4.8988,-4.9386,-4.9865,-5.0046,-5.0353,-5.0443,-5.0353,-5.0335,-5.0297,-5.0142,-4.9891,-4.9754,-4.9683,-4.998,-4.9643,-4.9454,-4.9543,-4.9607,-4.9783,-5.0073,-5.0289,-5.0595,-5.0889,-5.1,-5.0817,-5.1237,-5.1083,-5.1046,-5.0904,-5.0872,-5.0817,-5.0446,-5.0409,-5.0652,-5.0725,-5.0597,-5.0785,-4.1853,-4.1647,-4.1814,-4.1995,-4.2092,-4.2092,-4.2092,-4.2092,-4.2092,-4.1957,-4.1689,-4.1902,-4.2048,-4.2193,-4.2667,-4.2849,-4.2735,-4.3376,-4.4039,-4.4623,-4.4998,-4.5495,-4.5937,-4.5144,-4.4625,-4.4399,-4.4949,-4.4836,-4.4383,-4.4868,-4.4852,-4.4237,-4.4156,-4.3945,-4.3557,-4.3524,-4.3168,-4.2456,-4.218,-4.197,-4.1808,-4.1808,-4.1723,-4.1662,-4.1808,-4.2087,-4.2492,-4.298,-4.3469,-4.3958,-4.4246,-4.4405,-4.4318,-4.4331,-4.4255,-4.3939,-4.4202,-4.4518,-4.4817,-4.4834,-4.4804,-4.4756,-4.4756,-4.4756,-4.4791,-4.5176,-4.5723,-4.6265,-4.6704,-4.7017,-4.7086,-4.6984,-4.709,-4.756,-4.7631,-4.7857,-4.8622,-4.8841,-4.9106,-4.946,-4.9739,-4.9902,-5.0115,-5.0177,-5.009,-5.0001,-4.992,-4.9667,-4.9412,-4.9303,-4.9112,-4.8877,-4.8623,-4.8772,-4.9043,-4.8876,-4.8962,-4.9356,-4.9622,-4.982,-5.0263,-5.0643,-5.0762,-5.0729,-5.0618,-5.0417,-5.0141,-5.005,-4.9976,-4.9646,-4.9334,-4.9334,-4.9315,-4.9315,-4.9237,-4.198,-4.1829,-4.1995,-4.199,-4.1831,-4.1831,-4.1715,-4.1555,-4.1555,-4.1346,-4.1192,-4.1386,-4.1566,-4.1741,-4.2273,-4.26,-4.2738,-4.3097,-4.367,-4.4481,-4.4699,-4.5075,-4.5581,-4.4723,-4.4204,-4.4237,-4.4399,-4.4221,-4.38,-4.4221,-4.4123,-4.3508,-4.3411,-4.3055,-4.2407,-4.2342,-4.1986,-4.1338,-4.1112,-4.0756,-4.0286,-4.0027,-4.0225,-4.0743,-4.1099,-4.1442,-4.1816,-4.2339,-4.2826,-4.3247,-4.3475,-4.361,-4.3605,-4.3588,-4.3605,-4.3588,-4.3588,-4.3693,-4.3851,-4.3886,-4.3886,-4.3886,-4.3886,-4.3886,-4.3974,-4.4431,-4.4852,-4.5251,-4.5638,-4.6103,-4.6315,-4.6301,-4.6495,-4.6923,-4.6861,-4.7241,-4.7926,-4.8241,-4.8476,-4.9055,-4.9187,-4.9354,-4.9307,-4.8992,-4.8696,-4.8654,-4.8641,-4.8623,-4.8229,-4.8075,-4.7915,-4.7524,-4.7414,-4.7722,-4.8257,-4.8097,-4.805,-4.8017,-4.8279,-4.8464,-4.9197,-4.9331,-4.9646,-4.893,-4.9536,-4.9774,-4.9279,-4.9114,-4.8691,-4.7994,-4.7719,-4.7755,-4.7645,-4.7645,-4.7645,-4.1676,-4.2078,-4.2092,-4.17,-4.1149,-4.1149,-4.0771,-4.0321,-4.0249,-4.0284,-4.049,-4.0724,-4.0904,-4.1046,-4.1973,-4.2401,-4.2385,-4.2865,-4.2941,-4.28,-4.2815,-4.2781,-4.2812,-4.2747,-4.2747,-4.286,-4.3379,-4.367,-4.3654,-4.3702,-4.3379,-4.2747,-4.2699,-4.2342,-4.1759,-4.1646,-4.1274,-4.0577,-4.0011,-3.959,-3.946,-3.8861,-3.9373,-4.0721,-4.1205,-4.1588,-4.2272,-4.2792,-4.3178,-4.3633,-4.3658,-4.3489,-4.2938,-4.2851,-4.2851,-4.2851,-4.2851,-4.3149,-4.3693,-4.3746,-4.3763,-4.3799,-4.3693,-4.3816,-4.3722,-4.3898,-4.4314,-4.5164,-4.5293,-4.5693,-4.6212,-4.6442,-4.6376,-4.5924,-4.59,-4.6061,-4.6167,-4.6572,-4.6928,-4.7609,-4.8016,-4.7941,-4.7289,-4.6468,-4.6316,-4.6184,-4.6002,-4.6077,-4.63,-4.6137,-4.6157,-4.6195,-4.6195,-4.6305,-4.6907,-4.7069,-4.678,-4.6763,-4.68,-4.6342,-4.6159,-4.6195,-4.6746,-4.7168,-4.7573,-4.7885,-4.8049,-4.7792,-4.715,-4.6636,-4.6434,-4.6361,-4.6599,-4.6195,-4.6269,-4.1403,-4.1468,-4.1453,-4.1076,-4.0481,-4.0466,-4.0307,-4.0104,-4.0104,-4.0042,-4.003,-4.0138,-4.0367,-4.0683,-4.1249,-4.1716,-4.2066,-4.2428,-4.2864,-4.3105,-4.2781,-4.2877,-4.3217,-4.2423,-4.1954,-4.2002,-4.2213,-4.2648,-4.313,-4.2818,-4.2733,-4.2785,-4.2333,-4.1931,-4.1655,-4.1156,-4.0545,-3.9897,-3.9573,-3.9266,-3.8829,-3.8594,-3.8949,-3.9654,-3.9963,-4.0447,-4.1036,-4.1405,-4.1729,-4.2073,-4.2137,-4.2153,-4.2033,-4.2043,-4.2043,-4.2043,-4.2043,-4.2148,-4.2394,-4.2429,-4.2429,-4.2429,-4.2519,-4.2617,-4.2652,-4.3049,-4.358,-4.405,-4.4689,-4.5151,-4.5445,-4.5891,-4.6177,-4.6065,-4.5641,-4.5438,-4.5562,-4.5667,-4.5914,-4.6245,-4.6497,-4.6522,-4.6303,-4.5955,-4.5809,-4.5772,-4.5716,-4.5718,-4.581,-4.5865,-4.5773,-4.5883,-4.5883,-4.581,-4.5443,-4.603,-4.6195,-4.6049,-4.5993,-4.5993,-4.5847,-4.5827,-4.6323,-4.6452,-4.6488,-4.6525,-4.6985,-4.6875,-4.6176,-4.5993,-4.5754,-4.5571,-4.5902,-4.5571,-4.5645,-4.1169,-4.1091,-4.0858,-4.0408,-3.9828,-3.9813,-3.9668,-3.9509,-3.9479,-3.9401,-3.9383,-3.9475,-3.9798,-4.0347,-4.082,-4.115,-4.1596,-4.2141,-4.2653,-4.2958,-4.252,-4.2439,-4.2472,-4.1678,-4.1225,-4.1286,-4.1286,-4.1683,-4.2162,-4.189,-4.1966,-4.2343,-4.1738,-4.1352,-4.1032,-4.0459,-3.9833,-3.9266,-3.9136,-3.8877,-3.844,-3.8544,-3.8821,-3.9131,-3.9435,-3.9867,-4.0337,-4.0648,-4.0918,-4.1163,-4.1209,-4.13,-4.1453,-4.1498,-4.156,-4.156,-4.156,-4.1604,-4.1604,-4.1648,-4.1666,-4.1648,-4.1797,-4.1841,-4.1919,-4.2422,-4.2888,-4.3433,-4.3996,-4.4558,-4.507,-4.54,-4.5567,-4.5653,-4.5258,-4.4989,-4.5028,-4.5144,-4.5328,-4.5641,-4.557,-4.548,-4.5389,-4.5169,-4.5059,-4.5077,-4.5077,-4.5113,-4.5148,-4.5184,-4.5237,-4.522,-4.5127,-4.4906,-4.4685,-4.4943,-4.511,-4.5,-4.5073,-4.5257,-4.5404,-4.5457,-4.5565,-4.5711,-4.5766,-4.5782,-4.5782,-4.5748,-4.5655,-4.5473,-4.5035,-4.4706,-4.4891,-4.5002,-4.4984,-4.0862,-4.0916,-4.0379,-3.9741,-3.9218,-3.9189,-3.8841,-3.8405,-3.8318,-3.8512,-3.8647,-3.8752,-3.9175,-3.9859,-4.0467,-4.0821,-4.0976,-4.1882,-4.2054,-4.1678,-4.1533,-4.116,-4.0675,-4.048,-4.0367,-4.0442,-4.0609,-4.0792,-4.1023,-4.1049,-4.1082,-4.104,-4.0874,-4.0473,-3.9789,-3.9641,-3.912,-3.8634,-3.8505,-3.844,-3.8448,-3.8655,-3.8969,-3.9382,-3.9816,-4.0171,-4.0485,-4.084,-4.1076,-4.1163,-4.1209,-4.1209,-4.1255,-4.1363,-4.1426,-4.1426,-4.1515,-4.1604,-4.1604,-4.1754,-4.178,-4.1841,-4.1945,-4.1987,-4.2005,-4.2101,-4.2512,-4.3322,-4.3701,-4.4191,-4.5089,-4.5004,-4.4711,-4.4473,-4.462,-4.4583,-4.4528,-4.4619,-4.4966,-4.5407,-4.5112,-4.4745,-4.4544,-4.4213,-4.3883,-4.3828,-4.386,-4.3913,-4.4021,-4.4091,-4.3937,-4.3937,-4.4125,-4.4217,-4.3992,-4.3808,-4.3812,-4.3815,-4.3928,-4.4094,-4.4312,-4.4454,-4.4727,-4.4857,-4.502,-4.5053,-4.5053,-4.4983,-4.4746,-4.4528,-4.411,-4.3986,-4.4118,-4.4265,-4.4028,-4.0182,-3.9642,-3.9503,-3.9102,-3.8551,-3.8507,-3.8376,-3.8217,-3.8202,-3.8292,-3.8428,-3.8252,-3.8534,-3.913,-3.9375,-3.9705,-4.0133,-4.0729,-4.0942,-4.0772,-4.0367,-4.0059,-3.9752,-3.9298,-3.9113,-3.9211,-3.9324,-3.9755,-4.0294,-4.0489,-4.0776,-4.0976,-4.0443,-4.0018,-3.9642,-3.9105,-3.8586,-3.844,-3.8391,-3.8464,-3.8576,-3.8821,-3.9131,-3.9609,-4.0037,-4.0355,-4.0631,-4.084,-4.1029,-4.1123,-4.1123,-4.1152,-4.1226,-4.1318,-4.1426,-4.1426,-4.1515,-4.1648,-4.1754,-4.1797,-4.1841,-4.1945,-4.2012,-4.2055,-4.2079,-4.224,-4.2512,-4.3044,-4.326,-4.3651,-4.3998,-4.4136,-4.4209,-4.4564,-4.4213,-4.392,-4.3851,-4.3832,-4.3923,-4.414,-4.4011,-4.3901,-4.3864,-4.3587,-4.3618,-4.36,-4.3667,-4.3719,-4.3753,-4.3786,-4.3804,-4.3804,-4.3804,-4.3837,-4.3818,-4.3851,-4.3818,-4.3767,-4.3734,-4.3716,-4.3818,-4.3888,-4.4054,-4.4198,-4.4323,-4.4378,-4.436,-4.4304,-4.4161,-4.4036,-4.3952,-4.3812,-4.3652,-4.36,-4.3566,-3.9347,-3.888,-3.8851,-3.8594,-3.8217,-3.8202,-3.8202,-3.8202,-3.8202,-3.8161,-3.8032,-3.7871,-3.7961,-3.8333,-3.8565,-3.8904,-3.9233,-3.969,-3.9801,-3.9768,-3.9638,-3.9347,-3.9088,-3.8634,-3.8464,-3.8576,-3.8727,-3.9034,-3.9588,-3.9748,-3.9946,-4.0137,-3.9706,-3.938,-3.9251,-3.8748,-3.8391,-3.8391,-3.8391,-3.8504,-3.8711,-3.8969,-3.9382,-3.9833,-4.0238,-4.0551,-4.0745,-4.0888,-4.0935,-4.1,-4.1047,-4.1076,-4.1088,-4.1226,-4.1318,-4.1363,-4.1515,-4.1648,-4.1754,-4.1762,-4.1823,-4.1927,-4.2012,-4.2079,-4.2121,-4.2305,-4.2508,-4.2804,-4.3049,-4.3322,-4.3584,-4.3738,-4.3977,-4.4281,-4.3931,-4.3584,-4.3481,-4.3446,-4.3465,-4.3589,-4.355,-4.3513,-4.3548,-4.3634,-4.3686,-4.3667,-4.3786,-4.3837,-4.3851,-4.3832,-4.3851,-4.3883,-4.3883,-4.3897,-4.3865,-4.3915,-4.3915,-4.3865,-4.3865,-4.3846,-4.3897,-4.3929,-4.404,-4.404,-4.4128,-4.4165,-4.4165,-4.4109,-4.4003,-4.3915,-4.3883,-4.3818,-4.3701,-4.3634,-4.3582,-3.8617,-3.875,-3.8388,-3.8246,-3.8202,-3.8202,-3.8202,-3.8202,-3.813,-3.781,-3.7477,-3.7417,-3.7379,-3.7434,-3.7938,-3.823,-3.8308,-3.8774,-3.893,-3.882,-3.8991,-3.9039,-3.8553,-3.844,-3.8464,-3.856,-3.8616,-3.8688,-3.8936,-3.8975,-3.8821,-3.8913,-3.8818,-3.8649,-3.8658,-3.8464,-3.8391,-3.8391,-3.8391,-3.856,-3.8805,-3.9169,-3.9644,-4.0087,-4.0436,-4.0745,-4.0823,-4.0871,-4.0871,-4.0871,-4.0935,-4.0918,-4.0918,-4.1088,-4.1209,-4.1209,-4.1453,-4.1604,-4.1648,-4.1736,-4.1841,-4.1841,-4.1945,-4.203,-4.2121,-4.2287,-4.253,-4.2862,-4.3123,-4.3393,-4.3686,-4.3804,-4.3841,-4.3771,-4.3671,-4.3566,-4.3479,-4.3497,-4.3513,-4.3513,-4.3548,-4.3634,-4.3615,-4.3719,-4.3786,-4.3837,-4.3869,-4.3915,-4.3929,-4.391,-4.3974,-4.3974,-4.3961,-4.3961,-4.3929,-4.3961,-4.3961,-4.3961,-4.3929,-4.391,-4.3942,-4.3974,-4.3974,-4.3974,-4.4005,-4.4005,-4.4005,-4.3992,-4.3992,-4.3961,-4.3929,-4.3883,-4.3818,-4.3734,-4.3667,-3.8282,-3.793,-3.8124,-3.8202,-3.8202,-3.8202,-3.8202,-3.8144,-3.7723,-3.7476,-3.7201,-3.647,-3.635,-3.6439,-3.6637,-3.6939,-3.7539,-3.7927,-3.8258,-3.8383,-3.857,-3.8602,-3.8424,-3.8391,-3.8448,-3.8576,-3.8576,-3.8655,-3.8805,-3.875,-3.8766,-3.8672,-3.8616,-3.856,-3.8464,-3.8391,-3.8391,-3.8391,-3.8391,-3.86,-3.8969,-3.9276,-3.9696,-4.0238,-4.0534,-4.0745,-4.0888,-4.0871,-4.0871,-4.0871,-4.0871,-4.0871,-4.0918,-4.1071,-4.1209,-4.1255,-4.1453,-4.1666,-4.1736,-4.178,-4.1841,-4.1945,-4.1945,-4.2012,-4.2103,-4.2351,-4.2631,-4.2938,-4.325,-4.3582,-4.3771,-4.3851,-4.3818,-4.3667,-4.36,-4.3566,-4.3532,-4.3548,-4.3582,-4.3582,-4.3667,-4.3701,-4.3734,-4.38,-4.3883,-4.3883,-4.3929,-4.3992,-4.3974,-4.3974,-4.4005,-4.4005,-4.3974,-4.4005,-4.4005,-4.4005,-4.4005,-4.3992,-4.3974,-4.3974,-4.3974,-4.3974,-4.4005,-4.4005,-4.4005,-4.4005,-4.4005,-4.4005,-4.4005,-4.4005,-4.3992,-4.3929,-4.3897,-4.3832,-4.3786,-3.7939,-3.7625,-3.8052,-3.8202,-3.8202,-3.8202,-3.8202,-3.8086,-3.7564,-3.7128,-3.6779,-3.6018,-3.5595,-3.5637,-3.5883,-3.6383,-3.7058,-3.7508,-3.7934,-3.8351,-3.8424,-3.8408,-3.8391,-3.8391,-3.8464,-3.852,-3.8504,-3.856,-3.86,-3.8639,-3.86,-3.856,-3.852,-3.8464,-3.8391,-3.8391,-3.8391,-3.8391,-3.8488,-3.8766,-3.9169,-3.954,-3.9952,-4.0387,-4.068,-4.084,-4.0888,-4.0871,-4.0871,-4.0871,-4.0871,-4.0871,-4.0918,-4.1071,-4.1209,-4.1192,-4.1453,-4.1648,-4.1692,-4.1692,-4.1754,-4.1815,-4.1858,-4.1952,-4.2145,-4.2432,-4.2747,-4.305,-4.3444,-4.3701,-4.3818,-4.3883,-4.3832,-4.3701,-4.3634,-4.36,-4.3566,-4.3582,-4.3634,-4.3667,-4.3767,-4.3851,-4.3818,-4.3897,-4.3929,-4.3961,-4.3974,-4.3974,-4.4005,-4.4005,-4.4005,-4.4005,-4.4005,-4.4005,-4.4005,-4.4005,-4.4005,-4.4005,-4.4005,-4.4005,-4.4005,-4.4005,-4.4005,-4.4005,-4.4005,-4.4005,-4.4005,-4.4005,-4.4005,-4.4005,-4.4005,-4.3992,-4.3929,-4.3897,-4.3883,-3.761,-3.761,-3.8052,-3.8202,-3.8202,-3.8202,-3.8202,-3.8101,-3.7564,-3.6939,-3.6315,-3.5787,-3.5365,-3.4935,-3.5604,-3.6258,-3.6906,-3.7433,-3.7918,-3.8278,-3.8391,-3.8391,-3.8391,-3.8391,-3.8408,-3.8391,-3.8391,-3.8391,-3.8448,-3.8391,-3.8391,-3.8408,-3.8408,-3.8408,-3.8391,-3.8391,-3.8408,-3.8504,-3.8711,-3.9023,-3.9435,-3.9816,-4.0238,-4.0583,-4.0776,-4.0871,-4.0888,-4.0935,-4.0918,-4.0935,-4.0935,-4.0935,-4.0965,-4.1134,-4.1209,-4.1255,-4.1453,-4.1604,-4.1604,-4.1648,-4.1648,-4.1736,-4.1823,-4.1952,-4.2187,-4.2516,-4.2864,-4.316,-4.3566,-4.3818,-4.3915,-4.3897,-4.3865,-4.3818,-4.3786,-4.3753,-4.3667,-4.3634,-4.3667,-4.3786,-4.3865,-4.3915,-4.3929,-4.3961,-4.4005,-4.3992,-4.4005,-4.4005,-4.4005,-4.4005,-4.4005,-4.4005,-4.4005,-4.4005,-4.4005,-4.4005,-4.4005,-4.4005,-4.4005,-4.4005,-4.4005,-4.4005,-4.4005,-4.4005,-4.4005,-4.4005,-4.4005,-4.4005,-4.4005,-4.4005,-4.4005,-4.3992,-4.3929,-4.391,-4.3929,-3.761,-3.761,-3.8066,-3.8202,-3.8202,-3.8202,-3.8202,-3.8159,-3.7564,-3.6925,-3.6272,-3.5703,-3.5268,-3.492,-3.5429,-3.6039,-3.6906,-3.7358,-3.7786,-3.8335,-3.8391,-3.8391,-3.8391,-3.8391,-3.8391,-3.8391,-3.8391,-3.8391,-3.8391,-3.8391,-3.8391,-3.8391,-3.8391,-3.8391,-3.8391,-3.8408,-3.8464,-3.856,-3.8821,-3.9185,-3.9609,-4.0037,-4.0404,-4.0697,-4.084,-4.0871,-4.0918,-4.0982,-4.1029,-4.1047,-4.1047,-4.1029,-4.1076,-4.1244,-4.1335,-4.1363,-4.1515,-4.1648,-4.1736,-4.178,-4.1805,-4.1977,-4.2061,-4.2145,-4.249,-4.2788,-4.305,-4.3321,-4.3649,-4.3915,-4.3961,-4.3974,-4.3961,-4.3897,-4.3865,-4.3865,-4.3814,-4.3832,-4.3832,-4.3865,-4.391,-4.3974,-4.3974,-4.3974,-4.4005,-4.4005,-4.4005,-4.4005,-4.4005,-4.4005,-4.4005,-4.4005,-4.4005,-4.4005,-4.4005,-4.4005,-4.4005,-4.4005,-4.4005,-4.4005,-4.4005,-4.4005,-4.4005,-4.4005,-4.4005,-4.4005,-4.4005,-4.4005,-4.4005,-4.4005,-4.4005,-4.3992,-4.3992,-4.3974,-4.3942,-3.761,-3.7625,-3.8066,-3.8202,-3.8202,-3.8202,-3.8202,-3.8086,-3.7578,-3.6939,-3.6272,-3.5703,-3.5268,-3.4949,-3.5429,-3.618,-3.6906,-3.7594,-3.8033,-3.8335,-3.8391,-3.8391,-3.8391,-3.8391,-3.8391,-3.8391,-3.8391,-3.8391,-3.8391,-3.8391,-3.8391,-3.8391,-3.8391,-3.8391,-3.8391,-3.8448,-3.856,-3.8766,-3.9131,-3.9504,-3.9867,-4.0288,-4.06,-4.0728,-4.0871,-4.0935,-4.0982,-4.1047,-4.1123,-4.1152,-4.1215,-4.1215,-4.1198,-4.129,-4.138,-4.1426,-4.1604,-4.1736,-4.1823,-4.1995,-4.2103,-4.2251,-4.2374,-4.2573,-4.2806,-4.3087,-4.3338,-4.3529,-4.3749,-4.3942,-4.4005,-4.4005,-4.3974,-4.3942,-4.3942,-4.3961,-4.3961,-4.3929,-4.3929,-4.3942,-4.3974,-4.4005,-4.4005,-4.4005,-4.4005,-4.4005,-4.4005,-4.4005,-4.4005,-4.4005,-4.4005,-4.4005,-4.4005,-4.4005,-4.4005,-4.4005,-4.4005,-4.4005,-4.4005,-4.4005,-4.4005,-4.4005,-4.4005,-4.4005,-4.4005,-4.4005,-4.4005,-4.4005,-4.4005,-4.4005,-4.4005,-4.4005,-4.4005,-4.3974,-4.3974,-3.761,-3.761,-3.8052,-3.8202,-3.8188,-3.8101,-3.8028,-3.7955,-3.7418,-3.6693,-3.6241,-3.5755,-3.5321,-3.517,-3.5653,-3.6321,-3.7103,-3.7828,-3.8335,-3.8391,-3.8391,-3.8391,-3.8391,-3.8391,-3.8391,-3.8391,-3.8391,-3.8391,-3.8391,-3.8391,-3.8391,-3.8391,-3.8391,-3.8391,-3.8448,-3.8504,-3.8655,-3.8898,-3.9398,-3.9816,-4.0171,-4.0534,-4.0793,-4.0888,-4.0935,-4.0982,-4.1076,-4.1169,-4.1186,-4.1209,-4.1363,-4.1363,-4.1318,-4.1363,-4.1471,-4.1471,-4.1692,-4.1849,-4.2061,-4.2228,-4.2432,-4.2516,-4.2788,-4.2976,-4.3142,-4.3373,-4.3615,-4.3749,-4.3929,-4.4005,-4.4005,-4.4005,-4.4005,-4.3974,-4.3974,-4.3974,-4.3942,-4.3929,-4.3929,-4.3974,-4.4005,-4.4005,-4.4005,-4.4005,-4.4005,-4.4005,-4.4005,-4.4005,-4.4005,-4.4005,-4.4005,-4.4005,-4.4005,-4.4005,-4.4005,-4.4005,-4.4005,-4.4005,-4.4005,-4.4005,-4.4005,-4.4005,-4.4005,-4.4005,-4.4005,-4.4005,-4.4005,-4.4005,-4.4005,-4.4005,-4.4005,-4.4005,-4.4005,-4.4005,-4.4005,-3.761,-3.761,-3.8052,-3.8202,-3.8115,-3.768,-3.7447,-3.7346,-3.678,-3.6127,-3.5645,-3.558,-3.5472,-3.5347,-3.5718,-3.6585,-3.7492,-3.8107,-3.8408,-3.8408,-3.8391,-3.8391,-3.8391,-3.8391,-3.8391,-3.8391,-3.8391,-3.8391,-3.8391,-3.8391,-3.8391,-3.8391,-3.8391,-3.8391,-3.8448,-3.856,-3.8805,-3.9115,-3.9609,-4.0037,-4.0387,-4.068,-4.0935,-4.1047,-4.1047,-4.1105,-4.118,-4.129,-4.1335,-4.138,-4.1515,-4.156,-4.156,-4.156,-4.1604,-4.1719,-4.1849,-4.2044,-4.2292,-4.2516,-4.275,-4.2995,-4.3178,-4.3321,-4.3495,-4.3649,-4.3767,-4.3865,-4.3961,-4.4005,-4.4005,-4.4005,-4.3974,-4.391,-4.3929,-4.3897,-4.3883,-4.3883,-4.3929,-4.3974,-4.3974,-4.4005,-4.4005,-4.4005,-4.4005,-4.4005,-4.4005,-4.4005,-4.4005,-4.4005,-4.4005,-4.4005,-4.4005,-4.4005,-4.4005,-4.4005,-4.4005,-4.4005,-4.4005,-4.4005,-4.4005,-4.4005,-4.4005,-4.4005,-4.4005,-4.4005,-4.4005,-4.4005,-4.4005,-4.4005,-4.4005,-4.4005,-4.4055,-4.4055,-4.4055,-3.7701,-3.7749,-3.7734,-3.7738,-3.7622,-3.707,-3.678,-3.6751,-3.6431,-3.5952,-3.5642,-3.559,-3.5472,-3.5398,-3.591,-3.6846,-3.7685,-3.8107,-3.8351,-3.8408,-3.8391,-3.8391,-3.8391,-3.8391,-3.8391,-3.8391,-3.8391,-3.8391,-3.8391,-3.8391,-3.8391,-3.8391,-3.8391,-3.8391,-3.8448,-3.8727,-3.8969,-3.9329,-3.9816,-4.0238,-4.06,-4.0888,-4.1047,-4.1093,-4.1123,-4.118,-4.129,-4.1363,-4.1453,-4.1604,-4.1692,-4.1754,-4.1797,-4.1797,-4.1841,-4.1892,-4.2044,-4.2315,-4.2634,-4.2864,-4.3124,-4.3338,-4.3529,-4.3649,-4.3749,-4.3814,-4.3897,-4.3961,-4.3992,-4.4005,-4.4005,-4.4005,-4.3974,-4.3929,-4.3897,-4.3883,-4.3818,-4.3883,-4.3897,-4.3942,-4.3974,-4.4005,-4.4005,-4.4005,-4.4005,-4.4005,-4.4005,-4.4005,-4.4005,-4.4005,-4.4005,-4.4005,-4.4005,-4.4005,-4.4005,-4.4005,-4.4005,-4.4005,-4.4005,-4.4005,-4.4005,-4.4005,-4.4005,-4.4005,-4.4005,-4.4023,-4.4005,-4.4005,-4.4005,-4.4005,-4.4023,-4.4055,-4.4104,-4.4104,-4.4147,-3.763,-3.7713,-3.7432,-3.723,-3.7012,-3.6388,-3.6112,-3.6098,-3.5952,-3.559,-3.5296,-3.5468,-3.5392,-3.5368,-3.6085,-3.7013,-3.7876,-3.8107,-3.8294,-3.8408,-3.8391,-3.8391,-3.8391,-3.8391,-3.8391,-3.8391,-3.8391,-3.8391,-3.8391,-3.8391,-3.8391,-3.8391,-3.8391,-3.8448,-3.856,-3.8876,-3.9185,-3.9609,-4.002,-4.0453,-4.0745,-4.1,-4.114,-4.1186,-4.1244,-4.1318,-4.1471,-4.1515,-4.1604,-4.1754,-4.1841,-4.1902,-4.1987,-4.203,-4.2055,-4.2103,-4.2297,-4.2595,-4.292,-4.325,-4.3461,-4.3631,-4.3814,-4.3897,-4.3929,-4.3942,-4.3974,-4.4005,-4.4005,-4.4005,-4.4005,-4.4005,-4.3942,-4.391,-4.3897,-4.3865,-4.3851,-4.3851,-4.3865,-4.391,-4.3974,-4.3974,-4.4005,-4.4005,-4.4005,-4.4005,-4.4005,-4.4005,-4.4005,-4.4005,-4.4005,-4.4005,-4.4005,-4.4005,-4.4005,-4.4005,-4.4005,-4.4005,-4.4005,-4.4005,-4.4005,-4.4005,-4.4005,-4.4005,-4.4055,-4.4085,-4.4055,-4.4005,-4.4005,-4.4005,-4.4023,-4.4085,-4.4165,-4.4255,-4.4296,-3.7372,-3.7109,-3.7258,-3.6968,-3.6373,-3.5735,-3.5473,-3.5401,-3.4951,-3.4617,-3.4617,-3.4882,-3.5119,-3.5409,-3.6305,-3.7118,-3.7626,-3.7992,-3.8221,-3.8335,-3.8391,-3.8391,-3.8391,-3.8391,-3.8391,-3.8391,-3.8391,-3.8391,-3.8391,-3.8391,-3.8391,-3.8391,-3.8391,-3.8504,-3.8766,-3.9077,-3.947,-3.9969,-4.032,-4.068,-4.0982,-4.1152,-4.1244,-4.1335,-4.138,-4.1515,-4.1692,-4.1692,-4.1797,-4.1945,-4.1962,-4.1987,-4.203,-4.2181,-4.2387,-4.2472,-4.2652,-4.2826,-4.316,-4.3479,-4.3734,-4.3814,-4.3961,-4.3974,-4.3974,-4.3974,-4.4005,-4.4005,-4.4005,-4.4005,-4.4005,-4.4005,-4.3942,-4.3929,-4.3897,-4.3851,-4.3818,-4.3851,-4.3897,-4.3929,-4.3942,-4.3974,-4.4005,-4.4005,-4.4005,-4.4005,-4.4005,-4.4005,-4.4005,-4.4005,-4.4005,-4.4005,-4.4005,-4.4005,-4.4005,-4.4005,-4.4005,-4.4005,-4.4005,-4.4005,-4.4005,-4.4005,-4.4005,-4.4055,-4.4116,-4.4165,-4.4147,-4.4097,-4.4036,-4.4085,-4.4147,-4.4207,-4.4255,-4.4354,-4.4468,-3.7238,-3.7083,-3.6519,-3.6054,-3.5706,-3.5096,-3.482,-3.4762,-3.4545,-3.4414,-3.4414,-3.4683,-3.5001,-3.5574,-3.6196,-3.6754,-3.7389,-3.7759,-3.8049,-3.8278,-3.8335,-3.8391,-3.8391,-3.8391,-3.8391,-3.8391,-3.8391,-3.8391,-3.8391,-3.8391,-3.8391,-3.8408,-3.8504,-3.8672,-3.8969,-3.9292,-3.9731,-4.0237,-4.0676,-4.0995,-4.1152,-4.1272,-4.1363,-4.1408,-4.156,-4.1692,-4.178,-4.1884,-4.1927,-4.203,-4.2055,-4.2097,-4.2199,-4.2364,-4.2508,-4.2747,-4.2957,-4.316,-4.3426,-4.3682,-4.3865,-4.3929,-4.3992,-4.4005,-4.4005,-4.4005,-4.4005,-4.4005,-4.4005,-4.4005,-4.4005,-4.4005,-4.3961,-4.3929,-4.3897,-4.3865,-4.3851,-4.3865,-4.3897,-4.3929,-4.3942,-4.3974,-4.4005,-4.4005,-4.4005,-4.4005,-4.4005,-4.4005,-4.4005,-4.4005,-4.4005,-4.4005,-4.4005,-4.4005,-4.4005,-4.4005,-4.4005,-4.4005,-4.4005,-4.4005,-4.4036,-4.4036,-4.4067,-4.4147,-4.4237,-4.4266,-4.4248,-4.4248,-4.4266,-4.4266,-4.4314,-4.4383,-4.4468,-4.4532,-4.464,-3.6664,-3.6722,-3.5778,-3.527,-3.5082,-3.4617,-3.4428,-3.4414,-3.4428,-3.4414,-3.4481,-3.4631,-3.5067,-3.5574,-3.5973,-3.6461,-3.7118,-3.7508,-3.7876,-3.8164,-3.8335,-3.8391,-3.8391,-3.8391,-3.8391,-3.8391,-3.8391,-3.8391,-3.8391,-3.8408,-3.8408,-3.8464,-3.8672,-3.8931,-3.9239,-3.9696,-4.0137,-4.0628,-4.1007,-4.1209,-4.1272,-4.138,-4.1471,-4.156,-4.1692,-4.1823,-4.1884,-4.197,-4.2055,-4.2121,-4.2163,-4.2205,-4.2346,-4.2486,-4.2706,-4.2975,-4.3214,-4.3461,-4.3631,-4.3814,-4.3942,-4.3974,-4.4005,-4.4005,-4.4005,-4.4005,-4.4005,-4.4005,-4.4005,-4.4005,-4.4005,-4.4005,-4.3974,-4.3961,-4.3929,-4.3915,-4.3883,-4.3897,-4.3929,-4.3942,-4.3974,-4.3974,-4.4005,-4.4005,-4.4005,-4.4005,-4.4005,-4.4005,-4.4005,-4.4005,-4.4005,-4.4005,-4.4005,-4.4005,-4.4005,-4.4005,-4.4005,-4.4036,-4.4036,-4.4097,-4.4147,-4.4207,-4.4266,-4.4325,-4.4383,-4.4468,-4.4505,-4.4496,-4.4487,-4.4496,-4.4524,-4.4613,-4.4693,-4.477,-4.4852,-3.5488,-3.5488,-3.5456,-3.5009,-3.4516,-3.4443,-3.4414,-3.4414,-3.4414,-3.4414,-3.4414,-3.4631,-3.4964,-3.5489,-3.5846,-3.6321,-3.6906,-3.7433,-3.7801,-3.8107,-3.8335,-3.8391,-3.8391,-3.8391,-3.8391,-3.8391,-3.8391,-3.8391,-3.8391,-3.8448,-3.852,-3.8616,-3.8821,-3.9276,-3.9731,-4.017,-4.058,-4.1024,-4.13,-4.1363,-4.1426,-4.1515,-4.1648,-4.1736,-4.178,-4.1909,-4.2079,-4.2121,-4.2163,-4.2228,-4.2246,-4.2346,-4.2445,-4.2627,-4.288,-4.3105,-4.3391,-4.3649,-4.3814,-4.391,-4.3974,-4.4005,-4.4005,-4.4005,-4.4005,-4.4005,-4.4005,-4.4005,-4.4005,-4.4005,-4.4005,-4.4005,-4.3974,-4.3974,-4.3992,-4.3961,-4.3961,-4.3961,-4.3974,-4.4005,-4.4023,-4.4055,-4.4085,-4.4116,-4.4036,-4.4005,-4.4005,-4.4005,-4.4005,-4.4005,-4.4005,-4.4005,-4.4005,-4.4005,-4.4005,-4.4036,-4.4085,-4.4147,-4.4177,-4.4266,-4.4354,-4.4383,-4.4468,-4.4551,-4.4632,-4.4712,-4.4764,-4.477,-4.477,-4.4719,-4.4745,-4.4846,-4.4948,-4.5042,-4.5154,-3.5125,-3.4777,-3.4777,-3.4646,-3.4414,-3.4414,-3.4414,-3.4414,-3.4414,-3.4414,-3.4414,-3.4481,-3.475,-3.5148,-3.5494,-3.5991,-3.6631,-3.7238,-3.7669,-3.7992,-3.8237,-3.8335,-3.8391,-3.8391,-3.8391,-3.8391,-3.8391,-3.8391,-3.8391,-3.8448,-3.8672,-3.8821,-3.9061,-3.9523,-4.002,-4.0628,-4.1071,-4.1272,-4.1453,-4.156,-4.1648,-4.1692,-4.1797,-4.1884,-4.1952,-4.2037,-4.2103,-4.2187,-4.2228,-4.2269,-4.2287,-4.2405,-4.2544,-4.2745,-4.3013,-4.325,-4.3548,-4.3767,-4.391,-4.3974,-4.4005,-4.4005,-4.4005,-4.4005,-4.4005,-4.4005,-4.4005,-4.4005,-4.4005,-4.4005,-4.4005,-4.4005,-4.4005,-4.4005,-4.4005,-4.4005,-4.4023,-4.4055,-4.4085,-4.4116,-4.4147,-4.4195,-4.4226,-4.4237,-4.4116,-4.4036,-4.4005,-4.4005,-4.4005,-4.4005,-4.4005,-4.4023,-4.4023,-4.4055,-4.4036,-4.4085,-4.4165,-4.4255,-4.4344,-4.444,-4.4551,-4.4632,-4.4693,-4.4764,-4.4865,-4.4962,-4.5033,-4.508,-4.5038,-4.4948,-4.5014,-4.5129,-4.5216,-4.53,-4.538,-3.482,-3.4428,-3.4414,-3.4414,-3.4414,-3.4414,-3.4414,-3.4414,-3.4414,-3.4414,-3.4414,-3.4481,-3.4601,-3.4935,-3.5429,-3.5943,-3.6646,-3.7194,-3.761,-3.7976,-3.8294,-3.8391,-3.8391,-3.8391,-3.8391,-3.8391,-3.8391,-3.8391,-3.8391,-3.856,-3.8821,-3.9077,-3.9365,-3.9817,-4.0319,-4.1024,-4.1471,-4.1515,-4.1604,-4.1754,-4.1841,-4.1841,-4.1927,-4.2012,-4.2079,-4.2121,-4.2163,-4.2246,-4.2287,-4.2328,-4.2328,-4.2445,-4.2627,-4.2842,-4.3105,-4.3391,-4.3649,-4.3865,-4.3942,-4.4005,-4.4005,-4.4005,-4.4005,-4.4005,-4.4005,-4.4005,-4.4005,-4.4005,-4.4005,-4.4005,-4.4005,-4.4005,-4.4005,-4.4005,-4.4005,-4.4005,-4.4055,-4.4104,-4.4195,-4.4255,-4.4285,-4.4344,-4.4383,-4.4411,-4.4296,-4.4177,-4.4085,-4.4055,-4.4005,-4.4005,-4.4005,-4.4023,-4.4055,-4.4055,-4.4085,-4.4177,-4.4314,-4.4411,-4.4496,-4.4613,-4.4719,-4.4821,-4.4943,-4.5057,-4.5148,-4.5213,-4.5256,-4.5258,-4.5258,-4.5197,-4.5258,-4.53,-4.5361,-4.5419,-4.5438,-3.4457,-3.4414,-3.4414,-3.4414,-3.4414,-3.4414,-3.4414,-3.4414,-3.4414,-3.4414,-3.4414,-3.4563,-3.475,-3.5001,-3.5574,-3.6148,-3.6723,-3.7329,-3.7817,-3.8107,-3.8294,-3.8408,-3.8391,-3.8391,-3.8391,-3.8391,-3.8408,-3.8408,-3.8391,-3.8616,-3.8914,-3.9435,-3.9817,-4.0252,-4.0628,-4.1255,-4.1648,-4.1736,-4.1797,-4.1841,-4.1927,-4.1987,-4.2012,-4.2079,-4.2121,-4.2205,-4.2246,-4.2305,-4.2346,-4.2369,-4.2468,-4.2645,-4.2822,-4.305,-4.3321,-4.3563,-4.3781,-4.391,-4.3986,-4.4005,-4.4005,-4.4005,-4.4005,-4.4005,-4.4005,-4.4005,-4.4005,-4.4005,-4.4005,-4.4005,-4.4005,-4.4005,-4.4005,-4.4005,-4.4005,-4.4085,-4.4135,-4.4226,-4.4314,-4.443,-4.4487,-4.4515,-4.4551,-4.4578,-4.444,-4.4344,-4.4226,-4.4135,-4.4085,-4.4085,-4.4085,-4.4128,-4.4177,-4.4207,-4.4266,-4.4354,-4.444,-4.4551,-4.4667,-4.4846,-4.4967,-4.5061,-4.5192,-4.5317,-4.5359,-4.536,-4.5419,-4.5457,-4.5419,-4.538,-4.5381,-4.5419,-4.5476,-4.5514,-4.5513,-3.4806,-3.4414,-3.4414,-3.4414,-3.4414,-3.4414,-3.4414,-3.4414,-3.4414,-3.4414,-3.4414,-3.4631,-3.475,-3.5067,-3.5653,-3.6289,-3.6785,-3.7405,-3.7876,-3.818,-3.8351,-3.8408,-3.8391,-3.8391,-3.8391,-3.8391,-3.8408,-3.8464,-3.8504,-3.8711,-3.9148,-3.9661,-4.0368,-4.0913,-4.1163,-4.156,-4.178,-4.1797,-4.1902,-4.1987,-4.2037,-4.2097,-4.2139,-4.2205,-4.2246,-4.2246,-4.2328,-4.2387,-4.2427,-4.2512,-4.2667,-4.2842,-4.3068,-4.3304,-4.3529,-4.3716,-4.3883,-4.3974,-4.4005,-4.4005,-4.4005,-4.4005,-4.4005,-4.4005,-4.4005,-4.4005,-4.4005,-4.4005,-4.4005,-4.4005,-4.4005,-4.4005,-4.4005,-4.4005,-4.4055,-4.4165,-4.4255,-4.4344,-4.4458,-4.4578,-4.4659,-4.4719,-4.4796,-4.4846,-4.477,-4.4613,-4.4496,-4.4325,-4.4237,-4.4237,-4.4237,-4.4296,-4.4325,-4.4383,-4.444,-4.4532,-4.464,-4.477,-4.4919,-4.5103,-4.5192,-4.5277,-4.532,-4.538,-4.5438,-4.5477,-4.5495,-4.5532,-4.555,-4.5531,-4.5513,-4.5495,-4.5531,-4.5568,-4.5568,-3.4791,-3.4428,-3.4414,-3.4414,-3.4414,-3.4414,-3.4414,-3.4414,-3.4414,-3.4414,-3.4481,-3.4683,-3.4883,-3.5198,-3.5782,-3.6414,-3.6892,-3.7508,-3.795,-3.8237,-3.8351,-3.8408,-3.8391,-3.8391,-3.8391,-3.8391,-3.8391,-3.8504,-3.8655,-3.8914,-3.9487,-4.0237,-4.0913,-4.1318,-4.1604,-4.1797,-4.1884,-4.1927,-4.2012,-4.2097,-4.2145,-4.2187,-4.2205,-4.2287,-4.2287,-4.2287,-4.2328,-4.2409,-4.2548,-4.267,-4.2862,-4.3069,-4.3304,-4.3513,-4.3716,-4.3832,-4.3929,-4.4005,-4.4005,-4.4005,-4.4005,-4.4005,-4.4005,-4.4005,-4.4005,-4.4005,-4.4005,-4.4005,-4.4005,-4.4005,-4.4005,-4.4005,-4.4005,-4.4036,-4.4116,-4.4195,-4.4373,-4.4487,-4.4632,-4.4764,-4.4895,-4.4967,-4.5019,-4.5084,-4.5103,-4.4943,-4.477,-4.4613,-4.444,-4.4411,-4.4411,-4.4449,-4.4505,-4.4587,-4.4667,-4.477,-4.487,-4.501,-4.5125,-4.5277,-4.532,-4.538,-4.5419,-4.5457,-4.5495,-4.5532,-4.555,-4.5568,-4.5568,-4.5586,-4.5586,-4.5586,-4.5586,-4.5586,-4.5586,-3.4385,-3.4356,-3.4356,-3.4298,-3.4327,-3.4283,-3.4356,-3.4414,-3.4414,-3.4414,-3.4414,-3.4735,-3.5016,-3.5344,-3.6115,-3.6723,-3.7134,-3.7685,-3.8049,-3.8278,-3.8408,-3.8391,-3.8391,-3.8391,-3.8391,-3.8391,-3.8448,-3.86,-3.8805,-3.9329,-4.0037,-4.0772,-4.1318,-4.1648,-4.1884,-4.197,-4.2012,-4.2037,-4.2121,-4.2163,-4.2228,-4.2287,-4.2287,-4.2287,-4.2287,-4.2328,-4.2369,-4.253,-4.267,-4.2844,-4.3032,-4.3304,-4.3497,-4.3667,-4.38,-4.3897,-4.3974,-4.4005,-4.4005,-4.4005,-4.4005,-4.4005,-4.4005,-4.4005,-4.4005,-4.4005,-4.4005,-4.4005,-4.4005,-4.4005,-4.4005,-4.4005,-4.4005,-4.4055,-4.4135,-4.4285,-4.4458,-4.4605,-4.477,-4.4943,-4.5106,-4.5194,-4.526,-4.532,-4.5298,-4.5194,-4.5042,-4.4943,-4.4796,-4.4613,-4.464,-4.4667,-4.4745,-4.4796,-4.4895,-4.5014,-4.5065,-4.5173,-4.5258,-4.54,-4.5438,-4.5495,-4.5513,-4.5531,-4.5568,-4.5586,-4.5586,-4.5586,-4.5586,-4.5586,-4.5586,-4.5586,-4.5586,-4.5586,-4.5586,-3.3891,-3.3079,-3.3064,-3.3079,-3.3137,-3.3543,-3.3993,-3.437,-3.4414,-3.4481,-3.4631,-3.4802,-3.5082,-3.5504,-3.6178,-3.6723,-3.7254,-3.7669,-3.8033,-3.8278,-3.8391,-3.8391,-3.8391,-3.8391,-3.8391,-3.8464,-3.8504,-3.8766,-3.9222,-3.9747,-4.05,-4.1255,-4.1604,-4.1866,-4.2037,-4.2163,-4.2163,-4.2163,-4.2187,-4.2246,-4.2287,-4.2287,-4.2287,-4.2287,-4.2328,-4.2328,-4.2468,-4.267,-4.2844,-4.3069,-4.3428,-4.3686,-4.3767,-4.3897,-4.3961,-4.3942,-4.4005,-4.4005,-4.4005,-4.4005,-4.4005,-4.4005,-4.4005,-4.4005,-4.4005,-4.4005,-4.4005,-4.4005,-4.4005,-4.4005,-4.4005,-4.4005,-4.4005,-4.4055,-4.4165,-4.4314,-4.4487,-4.4685,-4.4846,-4.5061,-4.5235,-4.5341,-4.54,-4.5457,-4.54,-4.5361,-4.53,-4.5216,-4.5125,-4.4943,-4.487,-4.4919,-4.4948,-4.5019,-4.5151,-4.5256,-4.53,-4.5361,-4.5419,-4.5477,-4.5495,-4.5513,-4.5568,-4.5586,-4.5586,-4.5586,-4.5586,-4.5586,-4.5586,-4.5586,-4.5586,-4.5586,-4.5586,-4.5586,-4.5586,-3.3224,-3.2556,-3.2513,-3.2513,-3.2585,-3.2933,-3.3325,-3.3769,-3.4167,-3.4481,-3.4698,-3.4935,-3.5279,-3.5797,-3.6399,-3.6952,-3.7449,-3.786,-3.8164,-3.8335,-3.8391,-3.8391,-3.8391,-3.8408,-3.8448,-3.852,-3.8672,-3.8914,-3.9523,-4.032,-4.1076,-4.1453,-4.1754,-4.1952,-4.2061,-4.2205,-4.2246,-4.2246,-4.2246,-4.2287,-4.2287,-4.2287,-4.2287,-4.2328,-4.2328,-4.2427,-4.2548,-4.2824,-4.3087,-4.3304,-4.3686,-4.3883,-4.3929,-4.3974,-4.4005,-4.4005,-4.4005,-4.4005,-4.4005,-4.4005,-4.4005,-4.4005,-4.4005,-4.4005,-4.4005,-4.4005,-4.4005,-4.4005,-4.4005,-4.4005,-4.4005,-4.4005,-4.4005,-4.4005,-4.4177,-4.4344,-4.4524,-4.4738,-4.4919,-4.5148,-4.5279,-4.5381,-4.5457,-4.5513,-4.5513,-4.5438,-4.54,-4.538,-4.5319,-4.5213,-4.517,-4.517,-4.5194,-4.5239,-4.536,-4.5438,-4.5438,-4.5438,-4.5476,-4.5532,-4.5531,-4.5568,-4.5586,-4.5586,-4.5586,-4.5586,-4.5586,-4.5586,-4.5586,-4.5586,-4.5586,-4.5586,-4.5586,-4.5586,-4.5586,-3.2527,-3.2513,-3.2513,-3.2513,-3.2513,-3.2556,-3.262,-3.2806,-3.382,-3.4485,-3.4684,-3.5118,-3.5539,-3.61,-3.6693,-3.7178,-3.761,-3.7992,-3.8237,-3.8391,-3.8391,-3.8391,-3.8408,-3.8408,-3.8504,-3.8616,-3.8876,-3.9276,-3.9901,-4.0631,-4.1261,-4.1604,-4.1797,-4.197,-4.2103,-4.2187,-4.2246,-4.2287,-4.2287,-4.2287,-4.2287,-4.2287,-4.2287,-4.2328,-4.2427,-4.2566,-4.2727,-4.2975,-4.3304,-4.3513,-4.3734,-4.3929,-4.3992,-4.4005,-4.4005,-4.4005,-4.4005,-4.4005,-4.4005,-4.4005,-4.4005,-4.4005,-4.4005,-4.4005,-4.4005,-4.4005,-4.4005,-4.4005,-4.4005,-4.4005,-4.4005,-4.4005,-4.4005,-4.4055,-4.4147,-4.4314,-4.444,-4.4685,-4.4919,-4.5148,-4.5298,-4.54,-4.5475,-4.5513,-4.555,-4.5513,-4.5495,-4.5476,-4.5438,-4.54,-4.5399,-4.5379,-4.538,-4.5361,-4.5438,-4.5495,-4.5514,-4.5532,-4.5568,-4.5586,-4.5568,-4.5586,-4.5586,-4.5586,-4.5586,-4.5586,-4.5586,-4.5586,-4.5586,-4.5586,-4.5586,-4.5586,-4.5586,-4.5586,-4.5586,-3.2513,-3.2513,-3.2513,-3.2513,-3.2513,-3.2625,-3.2674,-3.2752,-3.3206,-3.3868,-3.4599,-3.5224,-3.5897,-3.6353,-3.6828,-3.7322,-3.7764,-3.8075,-3.8294,-3.8351,-3.8391,-3.8391,-3.8408,-3.852,-3.86,-3.8805,-3.9169,-3.9731,-4.0385,-4.0995,-4.138,-4.1692,-4.1841,-4.1909,-4.2079,-4.2163,-4.2187,-4.2287,-4.2287,-4.2287,-4.2287,-4.2287,-4.2287,-4.2369,-4.2468,-4.2649,-4.2862,-4.3196,-4.3497,-4.3719,-4.3897,-4.3992,-4.4005,-4.4005,-4.4005,-4.4005,-4.4005,-4.4005,-4.4005,-4.4005,-4.4005,-4.4005,-4.4005,-4.4005,-4.4005,-4.4005,-4.4005,-4.4005,-4.4005,-4.4005,-4.4005,-4.4005,-4.4005,-4.4085,-4.4135,-4.4237,-4.4325,-4.4613,-4.4895,-4.5084,-4.5277,-4.538,-4.5457,-4.5513,-4.555,-4.5568,-4.5568,-4.5568,-4.555,-4.5514,-4.5495,-4.5477,-4.5457,-4.5476,-4.5532,-4.555,-4.555,-4.5568,-4.5586,-4.5586,-4.5586,-4.5586,-4.5586,-4.5586,-4.5586,-4.5586,-4.5586,-4.5586,-4.5586,-4.5586,-4.5586,-4.5586,-4.5586,-4.5586,-4.5586,-3.2737,-3.2737,-3.2737,-3.2737,-3.2694,-3.2507,-3.25,-3.2623,-3.2853,-3.3397,-3.4121,-3.479,-3.5385,-3.6097,-3.6625,-3.7181,-3.7648,-3.8108,-3.8303,-3.8408,-3.8391,-3.8391,-3.8464,-3.8576,-3.8766,-3.9023,-3.9627,-4.0286,-4.0884,-4.1117,-4.1408,-4.1692,-4.178,-4.1866,-4.2037,-4.2079,-4.2163,-4.2305,-4.2287,-4.2287,-4.2287,-4.2287,-4.2346,-4.2427,-4.2588,-4.2804,-4.3069,-4.3375,-4.3615,-4.38,-4.3961,-4.3992,-4.4005,-4.4005,-4.4005,-4.4005,-4.4005,-4.4005,-4.4005,-4.4005,-4.4005,-4.4005,-4.4005,-4.4005,-4.4005,-4.4005,-4.4005,-4.4005,-4.4005,-4.4005,-4.4005,-4.4005,-4.4005,-4.4055,-4.4165,-4.4255,-4.4401,-4.4632,-4.4846,-4.5038,-4.5194,-4.536,-4.5419,-4.5495,-4.5513,-4.5568,-4.5586,-4.5586,-4.5586,-4.5586,-4.5568,-4.5568,-4.5531,-4.5531,-4.5568,-4.5568,-4.5586,-4.5586,-4.5586,-4.5586,-4.5586,-4.5586,-4.5586,-4.5586,-4.5586,-4.5586,-4.5586,-4.5586,-4.5586,-4.5586,-4.5586,-4.5586,-4.5586,-4.5586,-4.5586,-3.3022,-3.3022,-3.3022,-3.2963,-3.2892,-3.2374,-3.2258,-3.2451,-3.2657,-3.3031,-3.3537,-3.3952,-3.4488,-3.5326,-3.607,-3.6654,-3.723,-3.7762,-3.8132,-3.8391,-3.8391,-3.8391,-3.852,-3.8632,-3.8969,-3.9487,-4.0121,-4.0566,-4.1076,-4.118,-4.1363,-4.156,-4.1692,-4.1841,-4.1987,-4.2055,-4.2163,-4.2246,-4.2287,-4.2287,-4.2287,-4.2287,-4.2405,-4.2526,-4.2706,-4.2956,-4.3214,-4.3461,-4.3697,-4.3846,-4.3942,-4.3974,-4.4005,-4.4005,-4.4005,-4.4005,-4.4005,-4.4005,-4.4005,-4.4005,-4.4005,-4.4005,-4.4005,-4.4005,-4.4005,-4.4005,-4.4005,-4.4005,-4.4005,-4.4005,-4.4005,-4.4005,-4.4005,-4.4023,-4.4135,-4.4274,-4.443,-4.4605,-4.477,-4.4967,-4.5129,-4.5298,-4.54,-4.5438,-4.5513,-4.5568,-4.5586,-4.5586,-4.5586,-4.5586,-4.5586,-4.5586,-4.5568,-4.5586,-4.5586,-4.5586,-4.5586,-4.5586,-4.5586,-4.5586,-4.5586,-4.5586,-4.5586,-4.5586,-4.5586,-4.5586,-4.5586,-4.5586,-4.5586,-4.5586,-4.5586,-4.5586,-4.5586,-4.5586,-4.5586,-3.3238,-3.33,-3.3362,-3.3078,-3.2676,-3.2705,-3.2475,-3.2224,-3.2613,-3.2967,-3.3255,-3.3634,-3.4317,-3.5625,-3.5902,-3.6393,-3.6906,-3.7469,-3.7987,-3.8327,-3.8415,-3.8488,-3.8672,-3.8931,-3.9398,-3.9969,-4.0436,-4.0823,-4.1105,-4.1226,-4.1363,-4.1604,-4.1604,-4.1754,-4.1962,-4.203,-4.2115,-4.2222,-4.2287,-4.2287,-4.2287,-4.2328,-4.2387,-4.2548,-4.2804,-4.3032,-4.3321,-4.3649,-4.3846,-4.3942,-4.3986,-4.4005,-4.4005,-4.4005,-4.4005,-4.4005,-4.4005,-4.4005,-4.4005,-4.4005,-4.4005,-4.4005,-4.4005,-4.4005,-4.4005,-4.4005,-4.4005,-4.4005,-4.4005,-4.4005,-4.4005,-4.4005,-4.4036,-4.4055,-4.4116,-4.4226,-4.4354,-4.4524,-4.4667,-4.487,-4.5103,-4.5258,-4.54,-4.5438,-4.5495,-4.555,-4.5586,-4.5586,-4.5586,-4.5586,-4.5586,-4.5586,-4.5586,-4.5586,-4.5586,-4.5586,-4.5586,-4.5586,-4.5586,-4.5586,-4.5586,-4.5586,-4.5586,-4.5586,-4.5586,-4.5586,-4.5586,-4.5586,-4.5586,-4.5586,-4.5586,-4.5586,-4.5586,-4.5586,-4.5586]}]]